<?xml version="1.0" encoding="UTF-8" standalone="no" ?>
<gpx xmlns="http://www.topografix.com/GPX/1/1" xmlns:xsi="http://www.w3.org/2001/XMLSchema-instance" xsi:schemaLocation="http://www.topografix.com/GPX/1/1 http://www.topografix.com/GPX/1/1/gpx.xsd" version="1.1" creator="VisuGPX - https://www.visugpx.com">
  <metadata>
    <name>GRPVannesJ6_J11</name>
    <desc><![CDATA[gnerando idor: 12438601_12438612_12438617_12438628_12438643_12438715]]></desc>
  </metadata>
  <trk>
    <name><![CDATA[GRPvannesJ10_BizoleVannes_21.8km-12438643]]></name>
    <extensions>
      <line xmlns="http://www.topografix.com/GPX/gpx_style/0/2">
        <color>0000FF</color>
        <width>4</width>
      </line>
    </extensions>
    <trkseg>
      <trkpt lat="47.67034" lon="-2.64877">
        <ele>49</ele>
        <time>2023-10-30T18:03:59Z</time>
      </trkpt>
      <trkpt lat="47.67052" lon="-2.64923">
        <ele>51</ele>
        <time>2023-10-30T18:04:47Z</time>
      </trkpt>
      <trkpt lat="47.67116" lon="-2.64945">
        <ele>55</ele>
        <time>2023-10-30T18:06:14Z</time>
      </trkpt>
      <trkpt lat="47.6715" lon="-2.64941">
        <ele>57</ele>
        <time>2023-10-30T18:07:00Z</time>
      </trkpt>
      <trkpt lat="47.67169" lon="-2.64934">
        <ele>58</ele>
        <time>2023-10-30T18:07:26Z</time>
      </trkpt>
      <trkpt lat="47.67221" lon="-2.64894">
        <ele>61</ele>
        <time>2023-10-30T18:08:44Z</time>
      </trkpt>
      <trkpt lat="47.67252" lon="-2.64903">
        <ele>64</ele>
        <time>2023-10-30T18:09:26Z</time>
      </trkpt>
      <trkpt lat="47.67262" lon="-2.64986">
        <ele>67</ele>
        <time>2023-10-30T18:10:42Z</time>
      </trkpt>
      <trkpt lat="47.67287" lon="-2.64997">
        <ele>71</ele>
        <time>2023-10-30T18:11:17Z</time>
      </trkpt>
      <trkpt lat="47.67312" lon="-2.65043">
        <ele>73</ele>
        <time>2023-10-30T18:12:10Z</time>
      </trkpt>
      <trkpt lat="47.67379" lon="-2.65009">
        <ele>84</ele>
        <time>2023-10-30T18:13:45Z</time>
      </trkpt>
      <trkpt lat="47.67376" lon="-2.64885">
        <ele>79</ele>
        <time>2023-10-30T18:15:36Z</time>
      </trkpt>
      <trkpt lat="47.67427" lon="-2.64898">
        <ele>86</ele>
        <time>2023-10-30T18:16:45Z</time>
      </trkpt>
      <trkpt lat="47.67487" lon="-2.64932">
        <ele>91</ele>
        <time>2023-10-30T18:18:11Z</time>
      </trkpt>
      <trkpt lat="47.67552" lon="-2.6498">
        <ele>92</ele>
        <time>2023-10-30T18:19:48Z</time>
      </trkpt>
      <trkpt lat="47.67622" lon="-2.65049">
        <ele>92</ele>
        <time>2023-10-30T18:21:40Z</time>
      </trkpt>
      <trkpt lat="47.6767" lon="-2.65071">
        <ele>91</ele>
        <time>2023-10-30T18:22:47Z</time>
      </trkpt>
      <trkpt lat="47.67734" lon="-2.65097">
        <ele>92</ele>
        <time>2023-10-30T18:24:15Z</time>
      </trkpt>
      <trkpt lat="47.67808" lon="-2.65097">
        <ele>94</ele>
        <time>2023-10-30T18:25:54Z</time>
      </trkpt>
      <trkpt lat="47.67825" lon="-2.65099">
        <ele>95</ele>
        <time>2023-10-30T18:26:17Z</time>
      </trkpt>
      <trkpt lat="47.67837" lon="-2.65114">
        <ele>95</ele>
        <time>2023-10-30T18:26:38Z</time>
      </trkpt>
      <trkpt lat="47.67889" lon="-2.65111">
        <ele>98</ele>
        <time>2023-10-30T18:27:47Z</time>
      </trkpt>
      <trkpt lat="47.67907" lon="-2.65123">
        <ele>98</ele>
        <time>2023-10-30T18:28:14Z</time>
      </trkpt>
      <trkpt lat="47.67926" lon="-2.65127">
        <ele>99</ele>
        <time>2023-10-30T18:28:39Z</time>
      </trkpt>
      <trkpt lat="47.67998" lon="-2.65065">
        <ele>101</ele>
        <time>2023-10-30T18:30:30Z</time>
      </trkpt>
      <trkpt lat="47.68026" lon="-2.65038">
        <ele>98</ele>
        <time>2023-10-30T18:31:15Z</time>
      </trkpt>
      <trkpt lat="47.68058" lon="-2.65081">
        <ele>97</ele>
        <time>2023-10-30T18:32:12Z</time>
      </trkpt>
      <trkpt lat="47.68124" lon="-2.6501">
        <ele>97</ele>
        <time>2023-10-30T18:34:01Z</time>
      </trkpt>
      <trkpt lat="47.68153" lon="-2.65043">
        <ele>97</ele>
        <time>2023-10-30T18:34:50Z</time>
      </trkpt>
      <trkpt lat="47.68184" lon="-2.65106">
        <ele>95</ele>
        <time>2023-10-30T18:36:00Z</time>
      </trkpt>
      <trkpt lat="47.68233" lon="-2.65127">
        <ele>97</ele>
        <time>2023-10-30T18:37:08Z</time>
      </trkpt>
      <trkpt lat="47.68285" lon="-2.65132">
        <ele>99</ele>
        <time>2023-10-30T18:38:18Z</time>
      </trkpt>
      <trkpt lat="47.68334" lon="-2.65143">
        <ele>100</ele>
        <time>2023-10-30T18:39:24Z</time>
      </trkpt>
      <trkpt lat="47.68367" lon="-2.652">
        <ele>100</ele>
        <time>2023-10-30T18:40:31Z</time>
      </trkpt>
      <trkpt lat="47.68394" lon="-2.65212">
        <ele>101</ele>
        <time>2023-10-30T18:41:09Z</time>
      </trkpt>
      <trkpt lat="47.68452" lon="-2.65161">
        <ele>105</ele>
        <time>2023-10-30T18:42:39Z</time>
      </trkpt>
      <trkpt lat="47.6862" lon="-2.6513">
        <ele>112</ele>
        <time>2023-10-30T18:46:25Z</time>
      </trkpt>
      <trkpt lat="47.68692" lon="-2.6513">
        <ele>116</ele>
        <time>2023-10-30T18:48:01Z</time>
      </trkpt>
      <trkpt lat="47.68768" lon="-2.65149">
        <ele>116</ele>
        <time>2023-10-30T18:49:44Z</time>
      </trkpt>
      <trkpt lat="47.68825" lon="-2.65201">
        <ele>117</ele>
        <time>2023-10-30T18:51:13Z</time>
      </trkpt>
      <trkpt lat="47.68836" lon="-2.65203">
        <ele>118</ele>
        <time>2023-10-30T18:51:28Z</time>
      </trkpt>
      <trkpt lat="47.68894" lon="-2.65176">
        <ele>121</ele>
        <time>2023-10-30T18:52:49Z</time>
      </trkpt>
      <trkpt lat="47.68925" lon="-2.65204">
        <ele>120</ele>
        <time>2023-10-30T18:53:37Z</time>
      </trkpt>
      <trkpt lat="47.68971" lon="-2.6532">
        <ele>116</ele>
        <time>2023-10-30T18:55:38Z</time>
      </trkpt>
      <trkpt lat="47.69" lon="-2.6536">
        <ele>115</ele>
        <time>2023-10-30T18:56:31Z</time>
      </trkpt>
      <trkpt lat="47.69043" lon="-2.65357">
        <ele>117</ele>
        <time>2023-10-30T18:57:28Z</time>
      </trkpt>
      <trkpt lat="47.69113" lon="-2.65338">
        <ele>118</ele>
        <time>2023-10-30T18:59:03Z</time>
      </trkpt>
      <trkpt lat="47.69228" lon="-2.65263">
        <ele>120</ele>
        <time>2023-10-30T19:01:51Z</time>
      </trkpt>
      <trkpt lat="47.69335" lon="-2.6527">
        <ele>123</ele>
        <time>2023-10-30T19:04:14Z</time>
      </trkpt>
      <trkpt lat="47.69298" lon="-2.65511">
        <ele>126</ele>
        <time>2023-10-30T19:07:56Z</time>
      </trkpt>
      <trkpt lat="47.69358" lon="-2.6552">
        <ele>127</ele>
        <time>2023-10-30T19:09:16Z</time>
      </trkpt>
      <trkpt lat="47.69405" lon="-2.65544">
        <ele>128</ele>
        <time>2023-10-30T19:10:23Z</time>
      </trkpt>
      <trkpt lat="47.69557" lon="-2.65565">
        <ele>132</ele>
        <time>2023-10-30T19:13:46Z</time>
      </trkpt>
      <trkpt lat="47.69632" lon="-2.65592">
        <ele>133</ele>
        <time>2023-10-30T19:15:29Z</time>
      </trkpt>
      <trkpt lat="47.69776" lon="-2.65606">
        <ele>132</ele>
        <time>2023-10-30T19:18:42Z</time>
      </trkpt>
      <trkpt lat="47.69825" lon="-2.65607">
        <ele>132</ele>
        <time>2023-10-30T19:19:47Z</time>
      </trkpt>
      <trkpt lat="47.69859" lon="-2.65611">
        <ele>131</ele>
        <time>2023-10-30T19:20:33Z</time>
      </trkpt>
      <trkpt lat="47.6989" lon="-2.65568">
        <ele>129</ele>
        <time>2023-10-30T19:21:30Z</time>
      </trkpt>
      <trkpt lat="47.69894" lon="-2.6549">
        <ele>129</ele>
        <time>2023-10-30T19:22:40Z</time>
      </trkpt>
      <trkpt lat="47.69906" lon="-2.65418">
        <ele>128</ele>
        <time>2023-10-30T19:23:46Z</time>
      </trkpt>
      <trkpt lat="47.69933" lon="-2.65354">
        <ele>122</ele>
        <time>2023-10-30T19:24:54Z</time>
      </trkpt>
      <trkpt lat="47.69948" lon="-2.65304">
        <ele>120</ele>
        <time>2023-10-30T19:25:43Z</time>
      </trkpt>
      <trkpt lat="47.69977" lon="-2.65183">
        <ele>116</ele>
        <time>2023-10-30T19:27:39Z</time>
      </trkpt>
      <trkpt lat="47.69997" lon="-2.65113">
        <ele>114</ele>
        <time>2023-10-30T19:28:47Z</time>
      </trkpt>
      <trkpt lat="47.69997" lon="-2.65043">
        <ele>118</ele>
        <time>2023-10-30T19:29:50Z</time>
      </trkpt>
      <trkpt lat="47.70021" lon="-2.65014">
        <ele>116</ele>
        <time>2023-10-30T19:30:31Z</time>
      </trkpt>
      <trkpt lat="47.7005" lon="-2.64993">
        <ele>111</ele>
        <time>2023-10-30T19:31:14Z</time>
      </trkpt>
      <trkpt lat="47.70098" lon="-2.64991">
        <ele>102</ele>
        <time>2023-10-30T19:32:18Z</time>
      </trkpt>
      <trkpt lat="47.70108" lon="-2.6501">
        <ele>100</ele>
        <time>2023-10-30T19:32:40Z</time>
      </trkpt>
      <trkpt lat="47.70183" lon="-2.65047">
        <ele>89</ele>
        <time>2023-10-30T19:34:25Z</time>
      </trkpt>
      <trkpt lat="47.70207" lon="-2.65069">
        <ele>85</ele>
        <time>2023-10-30T19:35:03Z</time>
      </trkpt>
      <trkpt lat="47.70267" lon="-2.65075">
        <ele>80</ele>
        <time>2023-10-30T19:36:23Z</time>
      </trkpt>
      <trkpt lat="47.70275" lon="-2.65087">
        <ele>79</ele>
        <time>2023-10-30T19:36:38Z</time>
      </trkpt>
      <trkpt lat="47.70279" lon="-2.65089">
        <ele>79</ele>
        <time>2023-10-30T19:36:44Z</time>
      </trkpt>
      <trkpt lat="47.70278" lon="-2.65096">
        <ele>79</ele>
        <time>2023-10-30T19:36:51Z</time>
      </trkpt>
      <trkpt lat="47.70331" lon="-2.65136">
        <ele>78</ele>
        <time>2023-10-30T19:38:10Z</time>
      </trkpt>
      <trkpt lat="47.70306" lon="-2.65268">
        <ele>77</ele>
        <time>2023-10-30T19:40:13Z</time>
      </trkpt>
      <trkpt lat="47.70298" lon="-2.65415">
        <ele>77</ele>
        <time>2023-10-30T19:42:25Z</time>
      </trkpt>
      <trkpt lat="47.70317" lon="-2.65436">
        <ele>78</ele>
        <time>2023-10-30T19:42:57Z</time>
      </trkpt>
      <trkpt lat="47.70303" lon="-2.65501">
        <ele>78</ele>
        <time>2023-10-30T19:43:58Z</time>
      </trkpt>
      <trkpt lat="47.70275" lon="-2.65581">
        <ele>76</ele>
        <time>2023-10-30T19:45:19Z</time>
      </trkpt>
      <trkpt lat="47.70264" lon="-2.65688">
        <ele>75</ele>
        <time>2023-10-30T19:46:57Z</time>
      </trkpt>
      <trkpt lat="47.70303" lon="-2.65785">
        <ele>76</ele>
        <time>2023-10-30T19:48:38Z</time>
      </trkpt>
      <trkpt lat="47.7029" lon="-2.65815">
        <ele>75</ele>
        <time>2023-10-30T19:49:10Z</time>
      </trkpt>
      <trkpt lat="47.70313" lon="-2.6584">
        <ele>75</ele>
        <time>2023-10-30T19:49:48Z</time>
      </trkpt>
      <trkpt lat="47.70356" lon="-2.65837">
        <ele>76</ele>
        <time>2023-10-30T19:50:46Z</time>
      </trkpt>
      <trkpt lat="47.70347" lon="-2.65876">
        <ele>75</ele>
        <time>2023-10-30T19:51:23Z</time>
      </trkpt>
      <trkpt lat="47.70398" lon="-2.66017">
        <ele>75</ele>
        <time>2023-10-30T19:53:46Z</time>
      </trkpt>
      <trkpt lat="47.70391" lon="-2.66153">
        <ele>76</ele>
        <time>2023-10-30T19:55:49Z</time>
      </trkpt>
      <trkpt lat="47.70432" lon="-2.6626">
        <ele>75</ele>
        <time>2023-10-30T19:57:39Z</time>
      </trkpt>
      <trkpt lat="47.7053" lon="-2.66335">
        <ele>80</ele>
        <time>2023-10-30T20:00:06Z</time>
      </trkpt>
      <trkpt lat="47.70559" lon="-2.66464">
        <ele>76</ele>
        <time>2023-10-30T20:02:09Z</time>
      </trkpt>
      <trkpt lat="47.70518" lon="-2.66499">
        <ele>73</ele>
        <time>2023-10-30T20:03:12Z</time>
      </trkpt>
      <trkpt lat="47.70537" lon="-2.66616">
        <ele>74</ele>
        <time>2023-10-30T20:05:00Z</time>
      </trkpt>
      <trkpt lat="47.70523" lon="-2.66628">
        <ele>75</ele>
        <time>2023-10-30T20:05:21Z</time>
      </trkpt>
      <trkpt lat="47.70538" lon="-2.6671">
        <ele>74</ele>
        <time>2023-10-30T20:06:38Z</time>
      </trkpt>
      <trkpt lat="47.70546" lon="-2.6682">
        <ele>72</ele>
        <time>2023-10-30T20:08:17Z</time>
      </trkpt>
      <trkpt lat="47.70542" lon="-2.66927">
        <ele>73</ele>
        <time>2023-10-30T20:09:53Z</time>
      </trkpt>
      <trkpt lat="47.70504" lon="-2.66963">
        <ele>74</ele>
        <time>2023-10-30T20:10:53Z</time>
      </trkpt>
      <trkpt lat="47.70461" lon="-2.67066">
        <ele>77</ele>
        <time>2023-10-30T20:12:42Z</time>
      </trkpt>
      <trkpt lat="47.70399" lon="-2.67254">
        <ele>76</ele>
        <time>2023-10-30T20:15:50Z</time>
      </trkpt>
      <trkpt lat="47.7042" lon="-2.67442">
        <ele>71</ele>
        <time>2023-10-30T20:18:41Z</time>
      </trkpt>
      <trkpt lat="47.70426" lon="-2.67727">
        <ele>68</ele>
        <time>2023-10-30T20:22:57Z</time>
      </trkpt>
      <trkpt lat="47.70387" lon="-2.67783">
        <ele>75</ele>
        <time>2023-10-30T20:24:10Z</time>
      </trkpt>
      <trkpt lat="47.7038" lon="-2.67896">
        <ele>78</ele>
        <time>2023-10-30T20:25:52Z</time>
      </trkpt>
      <trkpt lat="47.70359" lon="-2.67922">
        <ele>83</ele>
        <time>2023-10-30T20:26:28Z</time>
      </trkpt>
      <trkpt lat="47.70355" lon="-2.68054">
        <ele>90</ele>
        <time>2023-10-30T20:28:27Z</time>
      </trkpt>
      <trkpt lat="47.70337" lon="-2.68166">
        <ele>93</ele>
        <time>2023-10-30T20:30:10Z</time>
      </trkpt>
      <trkpt lat="47.70332" lon="-2.68275">
        <ele>92</ele>
        <time>2023-10-30T20:31:48Z</time>
      </trkpt>
      <trkpt lat="47.70332" lon="-2.68329">
        <ele>89</ele>
        <time>2023-10-30T20:32:37Z</time>
      </trkpt>
      <trkpt lat="47.70356" lon="-2.68408">
        <ele>79</ele>
        <time>2023-10-30T20:33:55Z</time>
      </trkpt>
      <trkpt lat="47.70325" lon="-2.68441">
        <ele>83</ele>
        <time>2023-10-30T20:34:46Z</time>
      </trkpt>
      <trkpt lat="47.70296" lon="-2.68485">
        <ele>86</ele>
        <time>2023-10-30T20:35:41Z</time>
      </trkpt>
      <trkpt lat="47.7028" lon="-2.68647">
        <ele>86</ele>
        <time>2023-10-30T20:38:08Z</time>
      </trkpt>
      <trkpt lat="47.70284" lon="-2.68711">
        <ele>86</ele>
        <time>2023-10-30T20:39:06Z</time>
      </trkpt>
      <trkpt lat="47.703" lon="-2.68813">
        <ele>80</ele>
        <time>2023-10-30T20:40:40Z</time>
      </trkpt>
      <trkpt lat="47.70295" lon="-2.68926">
        <ele>82</ele>
        <time>2023-10-30T20:42:22Z</time>
      </trkpt>
      <trkpt lat="47.70269" lon="-2.69057">
        <ele>90</ele>
        <time>2023-10-30T20:44:24Z</time>
      </trkpt>
      <trkpt lat="47.70269" lon="-2.6911">
        <ele>90</ele>
        <time>2023-10-30T20:45:12Z</time>
      </trkpt>
      <trkpt lat="47.70302" lon="-2.69197">
        <ele>84</ele>
        <time>2023-10-30T20:46:41Z</time>
      </trkpt>
      <trkpt lat="47.703" lon="-2.6924">
        <ele>84</ele>
        <time>2023-10-30T20:47:20Z</time>
      </trkpt>
      <trkpt lat="47.70321" lon="-2.69326">
        <ele>78</ele>
        <time>2023-10-30T20:48:42Z</time>
      </trkpt>
      <trkpt lat="47.70323" lon="-2.69386">
        <ele>79</ele>
        <time>2023-10-30T20:49:36Z</time>
      </trkpt>
      <trkpt lat="47.70337" lon="-2.69467">
        <ele>80</ele>
        <time>2023-10-30T20:50:51Z</time>
      </trkpt>
      <trkpt lat="47.70333" lon="-2.6956">
        <ele>82</ele>
        <time>2023-10-30T20:52:15Z</time>
      </trkpt>
      <trkpt lat="47.70324" lon="-2.69623">
        <ele>83</ele>
        <time>2023-10-30T20:53:13Z</time>
      </trkpt>
      <trkpt lat="47.70326" lon="-2.6963">
        <ele>82</ele>
        <time>2023-10-30T20:53:20Z</time>
      </trkpt>
      <trkpt lat="47.70325" lon="-2.69656">
        <ele>81</ele>
        <time>2023-10-30T20:53:43Z</time>
      </trkpt>
      <trkpt lat="47.70321" lon="-2.69695">
        <ele>78</ele>
        <time>2023-10-30T20:54:19Z</time>
      </trkpt>
      <trkpt lat="47.70285" lon="-2.69774">
        <ele>74</ele>
        <time>2023-10-30T20:55:44Z</time>
      </trkpt>
      <trkpt lat="47.70263" lon="-2.69805">
        <ele>74</ele>
        <time>2023-10-30T20:56:25Z</time>
      </trkpt>
      <trkpt lat="47.70263" lon="-2.69817">
        <ele>72</ele>
        <time>2023-10-30T20:56:35Z</time>
      </trkpt>
      <trkpt lat="47.70233" lon="-2.69867">
        <ele>69</ele>
        <time>2023-10-30T20:57:36Z</time>
      </trkpt>
      <trkpt lat="47.70195" lon="-2.699">
        <ele>69</ele>
        <time>2023-10-30T20:58:34Z</time>
      </trkpt>
      <trkpt lat="47.70203" lon="-2.69944">
        <ele>63</ele>
        <time>2023-10-30T20:59:15Z</time>
      </trkpt>
      <trkpt lat="47.70248" lon="-2.69911">
        <ele>62</ele>
        <time>2023-10-30T21:00:22Z</time>
      </trkpt>
      <trkpt lat="47.70261" lon="-2.69888">
        <ele>63</ele>
        <time>2023-10-30T21:00:49Z</time>
      </trkpt>
      <trkpt lat="47.7029" lon="-2.69848">
        <ele>63</ele>
        <time>2023-10-30T21:01:42Z</time>
      </trkpt>
      <trkpt lat="47.70314" lon="-2.69806">
        <ele>64</ele>
        <time>2023-10-30T21:02:32Z</time>
      </trkpt>
      <trkpt lat="47.70378" lon="-2.69872">
        <ele>53</ele>
        <time>2023-10-30T21:04:15Z</time>
      </trkpt>
      <trkpt lat="47.70395" lon="-2.69907">
        <ele>52</ele>
        <time>2023-10-30T21:04:54Z</time>
      </trkpt>
      <trkpt lat="47.70378" lon="-2.69972">
        <ele>56</ele>
        <time>2023-10-30T21:05:57Z</time>
      </trkpt>
      <trkpt lat="47.70511" lon="-2.70135">
        <ele>72</ele>
        <time>2023-10-30T21:09:47Z</time>
      </trkpt>
      <trkpt lat="47.70597" lon="-2.7017">
        <ele>70</ele>
        <time>2023-10-30T21:11:46Z</time>
      </trkpt>
      <trkpt lat="47.70642" lon="-2.70184">
        <ele>71</ele>
        <time>2023-10-30T21:12:47Z</time>
      </trkpt>
      <trkpt lat="47.70681" lon="-2.70211">
        <ele>72</ele>
        <time>2023-10-30T21:13:45Z</time>
      </trkpt>
      <trkpt lat="47.70682" lon="-2.70238">
        <ele>74</ele>
        <time>2023-10-30T21:14:09Z</time>
      </trkpt>
      <trkpt lat="47.70657" lon="-2.70305">
        <ele>85</ele>
        <time>2023-10-30T21:15:18Z</time>
      </trkpt>
      <trkpt lat="47.70654" lon="-2.70419">
        <ele>96</ele>
        <time>2023-10-30T21:17:00Z</time>
      </trkpt>
      <trkpt lat="47.70667" lon="-2.70497">
        <ele>99</ele>
        <time>2023-10-30T21:18:12Z</time>
      </trkpt>
      <trkpt lat="47.70691" lon="-2.70566">
        <ele>99</ele>
        <time>2023-10-30T21:19:22Z</time>
      </trkpt>
      <trkpt lat="47.70707" lon="-2.70707">
        <ele>100</ele>
        <time>2023-10-30T21:21:31Z</time>
      </trkpt>
      <trkpt lat="47.70678" lon="-2.70708">
        <ele>104</ele>
        <time>2023-10-30T21:22:09Z</time>
      </trkpt>
      <trkpt lat="47.70642" lon="-2.70695">
        <ele>108</ele>
        <time>2023-10-30T21:22:59Z</time>
      </trkpt>
      <trkpt lat="47.70609" lon="-2.70691">
        <ele>111</ele>
        <time>2023-10-30T21:23:43Z</time>
      </trkpt>
      <trkpt lat="47.70604" lon="-2.70741">
        <ele>113</ele>
        <time>2023-10-30T21:24:28Z</time>
      </trkpt>
      <trkpt lat="47.70585" lon="-2.70776">
        <ele>115</ele>
        <time>2023-10-30T21:25:09Z</time>
      </trkpt>
      <trkpt lat="47.70545" lon="-2.70799">
        <ele>113</ele>
        <time>2023-10-30T21:26:06Z</time>
      </trkpt>
      <trkpt lat="47.70534" lon="-2.70855">
        <ele>113</ele>
        <time>2023-10-30T21:26:58Z</time>
      </trkpt>
      <trkpt lat="47.70563" lon="-2.70961">
        <ele>114</ele>
        <time>2023-10-30T21:28:41Z</time>
      </trkpt>
      <trkpt lat="47.70601" lon="-2.71025">
        <ele>115</ele>
        <time>2023-10-30T21:29:58Z</time>
      </trkpt>
      <trkpt lat="47.70637" lon="-2.71068">
        <ele>116</ele>
        <time>2023-10-30T21:30:59Z</time>
      </trkpt>
      <trkpt lat="47.70647" lon="-2.71152">
        <ele>113</ele>
        <time>2023-10-30T21:32:16Z</time>
      </trkpt>
      <trkpt lat="47.70638" lon="-2.71198">
        <ele>110</ele>
        <time>2023-10-30T21:32:59Z</time>
      </trkpt>
      <trkpt lat="47.70543" lon="-2.71306">
        <ele>102</ele>
        <time>2023-10-30T21:35:39Z</time>
      </trkpt>
      <trkpt lat="47.7049" lon="-2.71358">
        <ele>99</ele>
        <time>2023-10-30T21:37:03Z</time>
      </trkpt>
      <trkpt lat="47.70497" lon="-2.71386">
        <ele>99</ele>
        <time>2023-10-30T21:37:30Z</time>
      </trkpt>
      <trkpt lat="47.70558" lon="-2.71339">
        <ele>101</ele>
        <time>2023-10-30T21:39:02Z</time>
      </trkpt>
      <trkpt lat="47.70611" lon="-2.71294">
        <ele>104</ele>
        <time>2023-10-30T21:40:23Z</time>
      </trkpt>
      <trkpt lat="47.70665" lon="-2.71234">
        <ele>108</ele>
        <time>2023-10-30T21:41:53Z</time>
      </trkpt>
      <trkpt lat="47.7069" lon="-2.71223">
        <ele>109</ele>
        <time>2023-10-30T21:42:28Z</time>
      </trkpt>
      <trkpt lat="47.70706" lon="-2.71206">
        <ele>110</ele>
        <time>2023-10-30T21:42:54Z</time>
      </trkpt>
      <trkpt lat="47.70731" lon="-2.71256">
        <ele>109</ele>
        <time>2023-10-30T21:43:50Z</time>
      </trkpt>
      <trkpt lat="47.70785" lon="-2.71393">
        <ele>108</ele>
        <time>2023-10-30T21:46:13Z</time>
      </trkpt>
      <trkpt lat="47.70831" lon="-2.71547">
        <ele>106</ele>
        <time>2023-10-30T21:48:44Z</time>
      </trkpt>
      <trkpt lat="47.70872" lon="-2.71641">
        <ele>96</ele>
        <time>2023-10-30T21:50:25Z</time>
      </trkpt>
      <trkpt lat="47.70905" lon="-2.71701">
        <ele>86</ele>
        <time>2023-10-30T21:51:34Z</time>
      </trkpt>
      <trkpt lat="47.709" lon="-2.71821">
        <ele>86</ele>
        <time>2023-10-30T21:53:22Z</time>
      </trkpt>
      <trkpt lat="47.70879" lon="-2.71936">
        <ele>83</ele>
        <time>2023-10-30T21:55:09Z</time>
      </trkpt>
      <trkpt lat="47.70873" lon="-2.72022">
        <ele>76</ele>
        <time>2023-10-30T21:56:27Z</time>
      </trkpt>
      <trkpt lat="47.7085" lon="-2.72054">
        <ele>75</ele>
        <time>2023-10-30T21:57:09Z</time>
      </trkpt>
      <trkpt lat="47.70815" lon="-2.72086">
        <ele>74</ele>
        <time>2023-10-30T21:58:04Z</time>
      </trkpt>
      <trkpt lat="47.70694" lon="-2.72138">
        <ele>75</ele>
        <time>2023-10-30T22:00:52Z</time>
      </trkpt>
      <trkpt lat="47.70654" lon="-2.72134">
        <ele>79</ele>
        <time>2023-10-30T22:01:45Z</time>
      </trkpt>
      <trkpt lat="47.70611" lon="-2.7214">
        <ele>80</ele>
        <time>2023-10-30T22:02:43Z</time>
      </trkpt>
      <trkpt lat="47.70553" lon="-2.72185">
        <ele>78</ele>
        <time>2023-10-30T22:04:10Z</time>
      </trkpt>
      <trkpt lat="47.70483" lon="-2.72255">
        <ele>79</ele>
        <time>2023-10-30T22:06:03Z</time>
      </trkpt>
      <trkpt lat="47.70462" lon="-2.72256">
        <ele>80</ele>
        <time>2023-10-30T22:06:31Z</time>
      </trkpt>
      <trkpt lat="47.70442" lon="-2.72225">
        <ele>84</ele>
        <time>2023-10-30T22:07:09Z</time>
      </trkpt>
      <trkpt lat="47.70432" lon="-2.72183">
        <ele>86</ele>
        <time>2023-10-30T22:07:49Z</time>
      </trkpt>
      <trkpt lat="47.70421" lon="-2.72105">
        <ele>87</ele>
        <time>2023-10-30T22:09:01Z</time>
      </trkpt>
      <trkpt lat="47.70342" lon="-2.72118">
        <ele>85</ele>
        <time>2023-10-30T22:10:47Z</time>
      </trkpt>
      <trkpt lat="47.70257" lon="-2.721">
        <ele>79</ele>
        <time>2023-10-30T22:12:42Z</time>
      </trkpt>
      <trkpt lat="47.70236" lon="-2.7209">
        <ele>76</ele>
        <time>2023-10-30T22:13:11Z</time>
      </trkpt>
      <trkpt lat="47.70208" lon="-2.72056">
        <ele>73</ele>
        <time>2023-10-30T22:13:59Z</time>
      </trkpt>
      <trkpt lat="47.70194" lon="-2.72062">
        <ele>71</ele>
        <time>2023-10-30T22:14:19Z</time>
      </trkpt>
      <trkpt lat="47.70178" lon="-2.72127">
        <ele>68</ele>
        <time>2023-10-30T22:15:21Z</time>
      </trkpt>
      <trkpt lat="47.70174" lon="-2.72191">
        <ele>65</ele>
        <time>2023-10-30T22:16:19Z</time>
      </trkpt>
      <trkpt lat="47.70183" lon="-2.72285">
        <ele>63</ele>
        <time>2023-10-30T22:17:44Z</time>
      </trkpt>
      <trkpt lat="47.70198" lon="-2.72364">
        <ele>60</ele>
        <time>2023-10-30T22:18:58Z</time>
      </trkpt>
      <trkpt lat="47.7022" lon="-2.72427">
        <ele>56</ele>
        <time>2023-10-30T22:20:01Z</time>
      </trkpt>
      <trkpt lat="47.70214" lon="-2.7247">
        <ele>55</ele>
        <time>2023-10-30T22:20:41Z</time>
      </trkpt>
      <trkpt lat="47.70195" lon="-2.72476">
        <ele>55</ele>
        <time>2023-10-30T22:21:07Z</time>
      </trkpt>
      <trkpt lat="47.7015" lon="-2.72545">
        <ele>56</ele>
        <time>2023-10-30T22:22:33Z</time>
      </trkpt>
      <trkpt lat="47.70101" lon="-2.72632">
        <ele>55</ele>
        <time>2023-10-30T22:24:15Z</time>
      </trkpt>
      <trkpt lat="47.7006" lon="-2.72735">
        <ele>49</ele>
        <time>2023-10-30T22:26:02Z</time>
      </trkpt>
      <trkpt lat="47.70035" lon="-2.7275">
        <ele>47</ele>
        <time>2023-10-30T22:26:38Z</time>
      </trkpt>
      <trkpt lat="47.7001" lon="-2.72747">
        <ele>46</ele>
        <time>2023-10-30T22:27:12Z</time>
      </trkpt>
      <trkpt lat="47.69969" lon="-2.7271">
        <ele>48</ele>
        <time>2023-10-30T22:28:16Z</time>
      </trkpt>
      <trkpt lat="47.69918" lon="-2.72676">
        <ele>43</ele>
        <time>2023-10-30T22:29:30Z</time>
      </trkpt>
      <trkpt lat="47.69902" lon="-2.72674">
        <ele>38</ele>
        <time>2023-10-30T22:29:52Z</time>
      </trkpt>
      <trkpt lat="47.6989" lon="-2.72681">
        <ele>34</ele>
        <time>2023-10-30T22:30:09Z</time>
      </trkpt>
      <trkpt lat="47.69893" lon="-2.72696">
        <ele>36</ele>
        <time>2023-10-30T22:30:23Z</time>
      </trkpt>
      <trkpt lat="47.6989" lon="-2.72766">
        <ele>41</ele>
        <time>2023-10-30T22:31:26Z</time>
      </trkpt>
      <trkpt lat="47.6989" lon="-2.72869">
        <ele>50</ele>
        <time>2023-10-30T22:32:59Z</time>
      </trkpt>
      <trkpt lat="47.69896" lon="-2.7299">
        <ele>56</ele>
        <time>2023-10-30T22:34:48Z</time>
      </trkpt>
      <trkpt lat="47.69901" lon="-2.73025">
        <ele>57</ele>
        <time>2023-10-30T22:35:20Z</time>
      </trkpt>
      <trkpt lat="47.69852" lon="-2.73079">
        <ele>54</ele>
        <time>2023-10-30T22:36:41Z</time>
      </trkpt>
      <trkpt lat="47.69805" lon="-2.73123">
        <ele>50</ele>
        <time>2023-10-30T22:37:55Z</time>
      </trkpt>
      <trkpt lat="47.69757" lon="-2.73131">
        <ele>49</ele>
        <time>2023-10-30T22:39:00Z</time>
      </trkpt>
      <trkpt lat="47.69713" lon="-2.7313">
        <ele>47</ele>
        <time>2023-10-30T22:39:58Z</time>
      </trkpt>
      <trkpt lat="47.69664" lon="-2.73135">
        <ele>46</ele>
        <time>2023-10-30T22:41:04Z</time>
      </trkpt>
      <trkpt lat="47.69604" lon="-2.73172">
        <ele>41</ele>
        <time>2023-10-30T22:42:31Z</time>
      </trkpt>
      <trkpt lat="47.69566" lon="-2.73203">
        <ele>40</ele>
        <time>2023-10-30T22:43:29Z</time>
      </trkpt>
      <trkpt lat="47.69551" lon="-2.73202">
        <ele>40</ele>
        <time>2023-10-30T22:43:49Z</time>
      </trkpt>
      <trkpt lat="47.69504" lon="-2.7322">
        <ele>44</ele>
        <time>2023-10-30T22:44:53Z</time>
      </trkpt>
      <trkpt lat="47.69463" lon="-2.73212">
        <ele>42</ele>
        <time>2023-10-30T22:45:49Z</time>
      </trkpt>
      <trkpt lat="47.69421" lon="-2.73195">
        <ele>38</ele>
        <time>2023-10-30T22:46:47Z</time>
      </trkpt>
      <trkpt lat="47.69314" lon="-2.73163">
        <ele>35</ele>
        <time>2023-10-30T22:49:12Z</time>
      </trkpt>
      <trkpt lat="47.6931" lon="-2.73058">
        <ele>33</ele>
        <time>2023-10-30T22:50:47Z</time>
      </trkpt>
      <trkpt lat="47.69311" lon="-2.73019">
        <ele>33</ele>
        <time>2023-10-30T22:51:22Z</time>
      </trkpt>
      <trkpt lat="47.69267" lon="-2.73005">
        <ele>32</ele>
        <time>2023-10-30T22:52:22Z</time>
      </trkpt>
      <trkpt lat="47.69246" lon="-2.72985">
        <ele>32</ele>
        <time>2023-10-30T22:52:55Z</time>
      </trkpt>
      <trkpt lat="47.6922" lon="-2.72984">
        <ele>32</ele>
        <time>2023-10-30T22:53:30Z</time>
      </trkpt>
      <trkpt lat="47.69212" lon="-2.72976">
        <ele>32</ele>
        <time>2023-10-30T22:53:43Z</time>
      </trkpt>
      <trkpt lat="47.69165" lon="-2.72975">
        <ele>31</ele>
        <time>2023-10-30T22:54:45Z</time>
      </trkpt>
      <trkpt lat="47.69095" lon="-2.72923">
        <ele>31</ele>
        <time>2023-10-30T22:56:30Z</time>
      </trkpt>
      <trkpt lat="47.69079" lon="-2.72906">
        <ele>31</ele>
        <time>2023-10-30T22:56:56Z</time>
      </trkpt>
      <trkpt lat="47.69044" lon="-2.72895">
        <ele>31</ele>
        <time>2023-10-30T22:57:44Z</time>
      </trkpt>
      <trkpt lat="47.69041" lon="-2.72874">
        <ele>30</ele>
        <time>2023-10-30T22:58:03Z</time>
      </trkpt>
      <trkpt lat="47.69024" lon="-2.72873">
        <ele>30</ele>
        <time>2023-10-30T22:58:26Z</time>
      </trkpt>
      <trkpt lat="47.68992" lon="-2.72879">
        <ele>30</ele>
        <time>2023-10-30T22:59:09Z</time>
      </trkpt>
      <trkpt lat="47.68984" lon="-2.72889">
        <ele>30</ele>
        <time>2023-10-30T22:59:23Z</time>
      </trkpt>
      <trkpt lat="47.68956" lon="-2.72941">
        <ele>32</ele>
        <time>2023-10-30T23:00:23Z</time>
      </trkpt>
      <trkpt lat="47.68938" lon="-2.72999">
        <ele>34</ele>
        <time>2023-10-30T23:01:20Z</time>
      </trkpt>
      <trkpt lat="47.68935" lon="-2.73048">
        <ele>36</ele>
        <time>2023-10-30T23:02:04Z</time>
      </trkpt>
      <trkpt lat="47.68997" lon="-2.73123">
        <ele>36</ele>
        <time>2023-10-30T23:03:51Z</time>
      </trkpt>
      <trkpt lat="47.69017" lon="-2.73163">
        <ele>38</ele>
        <time>2023-10-30T23:04:36Z</time>
      </trkpt>
      <trkpt lat="47.69002" lon="-2.73387">
        <ele>49</ele>
        <time>2023-10-30T23:07:58Z</time>
      </trkpt>
      <trkpt lat="47.69011" lon="-2.73483">
        <ele>51</ele>
        <time>2023-10-30T23:09:25Z</time>
      </trkpt>
      <trkpt lat="47.68996" lon="-2.73606">
        <ele>53</ele>
        <time>2023-10-30T23:11:17Z</time>
      </trkpt>
      <trkpt lat="47.68974" lon="-2.73673">
        <ele>53</ele>
        <time>2023-10-30T23:12:24Z</time>
      </trkpt>
      <trkpt lat="47.68992" lon="-2.73706">
        <ele>54</ele>
        <time>2023-10-30T23:13:02Z</time>
      </trkpt>
      <trkpt lat="47.69037" lon="-2.73694">
        <ele>55</ele>
        <time>2023-10-30T23:14:03Z</time>
      </trkpt>
      <trkpt lat="47.69077" lon="-2.73816">
        <ele>56</ele>
        <time>2023-10-30T23:16:05Z</time>
      </trkpt>
      <trkpt lat="47.69064" lon="-2.73818">
        <ele>56</ele>
        <time>2023-10-30T23:16:23Z</time>
      </trkpt>
      <trkpt lat="47.69072" lon="-2.73847">
        <ele>56</ele>
        <time>2023-10-30T23:16:51Z</time>
      </trkpt>
      <trkpt lat="47.69097" lon="-2.7385">
        <ele>56</ele>
        <time>2023-10-30T23:17:24Z</time>
      </trkpt>
      <trkpt lat="47.69167" lon="-2.74053">
        <ele>57</ele>
        <time>2023-10-30T23:20:49Z</time>
      </trkpt>
      <trkpt lat="47.69136" lon="-2.74102">
        <ele>55</ele>
        <time>2023-10-30T23:21:50Z</time>
      </trkpt>
      <trkpt lat="47.69144" lon="-2.7424">
        <ele>54</ele>
        <time>2023-10-30T23:23:54Z</time>
      </trkpt>
      <trkpt lat="47.69129" lon="-2.74265">
        <ele>54</ele>
        <time>2023-10-30T23:24:24Z</time>
      </trkpt>
      <trkpt lat="47.6913" lon="-2.74285">
        <ele>54</ele>
        <time>2023-10-30T23:24:42Z</time>
      </trkpt>
      <trkpt lat="47.69152" lon="-2.74295">
        <ele>54</ele>
        <time>2023-10-30T23:25:13Z</time>
      </trkpt>
      <trkpt lat="47.69184" lon="-2.74417">
        <ele>55</ele>
        <time>2023-10-30T23:27:10Z</time>
      </trkpt>
      <trkpt lat="47.69202" lon="-2.74439">
        <ele>55</ele>
        <time>2023-10-30T23:27:42Z</time>
      </trkpt>
      <trkpt lat="47.69259" lon="-2.74553">
        <ele>55</ele>
        <time>2023-10-30T23:29:49Z</time>
      </trkpt>
      <trkpt lat="47.69385" lon="-2.74778">
        <ele>55</ele>
        <time>2023-10-30T23:34:12Z</time>
      </trkpt>
      <trkpt lat="47.69356" lon="-2.74794">
        <ele>54</ele>
        <time>2023-10-30T23:34:53Z</time>
      </trkpt>
      <trkpt lat="47.69416" lon="-2.75007">
        <ele>52</ele>
        <time>2023-10-30T23:38:21Z</time>
      </trkpt>
      <trkpt lat="47.69412" lon="-2.75038">
        <ele>53</ele>
        <time>2023-10-30T23:38:49Z</time>
      </trkpt>
      <trkpt lat="47.69429" lon="-2.75093">
        <ele>54</ele>
        <time>2023-10-30T23:39:43Z</time>
      </trkpt>
      <trkpt lat="47.69451" lon="-2.75105">
        <ele>55</ele>
        <time>2023-10-30T23:40:15Z</time>
      </trkpt>
      <trkpt lat="47.69459" lon="-2.75129">
        <ele>56</ele>
        <time>2023-10-30T23:40:39Z</time>
      </trkpt>
      <trkpt lat="47.69237" lon="-2.75226">
        <ele>53</ele>
        <time>2023-10-30T23:45:48Z</time>
      </trkpt>
      <trkpt lat="47.6917" lon="-2.75233">
        <ele>51</ele>
        <time>2023-10-30T23:47:17Z</time>
      </trkpt>
      <trkpt lat="47.68919" lon="-2.75211">
        <ele>38</ele>
        <time>2023-10-30T23:52:53Z</time>
      </trkpt>
      <trkpt lat="47.68924" lon="-2.7526">
        <ele>37</ele>
        <time>2023-10-30T23:53:37Z</time>
      </trkpt>
      <trkpt lat="47.68892" lon="-2.75262">
        <ele>37</ele>
        <time>2023-10-30T23:54:20Z</time>
      </trkpt>
      <trkpt lat="47.68876" lon="-2.75225">
        <ele>38</ele>
        <time>2023-10-30T23:55:00Z</time>
      </trkpt>
      <trkpt lat="47.68759" lon="-2.7522">
        <ele>36</ele>
        <time>2023-10-30T23:57:36Z</time>
      </trkpt>
      <trkpt lat="47.68741" lon="-2.75212">
        <ele>35</ele>
        <time>2023-10-30T23:58:01Z</time>
      </trkpt>
      <trkpt lat="47.68667" lon="-2.75362">
        <ele>35</ele>
        <time>2023-10-31T00:00:48Z</time>
      </trkpt>
      <trkpt lat="47.68683" lon="-2.75377">
        <ele>37</ele>
        <time>2023-10-31T00:01:13Z</time>
      </trkpt>
      <trkpt lat="47.68653" lon="-2.75479">
        <ele>40</ele>
        <time>2023-10-31T00:02:53Z</time>
      </trkpt>
      <trkpt lat="47.68691" lon="-2.75823">
        <ele>44</ele>
        <time>2023-10-31T00:08:06Z</time>
      </trkpt>
      <trkpt lat="47.6869" lon="-2.75838">
        <ele>44</ele>
        <time>2023-10-31T00:08:20Z</time>
      </trkpt>
      <trkpt lat="47.68639" lon="-2.75885">
        <ele>43</ele>
        <time>2023-10-31T00:09:40Z</time>
      </trkpt>
      <trkpt lat="47.68579" lon="-2.75862">
        <ele>43</ele>
        <time>2023-10-31T00:11:03Z</time>
      </trkpt>
      <trkpt lat="47.68509" lon="-2.75847">
        <ele>40</ele>
        <time>2023-10-31T00:12:37Z</time>
      </trkpt>
      <trkpt lat="47.68383" lon="-2.76164">
        <ele>40</ele>
        <time>2023-10-31T00:18:08Z</time>
      </trkpt>
      <trkpt lat="47.68338" lon="-2.76225">
        <ele>41</ele>
        <time>2023-10-31T00:19:29Z</time>
      </trkpt>
      <trkpt lat="47.68292" lon="-2.76257">
        <ele>42</ele>
        <time>2023-10-31T00:20:37Z</time>
      </trkpt>
      <trkpt lat="47.68219" lon="-2.76283">
        <ele>41</ele>
        <time>2023-10-31T00:22:17Z</time>
      </trkpt>
      <trkpt lat="47.68159" lon="-2.76197">
        <ele>41</ele>
        <time>2023-10-31T00:24:08Z</time>
      </trkpt>
      <trkpt lat="47.68115" lon="-2.76151">
        <ele>40</ele>
        <time>2023-10-31T00:25:20Z</time>
      </trkpt>
      <trkpt lat="47.68084" lon="-2.7606">
        <ele>38</ele>
        <time>2023-10-31T00:26:52Z</time>
      </trkpt>
      <trkpt lat="47.68011" lon="-2.75973">
        <ele>38</ele>
        <time>2023-10-31T00:28:57Z</time>
      </trkpt>
      <trkpt lat="47.67932" lon="-2.75913">
        <ele>41</ele>
        <time>2023-10-31T00:30:55Z</time>
      </trkpt>
      <trkpt lat="47.67907" lon="-2.75969">
        <ele>40</ele>
        <time>2023-10-31T00:31:55Z</time>
      </trkpt>
      <trkpt lat="47.67908" lon="-2.76071">
        <ele>39</ele>
        <time>2023-10-31T00:33:27Z</time>
      </trkpt>
      <trkpt lat="47.67876" lon="-2.76073">
        <ele>40</ele>
        <time>2023-10-31T00:34:10Z</time>
      </trkpt>
      <trkpt lat="47.67797" lon="-2.75932">
        <ele>40</ele>
        <time>2023-10-31T00:36:55Z</time>
      </trkpt>
      <trkpt lat="47.67727" lon="-2.75865">
        <ele>38</ele>
        <time>2023-10-31T00:38:46Z</time>
      </trkpt>
      <trkpt lat="47.6764" lon="-2.75854">
        <ele>41</ele>
        <time>2023-10-31T00:40:42Z</time>
      </trkpt>
      <trkpt lat="47.6755" lon="-2.75977">
        <ele>42</ele>
        <time>2023-10-31T00:43:25Z</time>
      </trkpt>
      <trkpt lat="47.67471" lon="-2.75914">
        <ele>41</ele>
        <time>2023-10-31T00:45:25Z</time>
      </trkpt>
      <trkpt lat="47.67501" lon="-2.75829">
        <ele>41</ele>
        <time>2023-10-31T00:46:51Z</time>
      </trkpt>
      <trkpt lat="47.67491" lon="-2.75811">
        <ele>41</ele>
        <time>2023-10-31T00:47:12Z</time>
      </trkpt>
      <trkpt lat="47.67467" lon="-2.75587">
        <ele>40</ele>
        <time>2023-10-31T00:50:36Z</time>
      </trkpt>
      <trkpt lat="47.67455" lon="-2.75577">
        <ele>39</ele>
        <time>2023-10-31T00:50:54Z</time>
      </trkpt>
      <trkpt lat="47.67454" lon="-2.75512">
        <ele>36</ele>
        <time>2023-10-31T00:51:53Z</time>
      </trkpt>
      <trkpt lat="47.67023" lon="-2.75636">
        <ele>38</ele>
        <time>2023-10-31T01:01:39Z</time>
      </trkpt>
      <trkpt lat="47.67017" lon="-2.757">
        <ele>36</ele>
        <time>2023-10-31T01:02:37Z</time>
      </trkpt>
      <trkpt lat="47.66863" lon="-2.75662">
        <ele>35</ele>
        <time>2023-10-31T01:06:05Z</time>
      </trkpt>
      <trkpt lat="47.66744" lon="-2.75661">
        <ele>33</ele>
        <time>2023-10-31T01:08:44Z</time>
      </trkpt>
      <trkpt lat="47.66488" lon="-2.75598">
        <ele>19</ele>
        <time>2023-10-31T01:14:30Z</time>
      </trkpt>
      <trkpt lat="47.66478" lon="-2.75567">
        <ele>19</ele>
        <time>2023-10-31T01:15:01Z</time>
      </trkpt>
      <trkpt lat="47.66451" lon="-2.75561">
        <ele>18</ele>
        <time>2023-10-31T01:15:37Z</time>
      </trkpt>
      <trkpt lat="47.66433" lon="-2.75576">
        <ele>18</ele>
        <time>2023-10-31T01:16:05Z</time>
      </trkpt>
      <trkpt lat="47.66407" lon="-2.75572">
        <ele>18</ele>
        <time>2023-10-31T01:16:40Z</time>
      </trkpt>
      <trkpt lat="47.66459" lon="-2.75317">
        <ele>23</ele>
        <time>2023-10-31T01:20:39Z</time>
      </trkpt>
    </trkseg>
  </trk>
  <trk>
    <name><![CDATA[GRPvannesJ7_RochefortTQuestembert_20km-12438612]]></name>
    <extensions>
      <line xmlns="http://www.topografix.com/GPX/gpx_style/0/2">
        <color>00FF00</color>
        <width>4</width>
      </line>
    </extensions>
    <trkseg>
      <trkpt lat="47.69832" lon="-2.33686">
        <ele>39</ele>
        <time>2023-10-30T18:03:19Z</time>
      </trkpt>
      <trkpt lat="47.69775" lon="-2.33655">
        <ele>36</ele>
        <time>2023-10-30T18:04:40Z</time>
      </trkpt>
      <trkpt lat="47.69766" lon="-2.33659">
        <ele>36</ele>
        <time>2023-10-30T18:04:53Z</time>
      </trkpt>
      <trkpt lat="47.6976" lon="-2.33658">
        <ele>36</ele>
        <time>2023-10-30T18:05:01Z</time>
      </trkpt>
      <trkpt lat="47.69723" lon="-2.33644">
        <ele>39</ele>
        <time>2023-10-30T18:05:52Z</time>
      </trkpt>
      <trkpt lat="47.69679" lon="-2.33696">
        <ele>44</ele>
        <time>2023-10-30T18:07:07Z</time>
      </trkpt>
      <trkpt lat="47.69658" lon="-2.33755">
        <ele>45</ele>
        <time>2023-10-30T18:08:07Z</time>
      </trkpt>
      <trkpt lat="47.69659" lon="-2.33842">
        <ele>47</ele>
        <time>2023-10-30T18:09:25Z</time>
      </trkpt>
      <trkpt lat="47.69645" lon="-2.33914">
        <ele>50</ele>
        <time>2023-10-30T18:10:32Z</time>
      </trkpt>
      <trkpt lat="47.69567" lon="-2.33953">
        <ele>55</ele>
        <time>2023-10-30T18:12:22Z</time>
      </trkpt>
      <trkpt lat="47.69484" lon="-2.33939">
        <ele>61</ele>
        <time>2023-10-30T18:14:13Z</time>
      </trkpt>
      <trkpt lat="47.69433" lon="-2.33985">
        <ele>62</ele>
        <time>2023-10-30T18:15:33Z</time>
      </trkpt>
      <trkpt lat="47.69354" lon="-2.34041">
        <ele>66</ele>
        <time>2023-10-30T18:17:30Z</time>
      </trkpt>
      <trkpt lat="47.69271" lon="-2.34081">
        <ele>70</ele>
        <time>2023-10-30T18:19:26Z</time>
      </trkpt>
      <trkpt lat="47.6925" lon="-2.34098">
        <ele>71</ele>
        <time>2023-10-30T18:19:58Z</time>
      </trkpt>
      <trkpt lat="47.6926" lon="-2.34134">
        <ele>70</ele>
        <time>2023-10-30T18:20:33Z</time>
      </trkpt>
      <trkpt lat="47.69244" lon="-2.34191">
        <ele>71</ele>
        <time>2023-10-30T18:21:29Z</time>
      </trkpt>
      <trkpt lat="47.69219" lon="-2.3419">
        <ele>68</ele>
        <time>2023-10-30T18:22:02Z</time>
      </trkpt>
      <trkpt lat="47.69202" lon="-2.3422">
        <ele>68</ele>
        <time>2023-10-30T18:22:37Z</time>
      </trkpt>
      <trkpt lat="47.69189" lon="-2.34216">
        <ele>66</ele>
        <time>2023-10-30T18:22:55Z</time>
      </trkpt>
      <trkpt lat="47.69188" lon="-2.34199">
        <ele>65</ele>
        <time>2023-10-30T18:23:10Z</time>
      </trkpt>
      <trkpt lat="47.69204" lon="-2.3418">
        <ele>66</ele>
        <time>2023-10-30T18:23:37Z</time>
      </trkpt>
      <trkpt lat="47.69198" lon="-2.34167">
        <ele>65</ele>
        <time>2023-10-30T18:23:52Z</time>
      </trkpt>
      <trkpt lat="47.6916" lon="-2.34219">
        <ele>63</ele>
        <time>2023-10-30T18:25:01Z</time>
      </trkpt>
      <trkpt lat="47.69139" lon="-2.34267">
        <ele>60</ele>
        <time>2023-10-30T18:25:52Z</time>
      </trkpt>
      <trkpt lat="47.69138" lon="-2.34278">
        <ele>60</ele>
        <time>2023-10-30T18:26:02Z</time>
      </trkpt>
      <trkpt lat="47.69114" lon="-2.3429">
        <ele>55</ele>
        <time>2023-10-30T18:26:36Z</time>
      </trkpt>
      <trkpt lat="47.69107" lon="-2.34407">
        <ele>54</ele>
        <time>2023-10-30T18:28:21Z</time>
      </trkpt>
      <trkpt lat="47.69113" lon="-2.34528">
        <ele>54</ele>
        <time>2023-10-30T18:30:10Z</time>
      </trkpt>
      <trkpt lat="47.69151" lon="-2.34657">
        <ele>52</ele>
        <time>2023-10-30T18:32:17Z</time>
      </trkpt>
      <trkpt lat="47.69192" lon="-2.34771">
        <ele>47</ele>
        <time>2023-10-30T18:34:13Z</time>
      </trkpt>
      <trkpt lat="47.69215" lon="-2.34806">
        <ele>47</ele>
        <time>2023-10-30T18:34:57Z</time>
      </trkpt>
      <trkpt lat="47.69213" lon="-2.34906">
        <ele>48</ele>
        <time>2023-10-30T18:36:27Z</time>
      </trkpt>
      <trkpt lat="47.69215" lon="-2.34896">
        <ele>48</ele>
        <time>2023-10-30T18:36:36Z</time>
      </trkpt>
      <trkpt lat="47.69199" lon="-2.34938">
        <ele>49</ele>
        <time>2023-10-30T18:37:19Z</time>
      </trkpt>
      <trkpt lat="47.69193" lon="-2.35041">
        <ele>54</ele>
        <time>2023-10-30T18:38:52Z</time>
      </trkpt>
      <trkpt lat="47.69165" lon="-2.35099">
        <ele>54</ele>
        <time>2023-10-30T18:39:56Z</time>
      </trkpt>
      <trkpt lat="47.69139" lon="-2.35287">
        <ele>52</ele>
        <time>2023-10-30T18:42:49Z</time>
      </trkpt>
      <trkpt lat="47.69145" lon="-2.35382">
        <ele>52</ele>
        <time>2023-10-30T18:44:14Z</time>
      </trkpt>
      <trkpt lat="47.69128" lon="-2.35446">
        <ele>49</ele>
        <time>2023-10-30T18:45:16Z</time>
      </trkpt>
      <trkpt lat="47.69083" lon="-2.35512">
        <ele>47</ele>
        <time>2023-10-30T18:46:41Z</time>
      </trkpt>
      <trkpt lat="47.69034" lon="-2.35604">
        <ele>47</ele>
        <time>2023-10-30T18:48:26Z</time>
      </trkpt>
      <trkpt lat="47.69001" lon="-2.35705">
        <ele>47</ele>
        <time>2023-10-30T18:50:07Z</time>
      </trkpt>
      <trkpt lat="47.68997" lon="-2.35811">
        <ele>47</ele>
        <time>2023-10-30T18:51:42Z</time>
      </trkpt>
      <trkpt lat="47.68981" lon="-2.35847">
        <ele>47</ele>
        <time>2023-10-30T18:52:21Z</time>
      </trkpt>
      <trkpt lat="47.68955" lon="-2.35863">
        <ele>47</ele>
        <time>2023-10-30T18:52:59Z</time>
      </trkpt>
      <trkpt lat="47.68939" lon="-2.35853">
        <ele>47</ele>
        <time>2023-10-30T18:53:22Z</time>
      </trkpt>
      <trkpt lat="47.68931" lon="-2.35816">
        <ele>47</ele>
        <time>2023-10-30T18:53:57Z</time>
      </trkpt>
      <trkpt lat="47.68927" lon="-2.35815">
        <ele>47</ele>
        <time>2023-10-30T18:54:02Z</time>
      </trkpt>
      <trkpt lat="47.68904" lon="-2.3584">
        <ele>47</ele>
        <time>2023-10-30T18:54:40Z</time>
      </trkpt>
      <trkpt lat="47.6885" lon="-2.35861">
        <ele>49</ele>
        <time>2023-10-30T18:55:55Z</time>
      </trkpt>
      <trkpt lat="47.68801" lon="-2.35854">
        <ele>50</ele>
        <time>2023-10-30T18:57:00Z</time>
      </trkpt>
      <trkpt lat="47.68777" lon="-2.35891">
        <ele>51</ele>
        <time>2023-10-30T18:57:46Z</time>
      </trkpt>
      <trkpt lat="47.68734" lon="-2.35891">
        <ele>55</ele>
        <time>2023-10-30T18:58:44Z</time>
      </trkpt>
      <trkpt lat="47.68701" lon="-2.35888">
        <ele>61</ele>
        <time>2023-10-30T18:59:28Z</time>
      </trkpt>
      <trkpt lat="47.68665" lon="-2.35879">
        <ele>66</ele>
        <time>2023-10-30T19:00:17Z</time>
      </trkpt>
      <trkpt lat="47.68636" lon="-2.35863">
        <ele>68</ele>
        <time>2023-10-30T19:00:58Z</time>
      </trkpt>
      <trkpt lat="47.68619" lon="-2.35848">
        <ele>69</ele>
        <time>2023-10-30T19:01:24Z</time>
      </trkpt>
      <trkpt lat="47.68559" lon="-2.35873">
        <ele>74</ele>
        <time>2023-10-30T19:02:47Z</time>
      </trkpt>
      <trkpt lat="47.68532" lon="-2.35777">
        <ele>75</ele>
        <time>2023-10-30T19:04:21Z</time>
      </trkpt>
      <trkpt lat="47.68503" lon="-2.35717">
        <ele>75</ele>
        <time>2023-10-30T19:05:27Z</time>
      </trkpt>
      <trkpt lat="47.68456" lon="-2.35647">
        <ele>76</ele>
        <time>2023-10-30T19:06:56Z</time>
      </trkpt>
      <trkpt lat="47.68411" lon="-2.35593">
        <ele>76</ele>
        <time>2023-10-30T19:08:13Z</time>
      </trkpt>
      <trkpt lat="47.6835" lon="-2.35474">
        <ele>78</ele>
        <time>2023-10-30T19:10:28Z</time>
      </trkpt>
      <trkpt lat="47.68341" lon="-2.35444">
        <ele>78</ele>
        <time>2023-10-30T19:10:57Z</time>
      </trkpt>
      <trkpt lat="47.68344" lon="-2.35397">
        <ele>78</ele>
        <time>2023-10-30T19:11:40Z</time>
      </trkpt>
      <trkpt lat="47.68334" lon="-2.35375">
        <ele>78</ele>
        <time>2023-10-30T19:12:03Z</time>
      </trkpt>
      <trkpt lat="47.68295" lon="-2.35382">
        <ele>79</ele>
        <time>2023-10-30T19:12:56Z</time>
      </trkpt>
      <trkpt lat="47.68187" lon="-2.35443">
        <ele>80</ele>
        <time>2023-10-30T19:15:30Z</time>
      </trkpt>
      <trkpt lat="47.68096" lon="-2.35478">
        <ele>80</ele>
        <time>2023-10-30T19:17:35Z</time>
      </trkpt>
      <trkpt lat="47.68056" lon="-2.35451">
        <ele>81</ele>
        <time>2023-10-30T19:18:34Z</time>
      </trkpt>
      <trkpt lat="47.67979" lon="-2.35361">
        <ele>83</ele>
        <time>2023-10-30T19:20:45Z</time>
      </trkpt>
      <trkpt lat="47.67882" lon="-2.35349">
        <ele>85</ele>
        <time>2023-10-30T19:22:55Z</time>
      </trkpt>
      <trkpt lat="47.67825" lon="-2.35304">
        <ele>84</ele>
        <time>2023-10-30T19:24:21Z</time>
      </trkpt>
      <trkpt lat="47.6779" lon="-2.35301">
        <ele>83</ele>
        <time>2023-10-30T19:25:08Z</time>
      </trkpt>
      <trkpt lat="47.67749" lon="-2.35304">
        <ele>82</ele>
        <time>2023-10-30T19:26:02Z</time>
      </trkpt>
      <trkpt lat="47.67738" lon="-2.35286">
        <ele>82</ele>
        <time>2023-10-30T19:26:24Z</time>
      </trkpt>
      <trkpt lat="47.6769" lon="-2.35245">
        <ele>82</ele>
        <time>2023-10-30T19:27:38Z</time>
      </trkpt>
      <trkpt lat="47.67655" lon="-2.35235">
        <ele>82</ele>
        <time>2023-10-30T19:28:26Z</time>
      </trkpt>
      <trkpt lat="47.67584" lon="-2.35203">
        <ele>84</ele>
        <time>2023-10-30T19:30:05Z</time>
      </trkpt>
      <trkpt lat="47.67526" lon="-2.35184">
        <ele>86</ele>
        <time>2023-10-30T19:31:24Z</time>
      </trkpt>
      <trkpt lat="47.67473" lon="-2.35173">
        <ele>88</ele>
        <time>2023-10-30T19:32:35Z</time>
      </trkpt>
      <trkpt lat="47.67449" lon="-2.35161">
        <ele>88</ele>
        <time>2023-10-30T19:33:09Z</time>
      </trkpt>
      <trkpt lat="47.67403" lon="-2.35203">
        <ele>89</ele>
        <time>2023-10-30T19:34:21Z</time>
      </trkpt>
      <trkpt lat="47.67375" lon="-2.35252">
        <ele>88</ele>
        <time>2023-10-30T19:35:19Z</time>
      </trkpt>
      <trkpt lat="47.67376" lon="-2.35314">
        <ele>88</ele>
        <time>2023-10-30T19:36:15Z</time>
      </trkpt>
      <trkpt lat="47.67372" lon="-2.35413">
        <ele>89</ele>
        <time>2023-10-30T19:37:44Z</time>
      </trkpt>
      <trkpt lat="47.6736" lon="-2.35482">
        <ele>90</ele>
        <time>2023-10-30T19:38:48Z</time>
      </trkpt>
      <trkpt lat="47.67225" lon="-2.35494">
        <ele>87</ele>
        <time>2023-10-30T19:41:48Z</time>
      </trkpt>
      <trkpt lat="47.67109" lon="-2.35574">
        <ele>85</ele>
        <time>2023-10-30T19:44:39Z</time>
      </trkpt>
      <trkpt lat="47.67037" lon="-2.35609">
        <ele>87</ele>
        <time>2023-10-30T19:46:20Z</time>
      </trkpt>
      <trkpt lat="47.67014" lon="-2.35566">
        <ele>91</ele>
        <time>2023-10-30T19:47:10Z</time>
      </trkpt>
      <trkpt lat="47.67022" lon="-2.35515">
        <ele>89</ele>
        <time>2023-10-30T19:47:57Z</time>
      </trkpt>
      <trkpt lat="47.67018" lon="-2.35435">
        <ele>88</ele>
        <time>2023-10-30T19:49:09Z</time>
      </trkpt>
      <trkpt lat="47.66999" lon="-2.35294">
        <ele>86</ele>
        <time>2023-10-30T19:51:18Z</time>
      </trkpt>
      <trkpt lat="47.66949" lon="-2.35325">
        <ele>86</ele>
        <time>2023-10-30T19:52:30Z</time>
      </trkpt>
      <trkpt lat="47.66875" lon="-2.35328">
        <ele>85</ele>
        <time>2023-10-30T19:54:09Z</time>
      </trkpt>
      <trkpt lat="47.66866" lon="-2.35312">
        <ele>84</ele>
        <time>2023-10-30T19:54:28Z</time>
      </trkpt>
      <trkpt lat="47.66816" lon="-2.35325">
        <ele>82</ele>
        <time>2023-10-30T19:55:35Z</time>
      </trkpt>
      <trkpt lat="47.66831" lon="-2.35475">
        <ele>88</ele>
        <time>2023-10-30T19:57:52Z</time>
      </trkpt>
      <trkpt lat="47.66836" lon="-2.3557">
        <ele>87</ele>
        <time>2023-10-30T19:59:17Z</time>
      </trkpt>
      <trkpt lat="47.66818" lon="-2.35631">
        <ele>86</ele>
        <time>2023-10-30T20:00:17Z</time>
      </trkpt>
      <trkpt lat="47.66804" lon="-2.35655">
        <ele>86</ele>
        <time>2023-10-30T20:00:46Z</time>
      </trkpt>
      <trkpt lat="47.6675" lon="-2.35688">
        <ele>85</ele>
        <time>2023-10-30T20:02:04Z</time>
      </trkpt>
      <trkpt lat="47.66747" lon="-2.35639">
        <ele>85</ele>
        <time>2023-10-30T20:02:48Z</time>
      </trkpt>
      <trkpt lat="47.66669" lon="-2.35672">
        <ele>86</ele>
        <time>2023-10-30T20:04:36Z</time>
      </trkpt>
      <trkpt lat="47.66555" lon="-2.35692">
        <ele>83</ele>
        <time>2023-10-30T20:07:09Z</time>
      </trkpt>
      <trkpt lat="47.66539" lon="-2.35657">
        <ele>83</ele>
        <time>2023-10-30T20:07:47Z</time>
      </trkpt>
      <trkpt lat="47.66492" lon="-2.35615">
        <ele>83</ele>
        <time>2023-10-30T20:09:01Z</time>
      </trkpt>
      <trkpt lat="47.66419" lon="-2.3565">
        <ele>82</ele>
        <time>2023-10-30T20:10:43Z</time>
      </trkpt>
      <trkpt lat="47.66393" lon="-2.35647">
        <ele>82</ele>
        <time>2023-10-30T20:11:18Z</time>
      </trkpt>
      <trkpt lat="47.66309" lon="-2.3565">
        <ele>81</ele>
        <time>2023-10-30T20:13:10Z</time>
      </trkpt>
      <trkpt lat="47.66201" lon="-2.3564">
        <ele>82</ele>
        <time>2023-10-30T20:15:34Z</time>
      </trkpt>
      <trkpt lat="47.6606" lon="-2.35587">
        <ele>85</ele>
        <time>2023-10-30T20:18:48Z</time>
      </trkpt>
      <trkpt lat="47.66021" lon="-2.35581">
        <ele>85</ele>
        <time>2023-10-30T20:19:41Z</time>
      </trkpt>
      <trkpt lat="47.65969" lon="-2.35583">
        <ele>84</ele>
        <time>2023-10-30T20:20:50Z</time>
      </trkpt>
      <trkpt lat="47.65901" lon="-2.35544">
        <ele>84</ele>
        <time>2023-10-30T20:22:27Z</time>
      </trkpt>
      <trkpt lat="47.65883" lon="-2.35542">
        <ele>84</ele>
        <time>2023-10-30T20:22:51Z</time>
      </trkpt>
      <trkpt lat="47.65815" lon="-2.35503">
        <ele>83</ele>
        <time>2023-10-30T20:24:29Z</time>
      </trkpt>
      <trkpt lat="47.65757" lon="-2.35484">
        <ele>84</ele>
        <time>2023-10-30T20:25:48Z</time>
      </trkpt>
      <trkpt lat="47.65675" lon="-2.35511">
        <ele>84</ele>
        <time>2023-10-30T20:27:40Z</time>
      </trkpt>
      <trkpt lat="47.65626" lon="-2.3555">
        <ele>82</ele>
        <time>2023-10-30T20:28:54Z</time>
      </trkpt>
      <trkpt lat="47.65571" lon="-2.35571">
        <ele>81</ele>
        <time>2023-10-30T20:30:10Z</time>
      </trkpt>
      <trkpt lat="47.65496" lon="-2.35585">
        <ele>79</ele>
        <time>2023-10-30T20:31:51Z</time>
      </trkpt>
      <trkpt lat="47.65404" lon="-2.35577">
        <ele>69</ele>
        <time>2023-10-30T20:33:54Z</time>
      </trkpt>
      <trkpt lat="47.65367" lon="-2.3554">
        <ele>67</ele>
        <time>2023-10-30T20:34:53Z</time>
      </trkpt>
      <trkpt lat="47.65348" lon="-2.35525">
        <ele>65</ele>
        <time>2023-10-30T20:35:22Z</time>
      </trkpt>
      <trkpt lat="47.65309" lon="-2.35528">
        <ele>66</ele>
        <time>2023-10-30T20:36:14Z</time>
      </trkpt>
      <trkpt lat="47.6529" lon="-2.35532">
        <ele>67</ele>
        <time>2023-10-30T20:36:40Z</time>
      </trkpt>
      <trkpt lat="47.65291" lon="-2.35436">
        <ele>70</ele>
        <time>2023-10-30T20:38:06Z</time>
      </trkpt>
      <trkpt lat="47.65286" lon="-2.35273">
        <ele>71</ele>
        <time>2023-10-30T20:40:33Z</time>
      </trkpt>
      <trkpt lat="47.65261" lon="-2.35164">
        <ele>68</ele>
        <time>2023-10-30T20:42:16Z</time>
      </trkpt>
      <trkpt lat="47.65254" lon="-2.35023">
        <ele>62</ele>
        <time>2023-10-30T20:44:23Z</time>
      </trkpt>
      <trkpt lat="47.65223" lon="-2.34954">
        <ele>64</ele>
        <time>2023-10-30T20:45:38Z</time>
      </trkpt>
      <trkpt lat="47.65188" lon="-2.34932">
        <ele>66</ele>
        <time>2023-10-30T20:46:29Z</time>
      </trkpt>
      <trkpt lat="47.65168" lon="-2.3481">
        <ele>71</ele>
        <time>2023-10-30T20:48:22Z</time>
      </trkpt>
      <trkpt lat="47.65147" lon="-2.34717">
        <ele>72</ele>
        <time>2023-10-30T20:49:50Z</time>
      </trkpt>
      <trkpt lat="47.65141" lon="-2.34657">
        <ele>71</ele>
        <time>2023-10-30T20:50:44Z</time>
      </trkpt>
      <trkpt lat="47.65144" lon="-2.34628">
        <ele>70</ele>
        <time>2023-10-30T20:51:11Z</time>
      </trkpt>
      <trkpt lat="47.65131" lon="-2.34588">
        <ele>69</ele>
        <time>2023-10-30T20:51:51Z</time>
      </trkpt>
      <trkpt lat="47.65109" lon="-2.34495">
        <ele>68</ele>
        <time>2023-10-30T20:53:19Z</time>
      </trkpt>
      <trkpt lat="47.65088" lon="-2.34432">
        <ele>68</ele>
        <time>2023-10-30T20:54:22Z</time>
      </trkpt>
      <trkpt lat="47.65073" lon="-2.34324">
        <ele>68</ele>
        <time>2023-10-30T20:56:02Z</time>
      </trkpt>
      <trkpt lat="47.64975" lon="-2.34323">
        <ele>70</ele>
        <time>2023-10-30T20:58:12Z</time>
      </trkpt>
      <trkpt lat="47.6497" lon="-2.34285">
        <ele>70</ele>
        <time>2023-10-30T20:58:47Z</time>
      </trkpt>
      <trkpt lat="47.64972" lon="-2.34242">
        <ele>69</ele>
        <time>2023-10-30T20:59:26Z</time>
      </trkpt>
      <trkpt lat="47.64967" lon="-2.34188">
        <ele>68</ele>
        <time>2023-10-30T21:00:15Z</time>
      </trkpt>
      <trkpt lat="47.64959" lon="-2.34157">
        <ele>68</ele>
        <time>2023-10-30T21:00:45Z</time>
      </trkpt>
      <trkpt lat="47.64959" lon="-2.34133">
        <ele>67</ele>
        <time>2023-10-30T21:01:06Z</time>
      </trkpt>
      <trkpt lat="47.64892" lon="-2.34084">
        <ele>68</ele>
        <time>2023-10-30T21:02:46Z</time>
      </trkpt>
      <trkpt lat="47.64835" lon="-2.3405">
        <ele>69</ele>
        <time>2023-10-30T21:04:08Z</time>
      </trkpt>
      <trkpt lat="47.64812" lon="-2.3404">
        <ele>67</ele>
        <time>2023-10-30T21:04:40Z</time>
      </trkpt>
      <trkpt lat="47.64789" lon="-2.34066">
        <ele>67</ele>
        <time>2023-10-30T21:05:18Z</time>
      </trkpt>
      <trkpt lat="47.6476" lon="-2.3407">
        <ele>65</ele>
        <time>2023-10-30T21:05:57Z</time>
      </trkpt>
      <trkpt lat="47.64724" lon="-2.34064">
        <ele>64</ele>
        <time>2023-10-30T21:06:46Z</time>
      </trkpt>
      <trkpt lat="47.64667" lon="-2.34041">
        <ele>63</ele>
        <time>2023-10-30T21:08:05Z</time>
      </trkpt>
      <trkpt lat="47.64642" lon="-2.34039">
        <ele>64</ele>
        <time>2023-10-30T21:08:38Z</time>
      </trkpt>
      <trkpt lat="47.64628" lon="-2.34041">
        <ele>64</ele>
        <time>2023-10-30T21:08:57Z</time>
      </trkpt>
      <trkpt lat="47.64621" lon="-2.34083">
        <ele>66</ele>
        <time>2023-10-30T21:09:36Z</time>
      </trkpt>
      <trkpt lat="47.64608" lon="-2.34101">
        <ele>67</ele>
        <time>2023-10-30T21:09:59Z</time>
      </trkpt>
      <trkpt lat="47.64596" lon="-2.34075">
        <ele>66</ele>
        <time>2023-10-30T21:10:28Z</time>
      </trkpt>
      <trkpt lat="47.64594" lon="-2.34041">
        <ele>64</ele>
        <time>2023-10-30T21:10:58Z</time>
      </trkpt>
      <trkpt lat="47.64572" lon="-2.34023">
        <ele>63</ele>
        <time>2023-10-30T21:11:32Z</time>
      </trkpt>
      <trkpt lat="47.64555" lon="-2.34015">
        <ele>63</ele>
        <time>2023-10-30T21:11:56Z</time>
      </trkpt>
      <trkpt lat="47.64544" lon="-2.34001">
        <ele>62</ele>
        <time>2023-10-30T21:12:15Z</time>
      </trkpt>
      <trkpt lat="47.64512" lon="-2.34002">
        <ele>63</ele>
        <time>2023-10-30T21:12:58Z</time>
      </trkpt>
      <trkpt lat="47.6448" lon="-2.3403">
        <ele>65</ele>
        <time>2023-10-30T21:13:47Z</time>
      </trkpt>
      <trkpt lat="47.64444" lon="-2.34067">
        <ele>66</ele>
        <time>2023-10-30T21:14:46Z</time>
      </trkpt>
      <trkpt lat="47.64411" lon="-2.34069">
        <ele>65</ele>
        <time>2023-10-30T21:15:30Z</time>
      </trkpt>
      <trkpt lat="47.64379" lon="-2.3405">
        <ele>65</ele>
        <time>2023-10-30T21:16:16Z</time>
      </trkpt>
      <trkpt lat="47.64357" lon="-2.34007">
        <ele>64</ele>
        <time>2023-10-30T21:17:04Z</time>
      </trkpt>
      <trkpt lat="47.64338" lon="-2.33955">
        <ele>61</ele>
        <time>2023-10-30T21:17:58Z</time>
      </trkpt>
      <trkpt lat="47.64333" lon="-2.33911">
        <ele>58</ele>
        <time>2023-10-30T21:18:38Z</time>
      </trkpt>
      <trkpt lat="47.64326" lon="-2.33887">
        <ele>56</ele>
        <time>2023-10-30T21:19:01Z</time>
      </trkpt>
      <trkpt lat="47.64313" lon="-2.33879">
        <ele>56</ele>
        <time>2023-10-30T21:19:20Z</time>
      </trkpt>
      <trkpt lat="47.6428" lon="-2.33874">
        <ele>55</ele>
        <time>2023-10-30T21:20:04Z</time>
      </trkpt>
      <trkpt lat="47.64222" lon="-2.33875">
        <ele>56</ele>
        <time>2023-10-30T21:21:22Z</time>
      </trkpt>
      <trkpt lat="47.6414" lon="-2.33938">
        <ele>63</ele>
        <time>2023-10-30T21:23:25Z</time>
      </trkpt>
      <trkpt lat="47.64177" lon="-2.33832">
        <ele>55</ele>
        <time>2023-10-30T21:25:12Z</time>
      </trkpt>
      <trkpt lat="47.64183" lon="-2.33788">
        <ele>54</ele>
        <time>2023-10-30T21:25:53Z</time>
      </trkpt>
      <trkpt lat="47.64184" lon="-2.33726">
        <ele>53</ele>
        <time>2023-10-30T21:26:48Z</time>
      </trkpt>
      <trkpt lat="47.64165" lon="-2.33696">
        <ele>50</ele>
        <time>2023-10-30T21:27:25Z</time>
      </trkpt>
      <trkpt lat="47.6413" lon="-2.33697">
        <ele>51</ele>
        <time>2023-10-30T21:28:12Z</time>
      </trkpt>
      <trkpt lat="47.6412" lon="-2.33693">
        <ele>51</ele>
        <time>2023-10-30T21:28:26Z</time>
      </trkpt>
      <trkpt lat="47.64092" lon="-2.33702">
        <ele>53</ele>
        <time>2023-10-30T21:29:04Z</time>
      </trkpt>
      <trkpt lat="47.64073" lon="-2.33692">
        <ele>52</ele>
        <time>2023-10-30T21:29:31Z</time>
      </trkpt>
      <trkpt lat="47.64028" lon="-2.33645">
        <ele>49</ele>
        <time>2023-10-30T21:30:44Z</time>
      </trkpt>
      <trkpt lat="47.63983" lon="-2.3361">
        <ele>46</ele>
        <time>2023-10-30T21:31:52Z</time>
      </trkpt>
      <trkpt lat="47.63877" lon="-2.33649">
        <ele>49</ele>
        <time>2023-10-30T21:34:18Z</time>
      </trkpt>
      <trkpt lat="47.63843" lon="-2.33666">
        <ele>47</ele>
        <time>2023-10-30T21:35:06Z</time>
      </trkpt>
      <trkpt lat="47.63752" lon="-2.33687">
        <ele>44</ele>
        <time>2023-10-30T21:37:09Z</time>
      </trkpt>
      <trkpt lat="47.63699" lon="-2.33763">
        <ele>44</ele>
        <time>2023-10-30T21:38:47Z</time>
      </trkpt>
      <trkpt lat="47.63674" lon="-2.33784">
        <ele>45</ele>
        <time>2023-10-30T21:39:25Z</time>
      </trkpt>
      <trkpt lat="47.63634" lon="-2.33805">
        <ele>44</ele>
        <time>2023-10-30T21:40:22Z</time>
      </trkpt>
      <trkpt lat="47.63554" lon="-2.33863">
        <ele>37</ele>
        <time>2023-10-30T21:42:21Z</time>
      </trkpt>
      <trkpt lat="47.63514" lon="-2.33908">
        <ele>32</ele>
        <time>2023-10-30T21:43:28Z</time>
      </trkpt>
      <trkpt lat="47.63492" lon="-2.33958">
        <ele>33</ele>
        <time>2023-10-30T21:44:21Z</time>
      </trkpt>
      <trkpt lat="47.63488" lon="-2.34007">
        <ele>38</ele>
        <time>2023-10-30T21:45:06Z</time>
      </trkpt>
      <trkpt lat="47.63494" lon="-2.34081">
        <ele>39</ele>
        <time>2023-10-30T21:46:13Z</time>
      </trkpt>
      <trkpt lat="47.63525" lon="-2.34261">
        <ele>35</ele>
        <time>2023-10-30T21:49:00Z</time>
      </trkpt>
      <trkpt lat="47.63556" lon="-2.34387">
        <ele>39</ele>
        <time>2023-10-30T21:51:01Z</time>
      </trkpt>
      <trkpt lat="47.63608" lon="-2.34531">
        <ele>48</ele>
        <time>2023-10-30T21:53:27Z</time>
      </trkpt>
      <trkpt lat="47.63633" lon="-2.3459">
        <ele>50</ele>
        <time>2023-10-30T21:54:30Z</time>
      </trkpt>
      <trkpt lat="47.63648" lon="-2.3465">
        <ele>50</ele>
        <time>2023-10-30T21:55:28Z</time>
      </trkpt>
      <trkpt lat="47.63635" lon="-2.34714">
        <ele>45</ele>
        <time>2023-10-30T21:56:28Z</time>
      </trkpt>
      <trkpt lat="47.63639" lon="-2.34774">
        <ele>43</ele>
        <time>2023-10-30T21:57:22Z</time>
      </trkpt>
      <trkpt lat="47.63654" lon="-2.34851">
        <ele>43</ele>
        <time>2023-10-30T21:58:34Z</time>
      </trkpt>
      <trkpt lat="47.63686" lon="-2.34908">
        <ele>47</ele>
        <time>2023-10-30T21:59:41Z</time>
      </trkpt>
      <trkpt lat="47.63706" lon="-2.34926">
        <ele>50</ele>
        <time>2023-10-30T22:00:12Z</time>
      </trkpt>
      <trkpt lat="47.63718" lon="-2.34955">
        <ele>53</ele>
        <time>2023-10-30T22:00:43Z</time>
      </trkpt>
      <trkpt lat="47.63747" lon="-2.34967">
        <ele>56</ele>
        <time>2023-10-30T22:01:23Z</time>
      </trkpt>
      <trkpt lat="47.63742" lon="-2.34992">
        <ele>55</ele>
        <time>2023-10-30T22:01:46Z</time>
      </trkpt>
      <trkpt lat="47.63765" lon="-2.35002">
        <ele>57</ele>
        <time>2023-10-30T22:02:18Z</time>
      </trkpt>
      <trkpt lat="47.63829" lon="-2.35101">
        <ele>59</ele>
        <time>2023-10-30T22:04:22Z</time>
      </trkpt>
      <trkpt lat="47.63846" lon="-2.35155">
        <ele>60</ele>
        <time>2023-10-30T22:05:15Z</time>
      </trkpt>
      <trkpt lat="47.63824" lon="-2.35194">
        <ele>63</ele>
        <time>2023-10-30T22:06:01Z</time>
      </trkpt>
      <trkpt lat="47.63786" lon="-2.35204">
        <ele>66</ele>
        <time>2023-10-30T22:06:52Z</time>
      </trkpt>
      <trkpt lat="47.63766" lon="-2.35238">
        <ele>68</ele>
        <time>2023-10-30T22:07:33Z</time>
      </trkpt>
      <trkpt lat="47.63731" lon="-2.35289">
        <ele>69</ele>
        <time>2023-10-30T22:08:38Z</time>
      </trkpt>
      <trkpt lat="47.63716" lon="-2.35327">
        <ele>69</ele>
        <time>2023-10-30T22:09:18Z</time>
      </trkpt>
      <trkpt lat="47.63706" lon="-2.3534">
        <ele>69</ele>
        <time>2023-10-30T22:09:36Z</time>
      </trkpt>
      <trkpt lat="47.63661" lon="-2.35336">
        <ele>66</ele>
        <time>2023-10-30T22:10:36Z</time>
      </trkpt>
      <trkpt lat="47.63611" lon="-2.35344">
        <ele>62</ele>
        <time>2023-10-30T22:11:43Z</time>
      </trkpt>
      <trkpt lat="47.63591" lon="-2.35363">
        <ele>62</ele>
        <time>2023-10-30T22:12:15Z</time>
      </trkpt>
      <trkpt lat="47.63583" lon="-2.35375">
        <ele>61</ele>
        <time>2023-10-30T22:12:30Z</time>
      </trkpt>
      <trkpt lat="47.63581" lon="-2.35394">
        <ele>62</ele>
        <time>2023-10-30T22:12:47Z</time>
      </trkpt>
      <trkpt lat="47.63587" lon="-2.35402">
        <ele>63</ele>
        <time>2023-10-30T22:12:58Z</time>
      </trkpt>
      <trkpt lat="47.63627" lon="-2.35417">
        <ele>67</ele>
        <time>2023-10-30T22:13:53Z</time>
      </trkpt>
      <trkpt lat="47.63653" lon="-2.35445">
        <ele>68</ele>
        <time>2023-10-30T22:14:36Z</time>
      </trkpt>
      <trkpt lat="47.63709" lon="-2.35547">
        <ele>73</ele>
        <time>2023-10-30T22:16:34Z</time>
      </trkpt>
      <trkpt lat="47.63746" lon="-2.35597">
        <ele>75</ele>
        <time>2023-10-30T22:17:41Z</time>
      </trkpt>
      <trkpt lat="47.63781" lon="-2.35635">
        <ele>76</ele>
        <time>2023-10-30T22:18:39Z</time>
      </trkpt>
      <trkpt lat="47.63819" lon="-2.35663">
        <ele>78</ele>
        <time>2023-10-30T22:19:36Z</time>
      </trkpt>
      <trkpt lat="47.63906" lon="-2.35814">
        <ele>79</ele>
        <time>2023-10-30T22:22:34Z</time>
      </trkpt>
      <trkpt lat="47.63958" lon="-2.35893">
        <ele>78</ele>
        <time>2023-10-30T22:24:13Z</time>
      </trkpt>
      <trkpt lat="47.63942" lon="-2.35902">
        <ele>78</ele>
        <time>2023-10-30T22:24:36Z</time>
      </trkpt>
      <trkpt lat="47.63912" lon="-2.35925">
        <ele>79</ele>
        <time>2023-10-30T22:25:21Z</time>
      </trkpt>
      <trkpt lat="47.63849" lon="-2.35946">
        <ele>79</ele>
        <time>2023-10-30T22:26:48Z</time>
      </trkpt>
      <trkpt lat="47.63851" lon="-2.35964">
        <ele>78</ele>
        <time>2023-10-30T22:27:04Z</time>
      </trkpt>
      <trkpt lat="47.63845" lon="-2.35974">
        <ele>78</ele>
        <time>2023-10-30T22:27:16Z</time>
      </trkpt>
      <trkpt lat="47.63845" lon="-2.35998">
        <ele>77</ele>
        <time>2023-10-30T22:27:38Z</time>
      </trkpt>
      <trkpt lat="47.6383" lon="-2.36051">
        <ele>76</ele>
        <time>2023-10-30T22:28:29Z</time>
      </trkpt>
      <trkpt lat="47.63749" lon="-2.36083">
        <ele>76</ele>
        <time>2023-10-30T22:30:21Z</time>
      </trkpt>
      <trkpt lat="47.63737" lon="-2.36093">
        <ele>76</ele>
        <time>2023-10-30T22:30:39Z</time>
      </trkpt>
      <trkpt lat="47.63697" lon="-2.36085">
        <ele>73</ele>
        <time>2023-10-30T22:31:33Z</time>
      </trkpt>
      <trkpt lat="47.63648" lon="-2.36097">
        <ele>70</ele>
        <time>2023-10-30T22:32:40Z</time>
      </trkpt>
      <trkpt lat="47.6362" lon="-2.36128">
        <ele>71</ele>
        <time>2023-10-30T22:33:26Z</time>
      </trkpt>
      <trkpt lat="47.6361" lon="-2.36148">
        <ele>72</ele>
        <time>2023-10-30T22:33:49Z</time>
      </trkpt>
      <trkpt lat="47.63557" lon="-2.36226">
        <ele>73</ele>
        <time>2023-10-30T22:35:28Z</time>
      </trkpt>
      <trkpt lat="47.63516" lon="-2.36309">
        <ele>75</ele>
        <time>2023-10-30T22:37:01Z</time>
      </trkpt>
      <trkpt lat="47.63471" lon="-2.36389">
        <ele>73</ele>
        <time>2023-10-30T22:38:34Z</time>
      </trkpt>
      <trkpt lat="47.63469" lon="-2.365">
        <ele>76</ele>
        <time>2023-10-30T22:40:14Z</time>
      </trkpt>
      <trkpt lat="47.63462" lon="-2.36555">
        <ele>72</ele>
        <time>2023-10-30T22:41:05Z</time>
      </trkpt>
      <trkpt lat="47.63476" lon="-2.36627">
        <ele>71</ele>
        <time>2023-10-30T22:42:12Z</time>
      </trkpt>
      <trkpt lat="47.63498" lon="-2.36685">
        <ele>73</ele>
        <time>2023-10-30T22:43:12Z</time>
      </trkpt>
      <trkpt lat="47.63496" lon="-2.36712">
        <ele>71</ele>
        <time>2023-10-30T22:43:36Z</time>
      </trkpt>
      <trkpt lat="47.63535" lon="-2.36858">
        <ele>68</ele>
        <time>2023-10-30T22:45:58Z</time>
      </trkpt>
      <trkpt lat="47.63532" lon="-2.37031">
        <ele>59</ele>
        <time>2023-10-30T22:48:33Z</time>
      </trkpt>
      <trkpt lat="47.6357" lon="-2.37084">
        <ele>63</ele>
        <time>2023-10-30T22:49:43Z</time>
      </trkpt>
      <trkpt lat="47.6361" lon="-2.37158">
        <ele>68</ele>
        <time>2023-10-30T22:51:08Z</time>
      </trkpt>
      <trkpt lat="47.63628" lon="-2.37229">
        <ele>69</ele>
        <time>2023-10-30T22:52:16Z</time>
      </trkpt>
      <trkpt lat="47.63675" lon="-2.37287">
        <ele>75</ele>
        <time>2023-10-30T22:53:38Z</time>
      </trkpt>
      <trkpt lat="47.63721" lon="-2.37327">
        <ele>79</ele>
        <time>2023-10-30T22:54:49Z</time>
      </trkpt>
      <trkpt lat="47.63757" lon="-2.37351">
        <ele>83</ele>
        <time>2023-10-30T22:55:42Z</time>
      </trkpt>
      <trkpt lat="47.63777" lon="-2.37412">
        <ele>83</ele>
        <time>2023-10-30T22:56:43Z</time>
      </trkpt>
      <trkpt lat="47.63796" lon="-2.37487">
        <ele>81</ele>
        <time>2023-10-30T22:57:55Z</time>
      </trkpt>
      <trkpt lat="47.63853" lon="-2.37681">
        <ele>81</ele>
        <time>2023-10-30T23:01:05Z</time>
      </trkpt>
      <trkpt lat="47.63854" lon="-2.37814">
        <ele>81</ele>
        <time>2023-10-30T23:03:05Z</time>
      </trkpt>
      <trkpt lat="47.63873" lon="-2.37912">
        <ele>83</ele>
        <time>2023-10-30T23:04:36Z</time>
      </trkpt>
      <trkpt lat="47.63897" lon="-2.38009">
        <ele>83</ele>
        <time>2023-10-30T23:06:09Z</time>
      </trkpt>
      <trkpt lat="47.63928" lon="-2.3802">
        <ele>83</ele>
        <time>2023-10-30T23:06:52Z</time>
      </trkpt>
      <trkpt lat="47.64004" lon="-2.38223">
        <ele>81</ele>
        <time>2023-10-30T23:10:21Z</time>
      </trkpt>
      <trkpt lat="47.64009" lon="-2.38262">
        <ele>81</ele>
        <time>2023-10-30T23:10:56Z</time>
      </trkpt>
      <trkpt lat="47.63988" lon="-2.38289">
        <ele>79</ele>
        <time>2023-10-30T23:11:33Z</time>
      </trkpt>
      <trkpt lat="47.63975" lon="-2.38287">
        <ele>78</ele>
        <time>2023-10-30T23:11:51Z</time>
      </trkpt>
      <trkpt lat="47.63964" lon="-2.38303">
        <ele>76</ele>
        <time>2023-10-30T23:12:11Z</time>
      </trkpt>
      <trkpt lat="47.6391" lon="-2.383">
        <ele>70</ele>
        <time>2023-10-30T23:13:23Z</time>
      </trkpt>
      <trkpt lat="47.63902" lon="-2.38281">
        <ele>70</ele>
        <time>2023-10-30T23:13:44Z</time>
      </trkpt>
      <trkpt lat="47.63882" lon="-2.38286">
        <ele>66</ele>
        <time>2023-10-30T23:14:11Z</time>
      </trkpt>
      <trkpt lat="47.63892" lon="-2.38312">
        <ele>66</ele>
        <time>2023-10-30T23:14:38Z</time>
      </trkpt>
      <trkpt lat="47.63909" lon="-2.38336">
        <ele>67</ele>
        <time>2023-10-30T23:15:09Z</time>
      </trkpt>
      <trkpt lat="47.63889" lon="-2.38406">
        <ele>62</ele>
        <time>2023-10-30T23:16:17Z</time>
      </trkpt>
      <trkpt lat="47.63896" lon="-2.38436">
        <ele>64</ele>
        <time>2023-10-30T23:16:46Z</time>
      </trkpt>
      <trkpt lat="47.63902" lon="-2.38507">
        <ele>66</ele>
        <time>2023-10-30T23:17:50Z</time>
      </trkpt>
      <trkpt lat="47.63929" lon="-2.38743">
        <ele>69</ele>
        <time>2023-10-30T23:21:25Z</time>
      </trkpt>
      <trkpt lat="47.63951" lon="-2.38809">
        <ele>73</ele>
        <time>2023-10-30T23:22:32Z</time>
      </trkpt>
      <trkpt lat="47.63949" lon="-2.38908">
        <ele>75</ele>
        <time>2023-10-30T23:24:01Z</time>
      </trkpt>
      <trkpt lat="47.6393" lon="-2.38958">
        <ele>73</ele>
        <time>2023-10-30T23:24:52Z</time>
      </trkpt>
      <trkpt lat="47.63913" lon="-2.39026">
        <ele>70</ele>
        <time>2023-10-30T23:25:57Z</time>
      </trkpt>
      <trkpt lat="47.639" lon="-2.39091">
        <ele>68</ele>
        <time>2023-10-30T23:26:58Z</time>
      </trkpt>
      <trkpt lat="47.63898" lon="-2.39166">
        <ele>64</ele>
        <time>2023-10-30T23:28:06Z</time>
      </trkpt>
      <trkpt lat="47.63902" lon="-2.39247">
        <ele>60</ele>
        <time>2023-10-30T23:29:19Z</time>
      </trkpt>
      <trkpt lat="47.63889" lon="-2.39311">
        <ele>57</ele>
        <time>2023-10-30T23:30:19Z</time>
      </trkpt>
      <trkpt lat="47.63828" lon="-2.3945">
        <ele>48</ele>
        <time>2023-10-30T23:32:48Z</time>
      </trkpt>
      <trkpt lat="47.63825" lon="-2.39474">
        <ele>47</ele>
        <time>2023-10-30T23:33:10Z</time>
      </trkpt>
      <trkpt lat="47.63791" lon="-2.39477">
        <ele>46</ele>
        <time>2023-10-30T23:33:56Z</time>
      </trkpt>
      <trkpt lat="47.63777" lon="-2.39482">
        <ele>46</ele>
        <time>2023-10-30T23:34:15Z</time>
      </trkpt>
      <trkpt lat="47.63777" lon="-2.39496">
        <ele>45</ele>
        <time>2023-10-30T23:34:27Z</time>
      </trkpt>
      <trkpt lat="47.63782" lon="-2.39503">
        <ele>46</ele>
        <time>2023-10-30T23:34:37Z</time>
      </trkpt>
      <trkpt lat="47.63776" lon="-2.39522">
        <ele>46</ele>
        <time>2023-10-30T23:34:55Z</time>
      </trkpt>
      <trkpt lat="47.6377" lon="-2.39557">
        <ele>48</ele>
        <time>2023-10-30T23:35:28Z</time>
      </trkpt>
      <trkpt lat="47.6376" lon="-2.39575">
        <ele>50</ele>
        <time>2023-10-30T23:35:49Z</time>
      </trkpt>
      <trkpt lat="47.63746" lon="-2.3958">
        <ele>51</ele>
        <time>2023-10-30T23:36:08Z</time>
      </trkpt>
      <trkpt lat="47.63714" lon="-2.39576">
        <ele>52</ele>
        <time>2023-10-30T23:36:51Z</time>
      </trkpt>
      <trkpt lat="47.63703" lon="-2.39587">
        <ele>53</ele>
        <time>2023-10-30T23:37:09Z</time>
      </trkpt>
      <trkpt lat="47.63717" lon="-2.39608">
        <ele>55</ele>
        <time>2023-10-30T23:37:35Z</time>
      </trkpt>
      <trkpt lat="47.63716" lon="-2.39633">
        <ele>57</ele>
        <time>2023-10-30T23:37:58Z</time>
      </trkpt>
      <trkpt lat="47.63708" lon="-2.39665">
        <ele>60</ele>
        <time>2023-10-30T23:38:28Z</time>
      </trkpt>
      <trkpt lat="47.63699" lon="-2.39662">
        <ele>60</ele>
        <time>2023-10-30T23:38:41Z</time>
      </trkpt>
      <trkpt lat="47.63687" lon="-2.39711">
        <ele>65</ele>
        <time>2023-10-30T23:39:28Z</time>
      </trkpt>
      <trkpt lat="47.6366" lon="-2.39922">
        <ele>77</ele>
        <time>2023-10-30T23:42:41Z</time>
      </trkpt>
      <trkpt lat="47.63665" lon="-2.40012">
        <ele>82</ele>
        <time>2023-10-30T23:44:02Z</time>
      </trkpt>
      <trkpt lat="47.63677" lon="-2.40076">
        <ele>85</ele>
        <time>2023-10-30T23:45:02Z</time>
      </trkpt>
      <trkpt lat="47.63752" lon="-2.40376">
        <ele>88</ele>
        <time>2023-10-30T23:49:49Z</time>
      </trkpt>
      <trkpt lat="47.63809" lon="-2.40571">
        <ele>91</ele>
        <time>2023-10-30T23:53:01Z</time>
      </trkpt>
      <trkpt lat="47.63884" lon="-2.40901">
        <ele>95</ele>
        <time>2023-10-30T23:58:14Z</time>
      </trkpt>
      <trkpt lat="47.63954" lon="-2.41121">
        <ele>90</ele>
        <time>2023-10-31T00:01:52Z</time>
      </trkpt>
      <trkpt lat="47.63991" lon="-2.41254">
        <ele>85</ele>
        <time>2023-10-31T00:04:02Z</time>
      </trkpt>
      <trkpt lat="47.64021" lon="-2.413">
        <ele>82</ele>
        <time>2023-10-31T00:04:59Z</time>
      </trkpt>
      <trkpt lat="47.64019" lon="-2.41347">
        <ele>80</ele>
        <time>2023-10-31T00:05:42Z</time>
      </trkpt>
      <trkpt lat="47.64037" lon="-2.41398">
        <ele>77</ele>
        <time>2023-10-31T00:06:33Z</time>
      </trkpt>
      <trkpt lat="47.64082" lon="-2.41499">
        <ele>72</ele>
        <time>2023-10-31T00:08:22Z</time>
      </trkpt>
      <trkpt lat="47.64105" lon="-2.41558">
        <ele>76</ele>
        <time>2023-10-31T00:09:24Z</time>
      </trkpt>
      <trkpt lat="47.64099" lon="-2.41651">
        <ele>79</ele>
        <time>2023-10-31T00:10:48Z</time>
      </trkpt>
      <trkpt lat="47.6409" lon="-2.4174">
        <ele>83</ele>
        <time>2023-10-31T00:12:09Z</time>
      </trkpt>
      <trkpt lat="47.64088" lon="-2.41806">
        <ele>85</ele>
        <time>2023-10-31T00:13:08Z</time>
      </trkpt>
      <trkpt lat="47.64113" lon="-2.41849">
        <ele>88</ele>
        <time>2023-10-31T00:13:59Z</time>
      </trkpt>
      <trkpt lat="47.64161" lon="-2.41883">
        <ele>91</ele>
        <time>2023-10-31T00:15:10Z</time>
      </trkpt>
      <trkpt lat="47.6426" lon="-2.41935">
        <ele>93</ele>
        <time>2023-10-31T00:17:30Z</time>
      </trkpt>
      <trkpt lat="47.6429" lon="-2.41938">
        <ele>93</ele>
        <time>2023-10-31T00:18:10Z</time>
      </trkpt>
      <trkpt lat="47.64347" lon="-2.419">
        <ele>92</ele>
        <time>2023-10-31T00:19:34Z</time>
      </trkpt>
      <trkpt lat="47.64389" lon="-2.41877">
        <ele>91</ele>
        <time>2023-10-31T00:20:33Z</time>
      </trkpt>
      <trkpt lat="47.64679" lon="-2.41996">
        <ele>82</ele>
        <time>2023-10-31T00:27:15Z</time>
      </trkpt>
      <trkpt lat="47.64708" lon="-2.42015">
        <ele>83</ele>
        <time>2023-10-31T00:27:57Z</time>
      </trkpt>
      <trkpt lat="47.64744" lon="-2.42115">
        <ele>84</ele>
        <time>2023-10-31T00:29:39Z</time>
      </trkpt>
      <trkpt lat="47.64791" lon="-2.42279">
        <ele>87</ele>
        <time>2023-10-31T00:32:19Z</time>
      </trkpt>
      <trkpt lat="47.64827" lon="-2.42409">
        <ele>90</ele>
        <time>2023-10-31T00:34:26Z</time>
      </trkpt>
      <trkpt lat="47.64843" lon="-2.42497">
        <ele>91</ele>
        <time>2023-10-31T00:35:48Z</time>
      </trkpt>
      <trkpt lat="47.64887" lon="-2.42648">
        <ele>88</ele>
        <time>2023-10-31T00:38:16Z</time>
      </trkpt>
      <trkpt lat="47.64923" lon="-2.42785">
        <ele>84</ele>
        <time>2023-10-31T00:40:28Z</time>
      </trkpt>
      <trkpt lat="47.64922" lon="-2.42781">
        <ele>84</ele>
        <time>2023-10-31T00:40:32Z</time>
      </trkpt>
      <trkpt lat="47.64935" lon="-2.42796">
        <ele>85</ele>
        <time>2023-10-31T00:40:54Z</time>
      </trkpt>
      <trkpt lat="47.64964" lon="-2.42838">
        <ele>86</ele>
        <time>2023-10-31T00:41:48Z</time>
      </trkpt>
      <trkpt lat="47.64979" lon="-2.42873">
        <ele>86</ele>
        <time>2023-10-31T00:42:25Z</time>
      </trkpt>
      <trkpt lat="47.64979" lon="-2.42934">
        <ele>84</ele>
        <time>2023-10-31T00:43:20Z</time>
      </trkpt>
      <trkpt lat="47.64982" lon="-2.42971">
        <ele>83</ele>
        <time>2023-10-31T00:43:53Z</time>
      </trkpt>
    </trkseg>
  </trk>
  <trk>
    <name><![CDATA[GRPvannesJ8_QuestembertKercohan_22.7km-12438617]]></name>
    <extensions>
      <line xmlns="http://www.topografix.com/GPX/gpx_style/0/2">
        <color>FF0000</color>
        <width>4</width>
      </line>
    </extensions>
    <trkseg>
      <trkpt lat="47.64982" lon="-2.42971">
        <ele>83</ele>
        <time>2023-10-30T18:03:05Z</time>
      </trkpt>
      <trkpt lat="47.64986" lon="-2.43017">
        <ele>82</ele>
        <time>2023-10-30T18:03:47Z</time>
      </trkpt>
      <trkpt lat="47.65001" lon="-2.43127">
        <ele>80</ele>
        <time>2023-10-30T18:05:28Z</time>
      </trkpt>
      <trkpt lat="47.65029" lon="-2.4322">
        <ele>81</ele>
        <time>2023-10-30T18:06:59Z</time>
      </trkpt>
      <trkpt lat="47.65105" lon="-2.43378">
        <ele>71</ele>
        <time>2023-10-30T18:09:54Z</time>
      </trkpt>
      <trkpt lat="47.65152" lon="-2.43495">
        <ele>66</ele>
        <time>2023-10-30T18:11:56Z</time>
      </trkpt>
      <trkpt lat="47.65201" lon="-2.436">
        <ele>64</ele>
        <time>2023-10-30T18:13:51Z</time>
      </trkpt>
      <trkpt lat="47.6524" lon="-2.43697">
        <ele>64</ele>
        <time>2023-10-30T18:15:33Z</time>
      </trkpt>
      <trkpt lat="47.65321" lon="-2.43864">
        <ele>71</ele>
        <time>2023-10-30T18:18:38Z</time>
      </trkpt>
      <trkpt lat="47.65339" lon="-2.43932">
        <ele>73</ele>
        <time>2023-10-30T18:19:43Z</time>
      </trkpt>
      <trkpt lat="47.65373" lon="-2.44035">
        <ele>79</ele>
        <time>2023-10-30T18:21:26Z</time>
      </trkpt>
      <trkpt lat="47.65396" lon="-2.44124">
        <ele>79</ele>
        <time>2023-10-30T18:22:52Z</time>
      </trkpt>
      <trkpt lat="47.65465" lon="-2.44147">
        <ele>83</ele>
        <time>2023-10-30T18:24:26Z</time>
      </trkpt>
      <trkpt lat="47.65528" lon="-2.44153">
        <ele>88</ele>
        <time>2023-10-30T18:25:51Z</time>
      </trkpt>
      <trkpt lat="47.65593" lon="-2.44148">
        <ele>93</ele>
        <time>2023-10-30T18:27:17Z</time>
      </trkpt>
      <trkpt lat="47.6566" lon="-2.44108">
        <ele>99</ele>
        <time>2023-10-30T18:28:54Z</time>
      </trkpt>
      <trkpt lat="47.65713" lon="-2.44099">
        <ele>103</ele>
        <time>2023-10-30T18:30:05Z</time>
      </trkpt>
      <trkpt lat="47.65738" lon="-2.44135">
        <ele>104</ele>
        <time>2023-10-30T18:30:51Z</time>
      </trkpt>
      <trkpt lat="47.658" lon="-2.44264">
        <ele>108</ele>
        <time>2023-10-30T18:33:14Z</time>
      </trkpt>
      <trkpt lat="47.65832" lon="-2.44317">
        <ele>110</ele>
        <time>2023-10-30T18:34:18Z</time>
      </trkpt>
      <trkpt lat="47.65861" lon="-2.44376">
        <ele>110</ele>
        <time>2023-10-30T18:35:24Z</time>
      </trkpt>
      <trkpt lat="47.65913" lon="-2.44537">
        <ele>109</ele>
        <time>2023-10-30T18:38:04Z</time>
      </trkpt>
      <trkpt lat="47.65873" lon="-2.44574">
        <ele>108</ele>
        <time>2023-10-30T18:39:07Z</time>
      </trkpt>
      <trkpt lat="47.65841" lon="-2.44591">
        <ele>107</ele>
        <time>2023-10-30T18:39:52Z</time>
      </trkpt>
      <trkpt lat="47.65839" lon="-2.44644">
        <ele>106</ele>
        <time>2023-10-30T18:40:40Z</time>
      </trkpt>
      <trkpt lat="47.6585" lon="-2.44702">
        <ele>106</ele>
        <time>2023-10-30T18:41:34Z</time>
      </trkpt>
      <trkpt lat="47.65856" lon="-2.44762">
        <ele>107</ele>
        <time>2023-10-30T18:42:29Z</time>
      </trkpt>
      <trkpt lat="47.65867" lon="-2.4477">
        <ele>107</ele>
        <time>2023-10-30T18:42:45Z</time>
      </trkpt>
      <trkpt lat="47.65878" lon="-2.44829">
        <ele>105</ele>
        <time>2023-10-30T18:43:40Z</time>
      </trkpt>
      <trkpt lat="47.65881" lon="-2.44859">
        <ele>105</ele>
        <time>2023-10-30T18:44:07Z</time>
      </trkpt>
      <trkpt lat="47.65907" lon="-2.4485">
        <ele>105</ele>
        <time>2023-10-30T18:44:43Z</time>
      </trkpt>
      <trkpt lat="47.65943" lon="-2.44927">
        <ele>104</ele>
        <time>2023-10-30T18:46:07Z</time>
      </trkpt>
      <trkpt lat="47.65972" lon="-2.4507">
        <ele>101</ele>
        <time>2023-10-30T18:48:21Z</time>
      </trkpt>
      <trkpt lat="47.6599" lon="-2.45135">
        <ele>100</ele>
        <time>2023-10-30T18:49:25Z</time>
      </trkpt>
      <trkpt lat="47.66007" lon="-2.45209">
        <ele>99</ele>
        <time>2023-10-30T18:50:35Z</time>
      </trkpt>
      <trkpt lat="47.66006" lon="-2.45234">
        <ele>99</ele>
        <time>2023-10-30T18:50:57Z</time>
      </trkpt>
      <trkpt lat="47.66032" lon="-2.45248">
        <ele>99</ele>
        <time>2023-10-30T18:51:34Z</time>
      </trkpt>
      <trkpt lat="47.66067" lon="-2.45233">
        <ele>100</ele>
        <time>2023-10-30T18:52:23Z</time>
      </trkpt>
      <trkpt lat="47.66079" lon="-2.4527">
        <ele>100</ele>
        <time>2023-10-30T18:53:00Z</time>
      </trkpt>
      <trkpt lat="47.66115" lon="-2.45346">
        <ele>102</ele>
        <time>2023-10-30T18:54:23Z</time>
      </trkpt>
      <trkpt lat="47.66082" lon="-2.45278">
        <ele>101</ele>
        <time>2023-10-30T18:55:39Z</time>
      </trkpt>
      <trkpt lat="47.66043" lon="-2.45294">
        <ele>99</ele>
        <time>2023-10-30T18:56:33Z</time>
      </trkpt>
      <trkpt lat="47.65991" lon="-2.45248">
        <ele>98</ele>
        <time>2023-10-30T18:57:53Z</time>
      </trkpt>
      <trkpt lat="47.65933" lon="-2.4533">
        <ele>91</ele>
        <time>2023-10-30T18:59:40Z</time>
      </trkpt>
      <trkpt lat="47.65905" lon="-2.4535">
        <ele>89</ele>
        <time>2023-10-30T19:00:22Z</time>
      </trkpt>
      <trkpt lat="47.65847" lon="-2.45348">
        <ele>85</ele>
        <time>2023-10-30T19:01:39Z</time>
      </trkpt>
      <trkpt lat="47.6579" lon="-2.45357">
        <ele>77</ele>
        <time>2023-10-30T19:02:56Z</time>
      </trkpt>
      <trkpt lat="47.65744" lon="-2.45372">
        <ele>71</ele>
        <time>2023-10-30T19:03:59Z</time>
      </trkpt>
      <trkpt lat="47.65682" lon="-2.45414">
        <ele>68</ele>
        <time>2023-10-30T19:05:29Z</time>
      </trkpt>
      <trkpt lat="47.65634" lon="-2.45423">
        <ele>70</ele>
        <time>2023-10-30T19:06:34Z</time>
      </trkpt>
      <trkpt lat="47.65601" lon="-2.45419">
        <ele>72</ele>
        <time>2023-10-30T19:07:18Z</time>
      </trkpt>
      <trkpt lat="47.65571" lon="-2.4538">
        <ele>71</ele>
        <time>2023-10-30T19:08:11Z</time>
      </trkpt>
      <trkpt lat="47.6554" lon="-2.45368">
        <ele>70</ele>
        <time>2023-10-30T19:08:54Z</time>
      </trkpt>
      <trkpt lat="47.65517" lon="-2.45382">
        <ele>71</ele>
        <time>2023-10-30T19:09:27Z</time>
      </trkpt>
      <trkpt lat="47.65507" lon="-2.45391">
        <ele>71</ele>
        <time>2023-10-30T19:09:43Z</time>
      </trkpt>
      <trkpt lat="47.65488" lon="-2.45423">
        <ele>71</ele>
        <time>2023-10-30T19:10:21Z</time>
      </trkpt>
      <trkpt lat="47.65482" lon="-2.45465">
        <ele>73</ele>
        <time>2023-10-30T19:11:00Z</time>
      </trkpt>
      <trkpt lat="47.6545" lon="-2.45501">
        <ele>73</ele>
        <time>2023-10-30T19:11:53Z</time>
      </trkpt>
      <trkpt lat="47.65373" lon="-2.45611">
        <ele>79</ele>
        <time>2023-10-30T19:14:16Z</time>
      </trkpt>
      <trkpt lat="47.65303" lon="-2.45736">
        <ele>87</ele>
        <time>2023-10-30T19:16:42Z</time>
      </trkpt>
      <trkpt lat="47.65227" lon="-2.45819">
        <ele>93</ele>
        <time>2023-10-30T19:18:48Z</time>
      </trkpt>
      <trkpt lat="47.652" lon="-2.45873">
        <ele>94</ele>
        <time>2023-10-30T19:19:49Z</time>
      </trkpt>
      <trkpt lat="47.6513" lon="-2.45927">
        <ele>94</ele>
        <time>2023-10-30T19:21:34Z</time>
      </trkpt>
      <trkpt lat="47.65023" lon="-2.46053">
        <ele>86</ele>
        <time>2023-10-30T19:24:36Z</time>
      </trkpt>
      <trkpt lat="47.64941" lon="-2.46043">
        <ele>74</ele>
        <time>2023-10-30T19:26:26Z</time>
      </trkpt>
      <trkpt lat="47.6485" lon="-2.46026">
        <ele>70</ele>
        <time>2023-10-30T19:28:28Z</time>
      </trkpt>
      <trkpt lat="47.64837" lon="-2.46033">
        <ele>69</ele>
        <time>2023-10-30T19:28:47Z</time>
      </trkpt>
      <trkpt lat="47.64821" lon="-2.46031">
        <ele>70</ele>
        <time>2023-10-30T19:29:08Z</time>
      </trkpt>
      <trkpt lat="47.64806" lon="-2.46041">
        <ele>71</ele>
        <time>2023-10-30T19:29:30Z</time>
      </trkpt>
      <trkpt lat="47.64776" lon="-2.46095">
        <ele>73</ele>
        <time>2023-10-30T19:30:33Z</time>
      </trkpt>
      <trkpt lat="47.64722" lon="-2.46107">
        <ele>76</ele>
        <time>2023-10-30T19:31:46Z</time>
      </trkpt>
      <trkpt lat="47.64642" lon="-2.46116">
        <ele>76</ele>
        <time>2023-10-30T19:33:33Z</time>
      </trkpt>
      <trkpt lat="47.64599" lon="-2.46146">
        <ele>76</ele>
        <time>2023-10-30T19:34:36Z</time>
      </trkpt>
      <trkpt lat="47.64522" lon="-2.46192">
        <ele>73</ele>
        <time>2023-10-30T19:36:27Z</time>
      </trkpt>
      <trkpt lat="47.64439" lon="-2.46248">
        <ele>75</ele>
        <time>2023-10-30T19:38:29Z</time>
      </trkpt>
      <trkpt lat="47.64347" lon="-2.463">
        <ele>76</ele>
        <time>2023-10-30T19:40:40Z</time>
      </trkpt>
      <trkpt lat="47.64221" lon="-2.46352">
        <ele>83</ele>
        <time>2023-10-30T19:43:35Z</time>
      </trkpt>
      <trkpt lat="47.6417" lon="-2.4636">
        <ele>84</ele>
        <time>2023-10-30T19:44:43Z</time>
      </trkpt>
      <trkpt lat="47.64085" lon="-2.46443">
        <ele>85</ele>
        <time>2023-10-30T19:46:59Z</time>
      </trkpt>
      <trkpt lat="47.63955" lon="-2.46587">
        <ele>80</ele>
        <time>2023-10-30T19:50:35Z</time>
      </trkpt>
      <trkpt lat="47.64024" lon="-2.46767">
        <ele>83</ele>
        <time>2023-10-30T19:53:42Z</time>
      </trkpt>
      <trkpt lat="47.64086" lon="-2.46859">
        <ele>80</ele>
        <time>2023-10-30T19:55:39Z</time>
      </trkpt>
      <trkpt lat="47.64135" lon="-2.46987">
        <ele>81</ele>
        <time>2023-10-30T19:57:51Z</time>
      </trkpt>
      <trkpt lat="47.6415" lon="-2.47048">
        <ele>82</ele>
        <time>2023-10-30T19:58:49Z</time>
      </trkpt>
      <trkpt lat="47.64109" lon="-2.47068">
        <ele>81</ele>
        <time>2023-10-30T19:59:47Z</time>
      </trkpt>
      <trkpt lat="47.64082" lon="-2.47212">
        <ele>78</ele>
        <time>2023-10-30T20:02:01Z</time>
      </trkpt>
      <trkpt lat="47.63985" lon="-2.47347">
        <ele>77</ele>
        <time>2023-10-30T20:04:59Z</time>
      </trkpt>
      <trkpt lat="47.63904" lon="-2.47453">
        <ele>78</ele>
        <time>2023-10-30T20:07:23Z</time>
      </trkpt>
      <trkpt lat="47.63862" lon="-2.47525">
        <ele>77</ele>
        <time>2023-10-30T20:08:48Z</time>
      </trkpt>
      <trkpt lat="47.6383" lon="-2.47769">
        <ele>75</ele>
        <time>2023-10-30T20:12:32Z</time>
      </trkpt>
      <trkpt lat="47.63809" lon="-2.47834">
        <ele>71</ele>
        <time>2023-10-30T20:13:37Z</time>
      </trkpt>
      <trkpt lat="47.63772" lon="-2.47848">
        <ele>70</ele>
        <time>2023-10-30T20:14:28Z</time>
      </trkpt>
      <trkpt lat="47.63745" lon="-2.47865">
        <ele>69</ele>
        <time>2023-10-30T20:15:07Z</time>
      </trkpt>
      <trkpt lat="47.63731" lon="-2.47924">
        <ele>67</ele>
        <time>2023-10-30T20:16:03Z</time>
      </trkpt>
      <trkpt lat="47.63742" lon="-2.47991">
        <ele>67</ele>
        <time>2023-10-30T20:17:05Z</time>
      </trkpt>
      <trkpt lat="47.63736" lon="-2.48068">
        <ele>63</ele>
        <time>2023-10-30T20:18:15Z</time>
      </trkpt>
      <trkpt lat="47.63767" lon="-2.48304">
        <ele>55</ele>
        <time>2023-10-30T20:21:51Z</time>
      </trkpt>
      <trkpt lat="47.63659" lon="-2.48388">
        <ele>51</ele>
        <time>2023-10-30T20:24:34Z</time>
      </trkpt>
      <trkpt lat="47.63679" lon="-2.48469">
        <ele>48</ele>
        <time>2023-10-30T20:25:51Z</time>
      </trkpt>
      <trkpt lat="47.63737" lon="-2.48489">
        <ele>47</ele>
        <time>2023-10-30T20:27:11Z</time>
      </trkpt>
      <trkpt lat="47.63777" lon="-2.48516">
        <ele>47</ele>
        <time>2023-10-30T20:28:09Z</time>
      </trkpt>
      <trkpt lat="47.63835" lon="-2.48543">
        <ele>49</ele>
        <time>2023-10-30T20:29:31Z</time>
      </trkpt>
      <trkpt lat="47.639" lon="-2.48556">
        <ele>51</ele>
        <time>2023-10-30T20:30:58Z</time>
      </trkpt>
      <trkpt lat="47.63957" lon="-2.48588">
        <ele>50</ele>
        <time>2023-10-30T20:32:19Z</time>
      </trkpt>
      <trkpt lat="47.63996" lon="-2.486">
        <ele>50</ele>
        <time>2023-10-30T20:33:13Z</time>
      </trkpt>
      <trkpt lat="47.64036" lon="-2.48607">
        <ele>49</ele>
        <time>2023-10-30T20:34:06Z</time>
      </trkpt>
      <trkpt lat="47.64066" lon="-2.48608">
        <ele>48</ele>
        <time>2023-10-30T20:34:46Z</time>
      </trkpt>
      <trkpt lat="47.6408" lon="-2.48616">
        <ele>48</ele>
        <time>2023-10-30T20:35:06Z</time>
      </trkpt>
      <trkpt lat="47.64098" lon="-2.48633">
        <ele>48</ele>
        <time>2023-10-30T20:35:35Z</time>
      </trkpt>
      <trkpt lat="47.6412" lon="-2.48645">
        <ele>48</ele>
        <time>2023-10-30T20:36:06Z</time>
      </trkpt>
      <trkpt lat="47.64105" lon="-2.48718">
        <ele>52</ele>
        <time>2023-10-30T20:37:15Z</time>
      </trkpt>
      <trkpt lat="47.64074" lon="-2.48758">
        <ele>53</ele>
        <time>2023-10-30T20:38:10Z</time>
      </trkpt>
      <trkpt lat="47.64025" lon="-2.48797">
        <ele>53</ele>
        <time>2023-10-30T20:39:24Z</time>
      </trkpt>
      <trkpt lat="47.64002" lon="-2.48865">
        <ele>55</ele>
        <time>2023-10-30T20:40:32Z</time>
      </trkpt>
      <trkpt lat="47.63985" lon="-2.48993">
        <ele>62</ele>
        <time>2023-10-30T20:42:29Z</time>
      </trkpt>
      <trkpt lat="47.64046" lon="-2.49039">
        <ele>65</ele>
        <time>2023-10-30T20:44:01Z</time>
      </trkpt>
      <trkpt lat="47.64067" lon="-2.49128">
        <ele>69</ele>
        <time>2023-10-30T20:45:26Z</time>
      </trkpt>
      <trkpt lat="47.64085" lon="-2.49243">
        <ele>70</ele>
        <time>2023-10-30T20:47:12Z</time>
      </trkpt>
      <trkpt lat="47.64122" lon="-2.49539">
        <ele>75</ele>
        <time>2023-10-30T20:51:42Z</time>
      </trkpt>
      <trkpt lat="47.6413" lon="-2.49633">
        <ele>78</ele>
        <time>2023-10-30T20:53:08Z</time>
      </trkpt>
      <trkpt lat="47.64111" lon="-2.49748">
        <ele>79</ele>
        <time>2023-10-30T20:54:54Z</time>
      </trkpt>
      <trkpt lat="47.64131" lon="-2.49766">
        <ele>79</ele>
        <time>2023-10-30T20:55:25Z</time>
      </trkpt>
      <trkpt lat="47.64069" lon="-2.49841">
        <ele>79</ele>
        <time>2023-10-30T20:57:12Z</time>
      </trkpt>
      <trkpt lat="47.63944" lon="-2.49933">
        <ele>77</ele>
        <time>2023-10-30T21:00:18Z</time>
      </trkpt>
      <trkpt lat="47.63903" lon="-2.49939">
        <ele>76</ele>
        <time>2023-10-30T21:01:13Z</time>
      </trkpt>
      <trkpt lat="47.6384" lon="-2.4993">
        <ele>77</ele>
        <time>2023-10-30T21:02:38Z</time>
      </trkpt>
      <trkpt lat="47.63769" lon="-2.49972">
        <ele>80</ele>
        <time>2023-10-30T21:04:20Z</time>
      </trkpt>
      <trkpt lat="47.63723" lon="-2.50042">
        <ele>80</ele>
        <time>2023-10-30T21:05:48Z</time>
      </trkpt>
      <trkpt lat="47.63669" lon="-2.50056">
        <ele>81</ele>
        <time>2023-10-30T21:07:01Z</time>
      </trkpt>
      <trkpt lat="47.63628" lon="-2.50059">
        <ele>78</ele>
        <time>2023-10-30T21:07:55Z</time>
      </trkpt>
      <trkpt lat="47.63596" lon="-2.50066">
        <ele>77</ele>
        <time>2023-10-30T21:08:39Z</time>
      </trkpt>
      <trkpt lat="47.63571" lon="-2.50103">
        <ele>74</ele>
        <time>2023-10-30T21:09:26Z</time>
      </trkpt>
      <trkpt lat="47.63549" lon="-2.50148">
        <ele>73</ele>
        <time>2023-10-30T21:10:16Z</time>
      </trkpt>
      <trkpt lat="47.63527" lon="-2.50169">
        <ele>73</ele>
        <time>2023-10-30T21:10:51Z</time>
      </trkpt>
      <trkpt lat="47.63508" lon="-2.502">
        <ele>74</ele>
        <time>2023-10-30T21:11:28Z</time>
      </trkpt>
      <trkpt lat="47.63489" lon="-2.50246">
        <ele>76</ele>
        <time>2023-10-30T21:12:17Z</time>
      </trkpt>
      <trkpt lat="47.63423" lon="-2.50298">
        <ele>73</ele>
        <time>2023-10-30T21:13:57Z</time>
      </trkpt>
      <trkpt lat="47.63363" lon="-2.50397">
        <ele>67</ele>
        <time>2023-10-30T21:15:56Z</time>
      </trkpt>
      <trkpt lat="47.63323" lon="-2.5045">
        <ele>60</ele>
        <time>2023-10-30T21:17:08Z</time>
      </trkpt>
      <trkpt lat="47.63266" lon="-2.50518">
        <ele>53</ele>
        <time>2023-10-30T21:18:45Z</time>
      </trkpt>
      <trkpt lat="47.63253" lon="-2.506">
        <ele>54</ele>
        <time>2023-10-30T21:20:01Z</time>
      </trkpt>
      <trkpt lat="47.6325" lon="-2.50683">
        <ele>56</ele>
        <time>2023-10-30T21:21:16Z</time>
      </trkpt>
      <trkpt lat="47.63287" lon="-2.50766">
        <ele>57</ele>
        <time>2023-10-30T21:22:45Z</time>
      </trkpt>
      <trkpt lat="47.63322" lon="-2.5086">
        <ele>58</ele>
        <time>2023-10-30T21:24:22Z</time>
      </trkpt>
      <trkpt lat="47.63326" lon="-2.5101">
        <ele>63</ele>
        <time>2023-10-30T21:26:37Z</time>
      </trkpt>
      <trkpt lat="47.63321" lon="-2.51146">
        <ele>68</ele>
        <time>2023-10-30T21:28:40Z</time>
      </trkpt>
      <trkpt lat="47.6336" lon="-2.51283">
        <ele>72</ele>
        <time>2023-10-30T21:30:53Z</time>
      </trkpt>
      <trkpt lat="47.63372" lon="-2.51434">
        <ele>75</ele>
        <time>2023-10-30T21:33:10Z</time>
      </trkpt>
      <trkpt lat="47.63378" lon="-2.51551">
        <ele>76</ele>
        <time>2023-10-30T21:34:56Z</time>
      </trkpt>
      <trkpt lat="47.63388" lon="-2.51592">
        <ele>77</ele>
        <time>2023-10-30T21:35:35Z</time>
      </trkpt>
      <trkpt lat="47.63278" lon="-2.51575">
        <ele>77</ele>
        <time>2023-10-30T21:38:02Z</time>
      </trkpt>
      <trkpt lat="47.63176" lon="-2.51536">
        <ele>77</ele>
        <time>2023-10-30T21:40:23Z</time>
      </trkpt>
      <trkpt lat="47.63117" lon="-2.51484">
        <ele>77</ele>
        <time>2023-10-30T21:41:54Z</time>
      </trkpt>
      <trkpt lat="47.6301" lon="-2.51404">
        <ele>76</ele>
        <time>2023-10-30T21:44:34Z</time>
      </trkpt>
      <trkpt lat="47.62956" lon="-2.51407">
        <ele>77</ele>
        <time>2023-10-30T21:45:46Z</time>
      </trkpt>
      <trkpt lat="47.63064" lon="-2.51849">
        <ele>73</ele>
        <time>2023-10-30T21:52:49Z</time>
      </trkpt>
      <trkpt lat="47.63079" lon="-2.51971">
        <ele>74</ele>
        <time>2023-10-30T21:54:41Z</time>
      </trkpt>
      <trkpt lat="47.63147" lon="-2.5218">
        <ele>79</ele>
        <time>2023-10-30T21:58:10Z</time>
      </trkpt>
      <trkpt lat="47.63051" lon="-2.52268">
        <ele>75</ele>
        <time>2023-10-30T22:00:40Z</time>
      </trkpt>
      <trkpt lat="47.6297" lon="-2.52317">
        <ele>72</ele>
        <time>2023-10-30T22:02:37Z</time>
      </trkpt>
      <trkpt lat="47.62996" lon="-2.52374">
        <ele>73</ele>
        <time>2023-10-30T22:03:39Z</time>
      </trkpt>
      <trkpt lat="47.63028" lon="-2.52378">
        <ele>74</ele>
        <time>2023-10-30T22:04:22Z</time>
      </trkpt>
      <trkpt lat="47.63078" lon="-2.52475">
        <ele>74</ele>
        <time>2023-10-30T22:06:11Z</time>
      </trkpt>
      <trkpt lat="47.631" lon="-2.52566">
        <ele>73</ele>
        <time>2023-10-30T22:07:38Z</time>
      </trkpt>
      <trkpt lat="47.63118" lon="-2.52616">
        <ele>73</ele>
        <time>2023-10-30T22:08:29Z</time>
      </trkpt>
      <trkpt lat="47.63129" lon="-2.52655">
        <ele>72</ele>
        <time>2023-10-30T22:09:07Z</time>
      </trkpt>
      <trkpt lat="47.63125" lon="-2.52698">
        <ele>71</ele>
        <time>2023-10-30T22:09:46Z</time>
      </trkpt>
      <trkpt lat="47.63145" lon="-2.52717">
        <ele>71</ele>
        <time>2023-10-30T22:10:18Z</time>
      </trkpt>
      <trkpt lat="47.63219" lon="-2.5261">
        <ele>74</ele>
        <time>2023-10-30T22:12:36Z</time>
      </trkpt>
      <trkpt lat="47.63255" lon="-2.52607">
        <ele>75</ele>
        <time>2023-10-30T22:13:24Z</time>
      </trkpt>
      <trkpt lat="47.63277" lon="-2.52582">
        <ele>75</ele>
        <time>2023-10-30T22:14:01Z</time>
      </trkpt>
      <trkpt lat="47.633" lon="-2.52567">
        <ele>75</ele>
        <time>2023-10-30T22:14:35Z</time>
      </trkpt>
      <trkpt lat="47.63305" lon="-2.52558">
        <ele>75</ele>
        <time>2023-10-30T22:14:45Z</time>
      </trkpt>
      <trkpt lat="47.63313" lon="-2.52519">
        <ele>76</ele>
        <time>2023-10-30T22:15:22Z</time>
      </trkpt>
      <trkpt lat="47.63317" lon="-2.52511">
        <ele>76</ele>
        <time>2023-10-30T22:15:31Z</time>
      </trkpt>
      <trkpt lat="47.6332" lon="-2.52468">
        <ele>77</ele>
        <time>2023-10-30T22:16:10Z</time>
      </trkpt>
      <trkpt lat="47.63364" lon="-2.52433">
        <ele>77</ele>
        <time>2023-10-30T22:17:16Z</time>
      </trkpt>
      <trkpt lat="47.63491" lon="-2.52308">
        <ele>78</ele>
        <time>2023-10-30T22:20:40Z</time>
      </trkpt>
      <trkpt lat="47.63563" lon="-2.52248">
        <ele>82</ele>
        <time>2023-10-30T22:22:30Z</time>
      </trkpt>
      <trkpt lat="47.63584" lon="-2.52173">
        <ele>82</ele>
        <time>2023-10-30T22:23:43Z</time>
      </trkpt>
      <trkpt lat="47.6359" lon="-2.52097">
        <ele>82</ele>
        <time>2023-10-30T22:24:52Z</time>
      </trkpt>
      <trkpt lat="47.63644" lon="-2.52039">
        <ele>86</ele>
        <time>2023-10-30T22:26:21Z</time>
      </trkpt>
      <trkpt lat="47.63695" lon="-2.51997">
        <ele>89</ele>
        <time>2023-10-30T22:27:38Z</time>
      </trkpt>
      <trkpt lat="47.6375" lon="-2.51909">
        <ele>90</ele>
        <time>2023-10-30T22:29:26Z</time>
      </trkpt>
      <trkpt lat="47.63788" lon="-2.51795">
        <ele>87</ele>
        <time>2023-10-30T22:31:21Z</time>
      </trkpt>
      <trkpt lat="47.63817" lon="-2.51745">
        <ele>85</ele>
        <time>2023-10-30T22:32:20Z</time>
      </trkpt>
      <trkpt lat="47.63892" lon="-2.51572">
        <ele>85</ele>
        <time>2023-10-30T22:35:25Z</time>
      </trkpt>
      <trkpt lat="47.63905" lon="-2.51449">
        <ele>85</ele>
        <time>2023-10-30T22:37:17Z</time>
      </trkpt>
      <trkpt lat="47.64053" lon="-2.5133">
        <ele>83</ele>
        <time>2023-10-30T22:41:02Z</time>
      </trkpt>
      <trkpt lat="47.64065" lon="-2.51271">
        <ele>83</ele>
        <time>2023-10-30T22:41:57Z</time>
      </trkpt>
      <trkpt lat="47.64301" lon="-2.51213">
        <ele>77</ele>
        <time>2023-10-30T22:47:16Z</time>
      </trkpt>
      <trkpt lat="47.64329" lon="-2.51231">
        <ele>77</ele>
        <time>2023-10-30T22:47:57Z</time>
      </trkpt>
      <trkpt lat="47.64315" lon="-2.51283">
        <ele>80</ele>
        <time>2023-10-30T22:48:47Z</time>
      </trkpt>
      <trkpt lat="47.6429" lon="-2.51332">
        <ele>83</ele>
        <time>2023-10-30T22:49:42Z</time>
      </trkpt>
      <trkpt lat="47.6429" lon="-2.51371">
        <ele>82</ele>
        <time>2023-10-30T22:50:18Z</time>
      </trkpt>
      <trkpt lat="47.64321" lon="-2.51448">
        <ele>79</ele>
        <time>2023-10-30T22:51:38Z</time>
      </trkpt>
      <trkpt lat="47.64334" lon="-2.51452">
        <ele>78</ele>
        <time>2023-10-30T22:51:56Z</time>
      </trkpt>
      <trkpt lat="47.64365" lon="-2.51418">
        <ele>80</ele>
        <time>2023-10-30T22:52:47Z</time>
      </trkpt>
      <trkpt lat="47.64414" lon="-2.51436">
        <ele>81</ele>
        <time>2023-10-30T22:53:55Z</time>
      </trkpt>
      <trkpt lat="47.6444" lon="-2.51452">
        <ele>83</ele>
        <time>2023-10-30T22:54:32Z</time>
      </trkpt>
      <trkpt lat="47.64581" lon="-2.51676">
        <ele>87</ele>
        <time>2023-10-30T22:59:08Z</time>
      </trkpt>
      <trkpt lat="47.64577" lon="-2.51514">
        <ele>89</ele>
        <time>2023-10-30T23:01:34Z</time>
      </trkpt>
      <trkpt lat="47.64583" lon="-2.51291">
        <ele>84</ele>
        <time>2023-10-30T23:04:54Z</time>
      </trkpt>
      <trkpt lat="47.64643" lon="-2.51237">
        <ele>84</ele>
        <time>2023-10-30T23:06:28Z</time>
      </trkpt>
      <trkpt lat="47.64725" lon="-2.51201">
        <ele>86</ele>
        <time>2023-10-30T23:08:22Z</time>
      </trkpt>
      <trkpt lat="47.64835" lon="-2.51171">
        <ele>88</ele>
        <time>2023-10-30T23:10:51Z</time>
      </trkpt>
      <trkpt lat="47.64886" lon="-2.51177">
        <ele>86</ele>
        <time>2023-10-30T23:12:00Z</time>
      </trkpt>
      <trkpt lat="47.64884" lon="-2.51061">
        <ele>82</ele>
        <time>2023-10-30T23:13:44Z</time>
      </trkpt>
      <trkpt lat="47.64987" lon="-2.50943">
        <ele>74</ele>
        <time>2023-10-30T23:16:37Z</time>
      </trkpt>
      <trkpt lat="47.64932" lon="-2.50776">
        <ele>70</ele>
        <time>2023-10-30T23:19:25Z</time>
      </trkpt>
      <trkpt lat="47.64982" lon="-2.50778">
        <ele>69</ele>
        <time>2023-10-30T23:20:31Z</time>
      </trkpt>
      <trkpt lat="47.65072" lon="-2.51204">
        <ele>83</ele>
        <time>2023-10-30T23:27:13Z</time>
      </trkpt>
      <trkpt lat="47.65076" lon="-2.51447">
        <ele>84</ele>
        <time>2023-10-30T23:30:51Z</time>
      </trkpt>
      <trkpt lat="47.65038" lon="-2.51486">
        <ele>85</ele>
        <time>2023-10-30T23:31:53Z</time>
      </trkpt>
      <trkpt lat="47.64996" lon="-2.51626">
        <ele>86</ele>
        <time>2023-10-30T23:34:11Z</time>
      </trkpt>
      <trkpt lat="47.64931" lon="-2.51683">
        <ele>88</ele>
        <time>2023-10-30T23:35:51Z</time>
      </trkpt>
      <trkpt lat="47.64865" lon="-2.51797">
        <ele>91</ele>
        <time>2023-10-30T23:38:06Z</time>
      </trkpt>
      <trkpt lat="47.65116" lon="-2.5193">
        <ele>104</ele>
        <time>2023-10-30T23:44:02Z</time>
      </trkpt>
      <trkpt lat="47.65148" lon="-2.51983">
        <ele>107</ele>
        <time>2023-10-30T23:45:06Z</time>
      </trkpt>
      <trkpt lat="47.65199" lon="-2.52115">
        <ele>112</ele>
        <time>2023-10-30T23:47:23Z</time>
      </trkpt>
      <trkpt lat="47.65185" lon="-2.52332">
        <ele>114</ele>
        <time>2023-10-30T23:50:39Z</time>
      </trkpt>
      <trkpt lat="47.65057" lon="-2.52368">
        <ele>118</ele>
        <time>2023-10-30T23:53:33Z</time>
      </trkpt>
      <trkpt lat="47.65036" lon="-2.52712">
        <ele>121</ele>
        <time>2023-10-30T23:58:43Z</time>
      </trkpt>
      <trkpt lat="47.65015" lon="-2.52726">
        <ele>121</ele>
        <time>2023-10-30T23:59:14Z</time>
      </trkpt>
      <trkpt lat="47.64955" lon="-2.52779">
        <ele>121</ele>
        <time>2023-10-31T00:00:47Z</time>
      </trkpt>
      <trkpt lat="47.64976" lon="-2.52831">
        <ele>123</ele>
        <time>2023-10-31T00:01:42Z</time>
      </trkpt>
      <trkpt lat="47.64935" lon="-2.52941">
        <ele>120</ele>
        <time>2023-10-31T00:03:35Z</time>
      </trkpt>
      <trkpt lat="47.64921" lon="-2.53023">
        <ele>115</ele>
        <time>2023-10-31T00:04:51Z</time>
      </trkpt>
      <trkpt lat="47.64909" lon="-2.53075">
        <ele>112</ele>
        <time>2023-10-31T00:05:40Z</time>
      </trkpt>
      <trkpt lat="47.64822" lon="-2.53113">
        <ele>108</ele>
        <time>2023-10-31T00:07:41Z</time>
      </trkpt>
      <trkpt lat="47.64802" lon="-2.53154">
        <ele>105</ele>
        <time>2023-10-31T00:08:27Z</time>
      </trkpt>
      <trkpt lat="47.64736" lon="-2.53179">
        <ele>99</ele>
        <time>2023-10-31T00:09:58Z</time>
      </trkpt>
      <trkpt lat="47.6476" lon="-2.53425">
        <ele>103</ele>
        <time>2023-10-31T00:13:41Z</time>
      </trkpt>
      <trkpt lat="47.64816" lon="-2.5353">
        <ele>104</ele>
        <time>2023-10-31T00:15:41Z</time>
      </trkpt>
      <trkpt lat="47.64844" lon="-2.53572">
        <ele>104</ele>
        <time>2023-10-31T00:16:35Z</time>
      </trkpt>
      <trkpt lat="47.64908" lon="-2.53646">
        <ele>108</ele>
        <time>2023-10-31T00:18:23Z</time>
      </trkpt>
      <trkpt lat="47.65017" lon="-2.53808">
        <ele>111</ele>
        <time>2023-10-31T00:21:49Z</time>
      </trkpt>
      <trkpt lat="47.65127" lon="-2.53944">
        <ele>110</ele>
        <time>2023-10-31T00:25:00Z</time>
      </trkpt>
      <trkpt lat="47.65245" lon="-2.54063">
        <ele>110</ele>
        <time>2023-10-31T00:28:10Z</time>
      </trkpt>
      <trkpt lat="47.65177" lon="-2.54092">
        <ele>103</ele>
        <time>2023-10-31T00:29:44Z</time>
      </trkpt>
      <trkpt lat="47.65133" lon="-2.54162">
        <ele>100</ele>
        <time>2023-10-31T00:31:10Z</time>
      </trkpt>
      <trkpt lat="47.65066" lon="-2.5418">
        <ele>95</ele>
        <time>2023-10-31T00:32:41Z</time>
      </trkpt>
      <trkpt lat="47.65017" lon="-2.54175">
        <ele>95</ele>
        <time>2023-10-31T00:33:47Z</time>
      </trkpt>
      <trkpt lat="47.64907" lon="-2.5418">
        <ele>91</ele>
        <time>2023-10-31T00:36:14Z</time>
      </trkpt>
      <trkpt lat="47.64951" lon="-2.54389">
        <ele>99</ele>
        <time>2023-10-31T00:39:31Z</time>
      </trkpt>
      <trkpt lat="47.65007" lon="-2.54558">
        <ele>107</ele>
        <time>2023-10-31T00:42:20Z</time>
      </trkpt>
      <trkpt lat="47.65038" lon="-2.5462">
        <ele>111</ele>
        <time>2023-10-31T00:43:29Z</time>
      </trkpt>
      <trkpt lat="47.65062" lon="-2.54696">
        <ele>114</ele>
        <time>2023-10-31T00:44:45Z</time>
      </trkpt>
      <trkpt lat="47.65073" lon="-2.5476">
        <ele>116</ele>
        <time>2023-10-31T00:45:44Z</time>
      </trkpt>
      <trkpt lat="47.65063" lon="-2.5499">
        <ele>105</ele>
        <time>2023-10-31T00:49:11Z</time>
      </trkpt>
      <trkpt lat="47.65036" lon="-2.55057">
        <ele>103</ele>
        <time>2023-10-31T00:50:22Z</time>
      </trkpt>
      <trkpt lat="47.65002" lon="-2.55222">
        <ele>105</ele>
        <time>2023-10-31T00:52:57Z</time>
      </trkpt>
      <trkpt lat="47.6506" lon="-2.55295">
        <ele>103</ele>
        <time>2023-10-31T00:54:38Z</time>
      </trkpt>
      <trkpt lat="47.65122" lon="-2.55358">
        <ele>102</ele>
        <time>2023-10-31T00:56:18Z</time>
      </trkpt>
      <trkpt lat="47.65147" lon="-2.55361">
        <ele>101</ele>
        <time>2023-10-31T00:56:52Z</time>
      </trkpt>
      <trkpt lat="47.65168" lon="-2.55353">
        <ele>101</ele>
        <time>2023-10-31T00:57:21Z</time>
      </trkpt>
      <trkpt lat="47.65207" lon="-2.55345">
        <ele>100</ele>
        <time>2023-10-31T00:58:13Z</time>
      </trkpt>
      <trkpt lat="47.65245" lon="-2.5538">
        <ele>98</ele>
        <time>2023-10-31T00:59:13Z</time>
      </trkpt>
      <trkpt lat="47.65253" lon="-2.55496">
        <ele>95</ele>
        <time>2023-10-31T01:00:58Z</time>
      </trkpt>
      <trkpt lat="47.65249" lon="-2.55682">
        <ele>94</ele>
        <time>2023-10-31T01:03:45Z</time>
      </trkpt>
      <trkpt lat="47.65253" lon="-2.55736">
        <ele>92</ele>
        <time>2023-10-31T01:04:34Z</time>
      </trkpt>
      <trkpt lat="47.65232" lon="-2.55764">
        <ele>93</ele>
        <time>2023-10-31T01:05:12Z</time>
      </trkpt>
      <trkpt lat="47.6519" lon="-2.55766">
        <ele>95</ele>
        <time>2023-10-31T01:06:08Z</time>
      </trkpt>
      <trkpt lat="47.65148" lon="-2.55743">
        <ele>96</ele>
        <time>2023-10-31T01:07:07Z</time>
      </trkpt>
      <trkpt lat="47.65105" lon="-2.55764">
        <ele>95</ele>
        <time>2023-10-31T01:08:08Z</time>
      </trkpt>
      <trkpt lat="47.65042" lon="-2.55761">
        <ele>94</ele>
        <time>2023-10-31T01:09:32Z</time>
      </trkpt>
      <trkpt lat="47.65011" lon="-2.55748">
        <ele>94</ele>
        <time>2023-10-31T01:10:15Z</time>
      </trkpt>
      <trkpt lat="47.64977" lon="-2.5577">
        <ele>97</ele>
        <time>2023-10-31T01:11:04Z</time>
      </trkpt>
      <trkpt lat="47.64964" lon="-2.55819">
        <ele>97</ele>
        <time>2023-10-31T01:11:52Z</time>
      </trkpt>
      <trkpt lat="47.64969" lon="-2.55884">
        <ele>97</ele>
        <time>2023-10-31T01:12:51Z</time>
      </trkpt>
      <trkpt lat="47.64991" lon="-2.56058">
        <ele>90</ele>
        <time>2023-10-31T01:15:30Z</time>
      </trkpt>
      <trkpt lat="47.64981" lon="-2.56094">
        <ele>90</ele>
        <time>2023-10-31T01:16:05Z</time>
      </trkpt>
      <trkpt lat="47.64968" lon="-2.56128">
        <ele>90</ele>
        <time>2023-10-31T01:16:40Z</time>
      </trkpt>
      <trkpt lat="47.64905" lon="-2.56231">
        <ele>82</ele>
        <time>2023-10-31T01:18:45Z</time>
      </trkpt>
      <trkpt lat="47.64861" lon="-2.56257">
        <ele>83</ele>
        <time>2023-10-31T01:19:48Z</time>
      </trkpt>
      <trkpt lat="47.64726" lon="-2.56397">
        <ele>77</ele>
        <time>2023-10-31T01:23:28Z</time>
      </trkpt>
      <trkpt lat="47.64714" lon="-2.56354">
        <ele>83</ele>
        <time>2023-10-31T01:24:10Z</time>
      </trkpt>
      <trkpt lat="47.64704" lon="-2.56333">
        <ele>86</ele>
        <time>2023-10-31T01:24:33Z</time>
      </trkpt>
      <trkpt lat="47.64666" lon="-2.56343">
        <ele>87</ele>
        <time>2023-10-31T01:25:24Z</time>
      </trkpt>
      <trkpt lat="47.64663" lon="-2.56321">
        <ele>90</ele>
        <time>2023-10-31T01:25:45Z</time>
      </trkpt>
      <trkpt lat="47.6464" lon="-2.56309">
        <ele>89</ele>
        <time>2023-10-31T01:26:17Z</time>
      </trkpt>
      <trkpt lat="47.64662" lon="-2.56256">
        <ele>97</ele>
        <time>2023-10-31T01:27:13Z</time>
      </trkpt>
      <trkpt lat="47.64661" lon="-2.56205">
        <ele>99</ele>
        <time>2023-10-31T01:27:59Z</time>
      </trkpt>
      <trkpt lat="47.64643" lon="-2.56185">
        <ele>98</ele>
        <time>2023-10-31T01:28:29Z</time>
      </trkpt>
      <trkpt lat="47.64621" lon="-2.56078">
        <ele>100</ele>
        <time>2023-10-31T01:30:10Z</time>
      </trkpt>
      <trkpt lat="47.64625" lon="-2.56054">
        <ele>101</ele>
        <time>2023-10-31T01:30:32Z</time>
      </trkpt>
      <trkpt lat="47.64565" lon="-2.55929">
        <ele>105</ele>
        <time>2023-10-31T01:32:50Z</time>
      </trkpt>
      <trkpt lat="47.64496" lon="-2.55756">
        <ele>106</ele>
        <time>2023-10-31T01:35:50Z</time>
      </trkpt>
      <trkpt lat="47.64398" lon="-2.55691">
        <ele>100</ele>
        <time>2023-10-31T01:38:14Z</time>
      </trkpt>
    </trkseg>
  </trk>
  <trk>
    <name><![CDATA[GRPvannesJ6_LeCoursRochefortT_19.9km-12438601]]></name>
    <extensions>
      <line xmlns="http://www.topografix.com/GPX/gpx_style/0/2">
        <color>00FFFF</color>
        <width>4</width>
      </line>
    </extensions>
    <trkseg>
      <trkpt lat="47.74134" lon="-2.50106">
        <ele>85</ele>
        <time>2023-10-30T18:02:14Z</time>
      </trkpt>
      <trkpt lat="47.74149" lon="-2.5011">
        <ele>86</ele>
        <time>2023-10-30T18:02:34Z</time>
      </trkpt>
      <trkpt lat="47.74131" lon="-2.50105">
        <ele>85</ele>
        <time>2023-10-30T18:02:59Z</time>
      </trkpt>
      <trkpt lat="47.74166" lon="-2.50112">
        <ele>86</ele>
        <time>2023-10-30T18:03:46Z</time>
      </trkpt>
      <trkpt lat="47.74143" lon="-2.50123">
        <ele>86</ele>
        <time>2023-10-30T18:04:18Z</time>
      </trkpt>
      <trkpt lat="47.74122" lon="-2.50088">
        <ele>85</ele>
        <time>2023-10-30T18:05:00Z</time>
      </trkpt>
      <trkpt lat="47.74108" lon="-2.49996">
        <ele>84</ele>
        <time>2023-10-30T18:06:25Z</time>
      </trkpt>
      <trkpt lat="47.74061" lon="-2.49939">
        <ele>81</ele>
        <time>2023-10-30T18:07:46Z</time>
      </trkpt>
      <trkpt lat="47.7404" lon="-2.49923">
        <ele>80</ele>
        <time>2023-10-30T18:08:17Z</time>
      </trkpt>
      <trkpt lat="47.74025" lon="-2.49908">
        <ele>79</ele>
        <time>2023-10-30T18:08:41Z</time>
      </trkpt>
      <trkpt lat="47.74014" lon="-2.49906">
        <ele>78</ele>
        <time>2023-10-30T18:08:56Z</time>
      </trkpt>
      <trkpt lat="47.74021" lon="-2.49868">
        <ele>78</ele>
        <time>2023-10-30T18:09:32Z</time>
      </trkpt>
      <trkpt lat="47.74036" lon="-2.49865">
        <ele>78</ele>
        <time>2023-10-30T18:09:52Z</time>
      </trkpt>
      <trkpt lat="47.7403" lon="-2.49759">
        <ele>72</ele>
        <time>2023-10-30T18:11:27Z</time>
      </trkpt>
      <trkpt lat="47.74028" lon="-2.49749">
        <ele>72</ele>
        <time>2023-10-30T18:11:37Z</time>
      </trkpt>
      <trkpt lat="47.74016" lon="-2.49729">
        <ele>70</ele>
        <time>2023-10-30T18:12:01Z</time>
      </trkpt>
      <trkpt lat="47.74013" lon="-2.49669">
        <ele>64</ele>
        <time>2023-10-30T18:12:55Z</time>
      </trkpt>
      <trkpt lat="47.74022" lon="-2.49658">
        <ele>64</ele>
        <time>2023-10-30T18:13:10Z</time>
      </trkpt>
      <trkpt lat="47.74021" lon="-2.49651">
        <ele>64</ele>
        <time>2023-10-30T18:13:17Z</time>
      </trkpt>
      <trkpt lat="47.74025" lon="-2.49634">
        <ele>63</ele>
        <time>2023-10-30T18:13:33Z</time>
      </trkpt>
      <trkpt lat="47.74028" lon="-2.49595">
        <ele>62</ele>
        <time>2023-10-30T18:14:08Z</time>
      </trkpt>
      <trkpt lat="47.74015" lon="-2.49576">
        <ele>62</ele>
        <time>2023-10-30T18:14:32Z</time>
      </trkpt>
      <trkpt lat="47.7404" lon="-2.4957">
        <ele>63</ele>
        <time>2023-10-30T18:15:06Z</time>
      </trkpt>
      <trkpt lat="47.74053" lon="-2.49588">
        <ele>62</ele>
        <time>2023-10-30T18:15:30Z</time>
      </trkpt>
      <trkpt lat="47.74082" lon="-2.49655">
        <ele>64</ele>
        <time>2023-10-30T18:16:41Z</time>
      </trkpt>
      <trkpt lat="47.74093" lon="-2.49675">
        <ele>65</ele>
        <time>2023-10-30T18:17:05Z</time>
      </trkpt>
      <trkpt lat="47.74107" lon="-2.49693">
        <ele>66</ele>
        <time>2023-10-30T18:17:29Z</time>
      </trkpt>
      <trkpt lat="47.74122" lon="-2.49702">
        <ele>67</ele>
        <time>2023-10-30T18:17:51Z</time>
      </trkpt>
      <trkpt lat="47.74183" lon="-2.49706">
        <ele>67</ele>
        <time>2023-10-30T18:19:12Z</time>
      </trkpt>
      <trkpt lat="47.74204" lon="-2.49683">
        <ele>67</ele>
        <time>2023-10-30T18:19:47Z</time>
      </trkpt>
      <trkpt lat="47.74222" lon="-2.49678">
        <ele>67</ele>
        <time>2023-10-30T18:20:12Z</time>
      </trkpt>
      <trkpt lat="47.74263" lon="-2.49648">
        <ele>69</ele>
        <time>2023-10-30T18:21:12Z</time>
      </trkpt>
      <trkpt lat="47.74303" lon="-2.4961">
        <ele>72</ele>
        <time>2023-10-30T18:22:16Z</time>
      </trkpt>
      <trkpt lat="47.74325" lon="-2.49585">
        <ele>73</ele>
        <time>2023-10-30T18:22:53Z</time>
      </trkpt>
      <trkpt lat="47.74355" lon="-2.49566">
        <ele>74</ele>
        <time>2023-10-30T18:23:36Z</time>
      </trkpt>
      <trkpt lat="47.74419" lon="-2.49534">
        <ele>75</ele>
        <time>2023-10-30T18:25:06Z</time>
      </trkpt>
      <trkpt lat="47.74452" lon="-2.49541">
        <ele>73</ele>
        <time>2023-10-30T18:25:51Z</time>
      </trkpt>
      <trkpt lat="47.74486" lon="-2.49568">
        <ele>70</ele>
        <time>2023-10-30T18:26:42Z</time>
      </trkpt>
      <trkpt lat="47.74489" lon="-2.49567">
        <ele>70</ele>
        <time>2023-10-30T18:26:46Z</time>
      </trkpt>
      <trkpt lat="47.74482" lon="-2.49481">
        <ele>76</ele>
        <time>2023-10-30T18:28:04Z</time>
      </trkpt>
      <trkpt lat="47.74456" lon="-2.4943">
        <ele>81</ele>
        <time>2023-10-30T18:29:02Z</time>
      </trkpt>
      <trkpt lat="47.74473" lon="-2.49395">
        <ele>82</ele>
        <time>2023-10-30T18:29:40Z</time>
      </trkpt>
      <trkpt lat="47.74456" lon="-2.4909">
        <ele>82</ele>
        <time>2023-10-30T18:34:15Z</time>
      </trkpt>
      <trkpt lat="47.74446" lon="-2.48959">
        <ele>83</ele>
        <time>2023-10-30T18:36:13Z</time>
      </trkpt>
      <trkpt lat="47.74395" lon="-2.48927">
        <ele>83</ele>
        <time>2023-10-30T18:37:27Z</time>
      </trkpt>
      <trkpt lat="47.74352" lon="-2.48908">
        <ele>84</ele>
        <time>2023-10-30T18:38:27Z</time>
      </trkpt>
      <trkpt lat="47.7433" lon="-2.48911">
        <ele>83</ele>
        <time>2023-10-30T18:38:56Z</time>
      </trkpt>
      <trkpt lat="47.74277" lon="-2.4896">
        <ele>82</ele>
        <time>2023-10-30T18:40:20Z</time>
      </trkpt>
      <trkpt lat="47.7412" lon="-2.49219">
        <ele>76</ele>
        <time>2023-10-30T18:45:33Z</time>
      </trkpt>
      <trkpt lat="47.74101" lon="-2.49234">
        <ele>76</ele>
        <time>2023-10-30T18:46:01Z</time>
      </trkpt>
      <trkpt lat="47.7405" lon="-2.4926">
        <ele>76</ele>
        <time>2023-10-30T18:47:13Z</time>
      </trkpt>
      <trkpt lat="47.74024" lon="-2.49314">
        <ele>75</ele>
        <time>2023-10-30T18:48:13Z</time>
      </trkpt>
      <trkpt lat="47.74002" lon="-2.49353">
        <ele>75</ele>
        <time>2023-10-30T18:48:59Z</time>
      </trkpt>
      <trkpt lat="47.73942" lon="-2.49387">
        <ele>76</ele>
        <time>2023-10-30T18:50:24Z</time>
      </trkpt>
      <trkpt lat="47.73933" lon="-2.49276">
        <ele>77</ele>
        <time>2023-10-30T18:52:05Z</time>
      </trkpt>
      <trkpt lat="47.73927" lon="-2.49138">
        <ele>81</ele>
        <time>2023-10-30T18:54:09Z</time>
      </trkpt>
      <trkpt lat="47.73905" lon="-2.49019">
        <ele>85</ele>
        <time>2023-10-30T18:55:59Z</time>
      </trkpt>
      <trkpt lat="47.73906" lon="-2.48886">
        <ele>86</ele>
        <time>2023-10-30T18:57:59Z</time>
      </trkpt>
      <trkpt lat="47.73899" lon="-2.48779">
        <ele>85</ele>
        <time>2023-10-30T18:59:35Z</time>
      </trkpt>
      <trkpt lat="47.73887" lon="-2.48726">
        <ele>85</ele>
        <time>2023-10-30T19:00:26Z</time>
      </trkpt>
      <trkpt lat="47.73886" lon="-2.48687">
        <ele>86</ele>
        <time>2023-10-30T19:01:01Z</time>
      </trkpt>
      <trkpt lat="47.73881" lon="-2.48643">
        <ele>86</ele>
        <time>2023-10-30T19:01:41Z</time>
      </trkpt>
      <trkpt lat="47.73882" lon="-2.4855">
        <ele>85</ele>
        <time>2023-10-30T19:03:04Z</time>
      </trkpt>
      <trkpt lat="47.73879" lon="-2.48453">
        <ele>85</ele>
        <time>2023-10-30T19:04:31Z</time>
      </trkpt>
      <trkpt lat="47.73905" lon="-2.48268">
        <ele>79</ele>
        <time>2023-10-30T19:07:21Z</time>
      </trkpt>
      <trkpt lat="47.73922" lon="-2.48183">
        <ele>78</ele>
        <time>2023-10-30T19:08:40Z</time>
      </trkpt>
      <trkpt lat="47.73928" lon="-2.48127">
        <ele>78</ele>
        <time>2023-10-30T19:09:31Z</time>
      </trkpt>
      <trkpt lat="47.73931" lon="-2.48124">
        <ele>78</ele>
        <time>2023-10-30T19:09:36Z</time>
      </trkpt>
      <trkpt lat="47.73929" lon="-2.4811">
        <ele>77</ele>
        <time>2023-10-30T19:09:49Z</time>
      </trkpt>
      <trkpt lat="47.73973" lon="-2.4809">
        <ele>78</ele>
        <time>2023-10-30T19:10:50Z</time>
      </trkpt>
      <trkpt lat="47.74025" lon="-2.48071">
        <ele>79</ele>
        <time>2023-10-30T19:12:02Z</time>
      </trkpt>
      <trkpt lat="47.74089" lon="-2.48032">
        <ele>81</ele>
        <time>2023-10-30T19:13:34Z</time>
      </trkpt>
      <trkpt lat="47.74148" lon="-2.47991">
        <ele>83</ele>
        <time>2023-10-30T19:15:01Z</time>
      </trkpt>
      <trkpt lat="47.74173" lon="-2.4796">
        <ele>82</ele>
        <time>2023-10-30T19:15:44Z</time>
      </trkpt>
      <trkpt lat="47.74186" lon="-2.47915">
        <ele>81</ele>
        <time>2023-10-30T19:16:28Z</time>
      </trkpt>
      <trkpt lat="47.7423" lon="-2.47823">
        <ele>82</ele>
        <time>2023-10-30T19:18:10Z</time>
      </trkpt>
      <trkpt lat="47.74288" lon="-2.4774">
        <ele>85</ele>
        <time>2023-10-30T19:19:57Z</time>
      </trkpt>
      <trkpt lat="47.74314" lon="-2.47695">
        <ele>86</ele>
        <time>2023-10-30T19:20:50Z</time>
      </trkpt>
      <trkpt lat="47.74345" lon="-2.47629">
        <ele>86</ele>
        <time>2023-10-30T19:22:03Z</time>
      </trkpt>
      <trkpt lat="47.7435" lon="-2.47565">
        <ele>86</ele>
        <time>2023-10-30T19:23:00Z</time>
      </trkpt>
      <trkpt lat="47.74337" lon="-2.4751">
        <ele>85</ele>
        <time>2023-10-30T19:23:53Z</time>
      </trkpt>
      <trkpt lat="47.74219" lon="-2.47543">
        <ele>86</ele>
        <time>2023-10-30T19:26:33Z</time>
      </trkpt>
      <trkpt lat="47.74095" lon="-2.47571">
        <ele>90</ele>
        <time>2023-10-30T19:29:20Z</time>
      </trkpt>
      <trkpt lat="47.74023" lon="-2.47277">
        <ele>93</ele>
        <time>2023-10-30T19:34:01Z</time>
      </trkpt>
      <trkpt lat="47.7401" lon="-2.47212">
        <ele>93</ele>
        <time>2023-10-30T19:35:02Z</time>
      </trkpt>
      <trkpt lat="47.74006" lon="-2.47149">
        <ele>94</ele>
        <time>2023-10-30T19:35:59Z</time>
      </trkpt>
      <trkpt lat="47.74019" lon="-2.471">
        <ele>96</ele>
        <time>2023-10-30T19:36:46Z</time>
      </trkpt>
      <trkpt lat="47.74081" lon="-2.46912">
        <ele>94</ele>
        <time>2023-10-30T19:39:54Z</time>
      </trkpt>
      <trkpt lat="47.73963" lon="-2.46841">
        <ele>101</ele>
        <time>2023-10-30T19:42:44Z</time>
      </trkpt>
      <trkpt lat="47.73971" lon="-2.46765">
        <ele>102</ele>
        <time>2023-10-30T19:43:53Z</time>
      </trkpt>
      <trkpt lat="47.73974" lon="-2.46705">
        <ele>102</ele>
        <time>2023-10-30T19:44:47Z</time>
      </trkpt>
      <trkpt lat="47.73973" lon="-2.46663">
        <ele>103</ele>
        <time>2023-10-30T19:45:25Z</time>
      </trkpt>
      <trkpt lat="47.73965" lon="-2.46638">
        <ele>103</ele>
        <time>2023-10-30T19:45:49Z</time>
      </trkpt>
      <trkpt lat="47.73971" lon="-2.46593">
        <ele>102</ele>
        <time>2023-10-30T19:46:31Z</time>
      </trkpt>
      <trkpt lat="47.73971" lon="-2.46574">
        <ele>102</ele>
        <time>2023-10-30T19:46:48Z</time>
      </trkpt>
      <trkpt lat="47.73927" lon="-2.46546">
        <ele>104</ele>
        <time>2023-10-30T19:47:52Z</time>
      </trkpt>
      <trkpt lat="47.73887" lon="-2.46513">
        <ele>104</ele>
        <time>2023-10-30T19:48:53Z</time>
      </trkpt>
      <trkpt lat="47.73823" lon="-2.46474">
        <ele>103</ele>
        <time>2023-10-30T19:50:25Z</time>
      </trkpt>
      <trkpt lat="47.73781" lon="-2.46467">
        <ele>101</ele>
        <time>2023-10-30T19:51:21Z</time>
      </trkpt>
      <trkpt lat="47.73765" lon="-2.46469">
        <ele>101</ele>
        <time>2023-10-30T19:51:43Z</time>
      </trkpt>
      <trkpt lat="47.73742" lon="-2.4648">
        <ele>99</ele>
        <time>2023-10-30T19:52:15Z</time>
      </trkpt>
      <trkpt lat="47.73733" lon="-2.46429">
        <ele>98</ele>
        <time>2023-10-30T19:53:02Z</time>
      </trkpt>
      <trkpt lat="47.73727" lon="-2.46355">
        <ele>96</ele>
        <time>2023-10-30T19:54:09Z</time>
      </trkpt>
      <trkpt lat="47.73728" lon="-2.46262">
        <ele>95</ele>
        <time>2023-10-30T19:55:33Z</time>
      </trkpt>
      <trkpt lat="47.73726" lon="-2.46248">
        <ele>94</ele>
        <time>2023-10-30T19:55:45Z</time>
      </trkpt>
      <trkpt lat="47.73714" lon="-2.46214">
        <ele>95</ele>
        <time>2023-10-30T19:56:20Z</time>
      </trkpt>
      <trkpt lat="47.73714" lon="-2.46196">
        <ele>95</ele>
        <time>2023-10-30T19:56:36Z</time>
      </trkpt>
      <trkpt lat="47.73693" lon="-2.46153">
        <ele>96</ele>
        <time>2023-10-30T19:57:24Z</time>
      </trkpt>
      <trkpt lat="47.73693" lon="-2.46135">
        <ele>96</ele>
        <time>2023-10-30T19:57:40Z</time>
      </trkpt>
      <trkpt lat="47.73697" lon="-2.46127">
        <ele>96</ele>
        <time>2023-10-30T19:57:49Z</time>
      </trkpt>
      <trkpt lat="47.73695" lon="-2.46102">
        <ele>96</ele>
        <time>2023-10-30T19:58:11Z</time>
      </trkpt>
      <trkpt lat="47.73691" lon="-2.46091">
        <ele>96</ele>
        <time>2023-10-30T19:58:23Z</time>
      </trkpt>
      <trkpt lat="47.7369" lon="-2.46064">
        <ele>96</ele>
        <time>2023-10-30T19:58:47Z</time>
      </trkpt>
      <trkpt lat="47.73696" lon="-2.4605">
        <ele>95</ele>
        <time>2023-10-30T19:59:02Z</time>
      </trkpt>
      <trkpt lat="47.73714" lon="-2.46035">
        <ele>95</ele>
        <time>2023-10-30T19:59:29Z</time>
      </trkpt>
      <trkpt lat="47.73715" lon="-2.46019">
        <ele>95</ele>
        <time>2023-10-30T19:59:44Z</time>
      </trkpt>
      <trkpt lat="47.73721" lon="-2.46004">
        <ele>95</ele>
        <time>2023-10-30T19:59:59Z</time>
      </trkpt>
      <trkpt lat="47.73705" lon="-2.45954">
        <ele>93</ele>
        <time>2023-10-30T20:00:49Z</time>
      </trkpt>
      <trkpt lat="47.73684" lon="-2.45902">
        <ele>91</ele>
        <time>2023-10-30T20:01:44Z</time>
      </trkpt>
      <trkpt lat="47.73665" lon="-2.45912">
        <ele>91</ele>
        <time>2023-10-30T20:02:11Z</time>
      </trkpt>
      <trkpt lat="47.73599" lon="-2.45933">
        <ele>90</ele>
        <time>2023-10-30T20:03:41Z</time>
      </trkpt>
      <trkpt lat="47.73531" lon="-2.4594">
        <ele>89</ele>
        <time>2023-10-30T20:05:12Z</time>
      </trkpt>
      <trkpt lat="47.73477" lon="-2.45935">
        <ele>88</ele>
        <time>2023-10-30T20:06:24Z</time>
      </trkpt>
      <trkpt lat="47.73484" lon="-2.45902">
        <ele>88</ele>
        <time>2023-10-30T20:06:55Z</time>
      </trkpt>
      <trkpt lat="47.7352" lon="-2.45799">
        <ele>86</ele>
        <time>2023-10-30T20:08:39Z</time>
      </trkpt>
      <trkpt lat="47.73531" lon="-2.45756">
        <ele>85</ele>
        <time>2023-10-30T20:09:20Z</time>
      </trkpt>
      <trkpt lat="47.73533" lon="-2.45703">
        <ele>85</ele>
        <time>2023-10-30T20:10:08Z</time>
      </trkpt>
      <trkpt lat="47.73527" lon="-2.45639">
        <ele>85</ele>
        <time>2023-10-30T20:11:06Z</time>
      </trkpt>
      <trkpt lat="47.73527" lon="-2.45586">
        <ele>86</ele>
        <time>2023-10-30T20:11:53Z</time>
      </trkpt>
      <trkpt lat="47.73525" lon="-2.45569">
        <ele>86</ele>
        <time>2023-10-30T20:12:09Z</time>
      </trkpt>
      <trkpt lat="47.73493" lon="-2.45579">
        <ele>87</ele>
        <time>2023-10-30T20:12:53Z</time>
      </trkpt>
      <trkpt lat="47.73472" lon="-2.45594">
        <ele>86</ele>
        <time>2023-10-30T20:13:24Z</time>
      </trkpt>
      <trkpt lat="47.73436" lon="-2.45591">
        <ele>86</ele>
        <time>2023-10-30T20:14:12Z</time>
      </trkpt>
      <trkpt lat="47.73395" lon="-2.45617">
        <ele>85</ele>
        <time>2023-10-30T20:15:11Z</time>
      </trkpt>
      <trkpt lat="47.73342" lon="-2.45636">
        <ele>82</ele>
        <time>2023-10-30T20:16:24Z</time>
      </trkpt>
      <trkpt lat="47.73302" lon="-2.45672">
        <ele>79</ele>
        <time>2023-10-30T20:17:26Z</time>
      </trkpt>
      <trkpt lat="47.73243" lon="-2.45694">
        <ele>75</ele>
        <time>2023-10-30T20:18:48Z</time>
      </trkpt>
      <trkpt lat="47.73192" lon="-2.45662">
        <ele>74</ele>
        <time>2023-10-30T20:20:01Z</time>
      </trkpt>
      <trkpt lat="47.7316" lon="-2.45633">
        <ele>73</ele>
        <time>2023-10-30T20:20:51Z</time>
      </trkpt>
      <trkpt lat="47.73105" lon="-2.45544">
        <ele>70</ele>
        <time>2023-10-30T20:22:40Z</time>
      </trkpt>
      <trkpt lat="47.73061" lon="-2.4552">
        <ele>69</ele>
        <time>2023-10-30T20:23:43Z</time>
      </trkpt>
      <trkpt lat="47.73" lon="-2.45458">
        <ele>70</ele>
        <time>2023-10-30T20:25:21Z</time>
      </trkpt>
      <trkpt lat="47.72991" lon="-2.4524">
        <ele>68</ele>
        <time>2023-10-30T20:28:37Z</time>
      </trkpt>
      <trkpt lat="47.72978" lon="-2.45119">
        <ele>65</ele>
        <time>2023-10-30T20:30:27Z</time>
      </trkpt>
      <trkpt lat="47.72978" lon="-2.45055">
        <ele>66</ele>
        <time>2023-10-30T20:31:25Z</time>
      </trkpt>
      <trkpt lat="47.72973" lon="-2.44961">
        <ele>67</ele>
        <time>2023-10-30T20:32:49Z</time>
      </trkpt>
      <trkpt lat="47.72956" lon="-2.44846">
        <ele>70</ele>
        <time>2023-10-30T20:34:35Z</time>
      </trkpt>
      <trkpt lat="47.72951" lon="-2.44619">
        <ele>80</ele>
        <time>2023-10-30T20:37:59Z</time>
      </trkpt>
      <trkpt lat="47.72963" lon="-2.44354">
        <ele>79</ele>
        <time>2023-10-30T20:41:57Z</time>
      </trkpt>
      <trkpt lat="47.72976" lon="-2.44214">
        <ele>75</ele>
        <time>2023-10-30T20:44:04Z</time>
      </trkpt>
      <trkpt lat="47.73014" lon="-2.43975">
        <ele>69</ele>
        <time>2023-10-30T20:47:44Z</time>
      </trkpt>
      <trkpt lat="47.73036" lon="-2.4387">
        <ele>65</ele>
        <time>2023-10-30T20:49:23Z</time>
      </trkpt>
      <trkpt lat="47.73044" lon="-2.43813">
        <ele>68</ele>
        <time>2023-10-30T20:50:15Z</time>
      </trkpt>
      <trkpt lat="47.73064" lon="-2.43788">
        <ele>70</ele>
        <time>2023-10-30T20:50:50Z</time>
      </trkpt>
      <trkpt lat="47.73071" lon="-2.43581">
        <ele>81</ele>
        <time>2023-10-30T20:53:56Z</time>
      </trkpt>
      <trkpt lat="47.7307" lon="-2.43548">
        <ele>83</ele>
        <time>2023-10-30T20:54:26Z</time>
      </trkpt>
      <trkpt lat="47.73027" lon="-2.43534">
        <ele>83</ele>
        <time>2023-10-30T20:55:25Z</time>
      </trkpt>
      <trkpt lat="47.73026" lon="-2.43507">
        <ele>84</ele>
        <time>2023-10-30T20:55:49Z</time>
      </trkpt>
      <trkpt lat="47.73031" lon="-2.43514">
        <ele>84</ele>
        <time>2023-10-30T20:55:58Z</time>
      </trkpt>
      <trkpt lat="47.73017" lon="-2.43516">
        <ele>84</ele>
        <time>2023-10-30T20:56:17Z</time>
      </trkpt>
      <trkpt lat="47.72977" lon="-2.43503">
        <ele>82</ele>
        <time>2023-10-30T20:57:12Z</time>
      </trkpt>
      <trkpt lat="47.72831" lon="-2.43493">
        <ele>74</ele>
        <time>2023-10-30T21:00:27Z</time>
      </trkpt>
      <trkpt lat="47.72719" lon="-2.43536">
        <ele>70</ele>
        <time>2023-10-30T21:03:01Z</time>
      </trkpt>
      <trkpt lat="47.72479" lon="-2.43675">
        <ele>62</ele>
        <time>2023-10-30T21:08:45Z</time>
      </trkpt>
      <trkpt lat="47.72403" lon="-2.43715">
        <ele>58</ele>
        <time>2023-10-30T21:10:32Z</time>
      </trkpt>
      <trkpt lat="47.72372" lon="-2.43745">
        <ele>57</ele>
        <time>2023-10-30T21:11:22Z</time>
      </trkpt>
      <trkpt lat="47.72329" lon="-2.43821">
        <ele>52</ele>
        <time>2023-10-30T21:12:51Z</time>
      </trkpt>
      <trkpt lat="47.72273" lon="-2.43856">
        <ele>46</ele>
        <time>2023-10-30T21:14:12Z</time>
      </trkpt>
      <trkpt lat="47.7218" lon="-2.43881">
        <ele>40</ele>
        <time>2023-10-30T21:16:18Z</time>
      </trkpt>
      <trkpt lat="47.72138" lon="-2.43921">
        <ele>33</ele>
        <time>2023-10-30T21:17:25Z</time>
      </trkpt>
      <trkpt lat="47.72117" lon="-2.43919">
        <ele>31</ele>
        <time>2023-10-30T21:17:53Z</time>
      </trkpt>
      <trkpt lat="47.72102" lon="-2.43854">
        <ele>33</ele>
        <time>2023-10-30T21:18:54Z</time>
      </trkpt>
      <trkpt lat="47.72073" lon="-2.43688">
        <ele>33</ele>
        <time>2023-10-30T21:21:28Z</time>
      </trkpt>
      <trkpt lat="47.72043" lon="-2.43589">
        <ele>32</ele>
        <time>2023-10-30T21:23:06Z</time>
      </trkpt>
      <trkpt lat="47.72007" lon="-2.43489">
        <ele>31</ele>
        <time>2023-10-30T21:24:48Z</time>
      </trkpt>
      <trkpt lat="47.71984" lon="-2.4344">
        <ele>29</ele>
        <time>2023-10-30T21:25:41Z</time>
      </trkpt>
      <trkpt lat="47.71944" lon="-2.43416">
        <ele>28</ele>
        <time>2023-10-30T21:26:39Z</time>
      </trkpt>
      <trkpt lat="47.71874" lon="-2.43363">
        <ele>27</ele>
        <time>2023-10-30T21:28:24Z</time>
      </trkpt>
      <trkpt lat="47.7184" lon="-2.43327">
        <ele>24</ele>
        <time>2023-10-30T21:29:19Z</time>
      </trkpt>
      <trkpt lat="47.71773" lon="-2.43244">
        <ele>25</ele>
        <time>2023-10-30T21:31:16Z</time>
      </trkpt>
      <trkpt lat="47.71738" lon="-2.43181">
        <ele>26</ele>
        <time>2023-10-30T21:32:29Z</time>
      </trkpt>
      <trkpt lat="47.71728" lon="-2.4308">
        <ele>27</ele>
        <time>2023-10-30T21:34:01Z</time>
      </trkpt>
      <trkpt lat="47.71734" lon="-2.42883">
        <ele>27</ele>
        <time>2023-10-30T21:36:58Z</time>
      </trkpt>
      <trkpt lat="47.71744" lon="-2.42704">
        <ele>28</ele>
        <time>2023-10-30T21:39:39Z</time>
      </trkpt>
      <trkpt lat="47.71744" lon="-2.4265">
        <ele>28</ele>
        <time>2023-10-30T21:40:28Z</time>
      </trkpt>
      <trkpt lat="47.71724" lon="-2.42579">
        <ele>26</ele>
        <time>2023-10-30T21:41:37Z</time>
      </trkpt>
      <trkpt lat="47.71707" lon="-2.425">
        <ele>26</ele>
        <time>2023-10-30T21:42:51Z</time>
      </trkpt>
      <trkpt lat="47.71691" lon="-2.42462">
        <ele>26</ele>
        <time>2023-10-30T21:43:31Z</time>
      </trkpt>
      <trkpt lat="47.71681" lon="-2.42414">
        <ele>26</ele>
        <time>2023-10-30T21:44:16Z</time>
      </trkpt>
      <trkpt lat="47.71684" lon="-2.42355">
        <ele>30</ele>
        <time>2023-10-30T21:45:10Z</time>
      </trkpt>
      <trkpt lat="47.71692" lon="-2.42329">
        <ele>31</ele>
        <time>2023-10-30T21:45:35Z</time>
      </trkpt>
      <trkpt lat="47.71692" lon="-2.42315">
        <ele>33</ele>
        <time>2023-10-30T21:45:48Z</time>
      </trkpt>
      <trkpt lat="47.71679" lon="-2.42301">
        <ele>34</ele>
        <time>2023-10-30T21:46:09Z</time>
      </trkpt>
      <trkpt lat="47.71464" lon="-2.42281">
        <ele>44</ele>
        <time>2023-10-30T21:50:57Z</time>
      </trkpt>
      <trkpt lat="47.71405" lon="-2.4228">
        <ele>46</ele>
        <time>2023-10-30T21:52:15Z</time>
      </trkpt>
      <trkpt lat="47.71349" lon="-2.42268">
        <ele>47</ele>
        <time>2023-10-30T21:53:31Z</time>
      </trkpt>
      <trkpt lat="47.71285" lon="-2.42249">
        <ele>48</ele>
        <time>2023-10-30T21:54:58Z</time>
      </trkpt>
      <trkpt lat="47.71255" lon="-2.42216">
        <ele>49</ele>
        <time>2023-10-30T21:55:48Z</time>
      </trkpt>
      <trkpt lat="47.71188" lon="-2.42193">
        <ele>51</ele>
        <time>2023-10-30T21:57:20Z</time>
      </trkpt>
      <trkpt lat="47.71106" lon="-2.42153">
        <ele>52</ele>
        <time>2023-10-30T21:59:15Z</time>
      </trkpt>
      <trkpt lat="47.7104" lon="-2.42113">
        <ele>52</ele>
        <time>2023-10-30T22:00:50Z</time>
      </trkpt>
      <trkpt lat="47.70976" lon="-2.42084">
        <ele>53</ele>
        <time>2023-10-30T22:02:19Z</time>
      </trkpt>
      <trkpt lat="47.70908" lon="-2.42041">
        <ele>57</ele>
        <time>2023-10-30T22:03:58Z</time>
      </trkpt>
      <trkpt lat="47.70882" lon="-2.42022">
        <ele>59</ele>
        <time>2023-10-30T22:04:36Z</time>
      </trkpt>
      <trkpt lat="47.70892" lon="-2.42">
        <ele>58</ele>
        <time>2023-10-30T22:05:00Z</time>
      </trkpt>
      <trkpt lat="47.7087" lon="-2.41991">
        <ele>60</ele>
        <time>2023-10-30T22:05:31Z</time>
      </trkpt>
      <trkpt lat="47.70895" lon="-2.4197">
        <ele>61</ele>
        <time>2023-10-30T22:06:09Z</time>
      </trkpt>
      <trkpt lat="47.70873" lon="-2.41958">
        <ele>64</ele>
        <time>2023-10-30T22:06:40Z</time>
      </trkpt>
      <trkpt lat="47.70892" lon="-2.41933">
        <ele>65</ele>
        <time>2023-10-30T22:07:14Z</time>
      </trkpt>
      <trkpt lat="47.70903" lon="-2.41897">
        <ele>67</ele>
        <time>2023-10-30T22:07:50Z</time>
      </trkpt>
      <trkpt lat="47.70907" lon="-2.41784">
        <ele>74</ele>
        <time>2023-10-30T22:09:31Z</time>
      </trkpt>
      <trkpt lat="47.70895" lon="-2.41753">
        <ele>77</ele>
        <time>2023-10-30T22:10:03Z</time>
      </trkpt>
      <trkpt lat="47.70895" lon="-2.41693">
        <ele>79</ele>
        <time>2023-10-30T22:10:57Z</time>
      </trkpt>
      <trkpt lat="47.70921" lon="-2.41605">
        <ele>74</ele>
        <time>2023-10-30T22:12:24Z</time>
      </trkpt>
      <trkpt lat="47.70946" lon="-2.41544">
        <ele>70</ele>
        <time>2023-10-30T22:13:28Z</time>
      </trkpt>
      <trkpt lat="47.70961" lon="-2.41515">
        <ele>67</ele>
        <time>2023-10-30T22:14:01Z</time>
      </trkpt>
      <trkpt lat="47.70962" lon="-2.41432">
        <ele>67</ele>
        <time>2023-10-30T22:15:15Z</time>
      </trkpt>
      <trkpt lat="47.70956" lon="-2.41358">
        <ele>65</ele>
        <time>2023-10-30T22:16:22Z</time>
      </trkpt>
      <trkpt lat="47.70976" lon="-2.4125">
        <ele>58</ele>
        <time>2023-10-30T22:18:03Z</time>
      </trkpt>
      <trkpt lat="47.7098" lon="-2.41173">
        <ele>55</ele>
        <time>2023-10-30T22:19:12Z</time>
      </trkpt>
      <trkpt lat="47.71003" lon="-2.41052">
        <ele>50</ele>
        <time>2023-10-30T22:21:05Z</time>
      </trkpt>
      <trkpt lat="47.70987" lon="-2.40987">
        <ele>50</ele>
        <time>2023-10-30T22:22:07Z</time>
      </trkpt>
      <trkpt lat="47.70992" lon="-2.40924">
        <ele>47</ele>
        <time>2023-10-30T22:23:04Z</time>
      </trkpt>
      <trkpt lat="47.71016" lon="-2.40786">
        <ele>40</ele>
        <time>2023-10-30T22:25:12Z</time>
      </trkpt>
      <trkpt lat="47.71029" lon="-2.40731">
        <ele>37</ele>
        <time>2023-10-30T22:26:04Z</time>
      </trkpt>
      <trkpt lat="47.7103" lon="-2.40704">
        <ele>36</ele>
        <time>2023-10-30T22:26:29Z</time>
      </trkpt>
      <trkpt lat="47.71105" lon="-2.40691">
        <ele>32</ele>
        <time>2023-10-30T22:28:09Z</time>
      </trkpt>
      <trkpt lat="47.71084" lon="-2.40655">
        <ele>32</ele>
        <time>2023-10-30T22:28:52Z</time>
      </trkpt>
      <trkpt lat="47.71016" lon="-2.40499">
        <ele>27</ele>
        <time>2023-10-30T22:31:39Z</time>
      </trkpt>
      <trkpt lat="47.70965" lon="-2.40418">
        <ele>29</ele>
        <time>2023-10-30T22:33:19Z</time>
      </trkpt>
      <trkpt lat="47.70918" lon="-2.40373">
        <ele>32</ele>
        <time>2023-10-30T22:34:33Z</time>
      </trkpt>
      <trkpt lat="47.7083" lon="-2.40209">
        <ele>41</ele>
        <time>2023-10-30T22:37:42Z</time>
      </trkpt>
      <trkpt lat="47.70831" lon="-2.40119">
        <ele>43</ele>
        <time>2023-10-30T22:39:03Z</time>
      </trkpt>
      <trkpt lat="47.70811" lon="-2.4005">
        <ele>45</ele>
        <time>2023-10-30T22:40:10Z</time>
      </trkpt>
      <trkpt lat="47.70691" lon="-2.39856">
        <ele>57</ele>
        <time>2023-10-30T22:44:07Z</time>
      </trkpt>
      <trkpt lat="47.70644" lon="-2.39735">
        <ele>63</ele>
        <time>2023-10-30T22:46:12Z</time>
      </trkpt>
      <trkpt lat="47.70638" lon="-2.39674">
        <ele>65</ele>
        <time>2023-10-30T22:47:07Z</time>
      </trkpt>
      <trkpt lat="47.70647" lon="-2.39438">
        <ele>63</ele>
        <time>2023-10-30T22:50:40Z</time>
      </trkpt>
      <trkpt lat="47.70633" lon="-2.39167">
        <ele>75</ele>
        <time>2023-10-30T22:54:44Z</time>
      </trkpt>
      <trkpt lat="47.70614" lon="-2.39078">
        <ele>78</ele>
        <time>2023-10-30T22:56:08Z</time>
      </trkpt>
      <trkpt lat="47.70607" lon="-2.39031">
        <ele>80</ele>
        <time>2023-10-30T22:56:51Z</time>
      </trkpt>
      <trkpt lat="47.70582" lon="-2.38982">
        <ele>84</ele>
        <time>2023-10-30T22:57:46Z</time>
      </trkpt>
      <trkpt lat="47.70546" lon="-2.38942">
        <ele>84</ele>
        <time>2023-10-30T22:58:46Z</time>
      </trkpt>
      <trkpt lat="47.70574" lon="-2.38844">
        <ele>88</ele>
        <time>2023-10-30T23:00:22Z</time>
      </trkpt>
      <trkpt lat="47.70598" lon="-2.38738">
        <ele>87</ele>
        <time>2023-10-30T23:02:02Z</time>
      </trkpt>
      <trkpt lat="47.70606" lon="-2.38682">
        <ele>83</ele>
        <time>2023-10-30T23:02:53Z</time>
      </trkpt>
      <trkpt lat="47.70593" lon="-2.38626">
        <ele>81</ele>
        <time>2023-10-30T23:03:47Z</time>
      </trkpt>
      <trkpt lat="47.70642" lon="-2.38517">
        <ele>79</ele>
        <time>2023-10-30T23:05:44Z</time>
      </trkpt>
      <trkpt lat="47.70661" lon="-2.38452">
        <ele>80</ele>
        <time>2023-10-30T23:06:48Z</time>
      </trkpt>
      <trkpt lat="47.7066" lon="-2.3839">
        <ele>79</ele>
        <time>2023-10-30T23:07:44Z</time>
      </trkpt>
      <trkpt lat="47.70693" lon="-2.38261">
        <ele>77</ele>
        <time>2023-10-30T23:09:48Z</time>
      </trkpt>
      <trkpt lat="47.70701" lon="-2.38145">
        <ele>78</ele>
        <time>2023-10-30T23:11:32Z</time>
      </trkpt>
      <trkpt lat="47.70726" lon="-2.38125">
        <ele>81</ele>
        <time>2023-10-30T23:12:10Z</time>
      </trkpt>
      <trkpt lat="47.7075" lon="-2.37976">
        <ele>83</ele>
        <time>2023-10-30T23:14:28Z</time>
      </trkpt>
      <trkpt lat="47.7074" lon="-2.37788">
        <ele>81</ele>
        <time>2023-10-30T23:17:17Z</time>
      </trkpt>
      <trkpt lat="47.70728" lon="-2.37625">
        <ele>79</ele>
        <time>2023-10-30T23:19:44Z</time>
      </trkpt>
      <trkpt lat="47.70729" lon="-2.37467">
        <ele>82</ele>
        <time>2023-10-30T23:22:06Z</time>
      </trkpt>
      <trkpt lat="47.70761" lon="-2.37366">
        <ele>80</ele>
        <time>2023-10-30T23:23:47Z</time>
      </trkpt>
      <trkpt lat="47.70726" lon="-2.37128">
        <ele>76</ele>
        <time>2023-10-30T23:27:25Z</time>
      </trkpt>
      <trkpt lat="47.70707" lon="-2.36954">
        <ele>70</ele>
        <time>2023-10-30T23:30:04Z</time>
      </trkpt>
      <trkpt lat="47.70678" lon="-2.36933">
        <ele>69</ele>
        <time>2023-10-30T23:30:47Z</time>
      </trkpt>
      <trkpt lat="47.70673" lon="-2.36904">
        <ele>68</ele>
        <time>2023-10-30T23:31:14Z</time>
      </trkpt>
      <trkpt lat="47.70676" lon="-2.36848">
        <ele>70</ele>
        <time>2023-10-30T23:32:04Z</time>
      </trkpt>
      <trkpt lat="47.70675" lon="-2.36808">
        <ele>69</ele>
        <time>2023-10-30T23:32:40Z</time>
      </trkpt>
      <trkpt lat="47.70648" lon="-2.36702">
        <ele>66</ele>
        <time>2023-10-30T23:34:22Z</time>
      </trkpt>
      <trkpt lat="47.70626" lon="-2.36583">
        <ele>66</ele>
        <time>2023-10-30T23:36:13Z</time>
      </trkpt>
      <trkpt lat="47.70621" lon="-2.36536">
        <ele>65</ele>
        <time>2023-10-30T23:36:55Z</time>
      </trkpt>
      <trkpt lat="47.70636" lon="-2.36496">
        <ele>68</ele>
        <time>2023-10-30T23:37:36Z</time>
      </trkpt>
      <trkpt lat="47.70661" lon="-2.3646">
        <ele>73</ele>
        <time>2023-10-30T23:38:23Z</time>
      </trkpt>
      <trkpt lat="47.70688" lon="-2.36375">
        <ele>72</ele>
        <time>2023-10-30T23:39:47Z</time>
      </trkpt>
      <trkpt lat="47.70707" lon="-2.36248">
        <ele>68</ele>
        <time>2023-10-30T23:41:44Z</time>
      </trkpt>
      <trkpt lat="47.70703" lon="-2.36183">
        <ele>68</ele>
        <time>2023-10-30T23:42:43Z</time>
      </trkpt>
      <trkpt lat="47.70707" lon="-2.36148">
        <ele>68</ele>
        <time>2023-10-30T23:43:15Z</time>
      </trkpt>
      <trkpt lat="47.70692" lon="-2.36082">
        <ele>70</ele>
        <time>2023-10-30T23:44:17Z</time>
      </trkpt>
      <trkpt lat="47.70681" lon="-2.35922">
        <ele>74</ele>
        <time>2023-10-30T23:46:42Z</time>
      </trkpt>
      <trkpt lat="47.70661" lon="-2.35842">
        <ele>76</ele>
        <time>2023-10-30T23:47:58Z</time>
      </trkpt>
      <trkpt lat="47.70661" lon="-2.35787">
        <ele>74</ele>
        <time>2023-10-30T23:48:48Z</time>
      </trkpt>
      <trkpt lat="47.70652" lon="-2.35744">
        <ele>73</ele>
        <time>2023-10-30T23:49:28Z</time>
      </trkpt>
      <trkpt lat="47.70623" lon="-2.35677">
        <ele>73</ele>
        <time>2023-10-30T23:50:40Z</time>
      </trkpt>
      <trkpt lat="47.7062" lon="-2.35643">
        <ele>74</ele>
        <time>2023-10-30T23:51:10Z</time>
      </trkpt>
      <trkpt lat="47.70586" lon="-2.35632">
        <ele>76</ele>
        <time>2023-10-30T23:51:57Z</time>
      </trkpt>
      <trkpt lat="47.70565" lon="-2.3561">
        <ele>75</ele>
        <time>2023-10-30T23:52:31Z</time>
      </trkpt>
      <trkpt lat="47.7056" lon="-2.35576">
        <ele>75</ele>
        <time>2023-10-30T23:53:02Z</time>
      </trkpt>
      <trkpt lat="47.70555" lon="-2.35512">
        <ele>72</ele>
        <time>2023-10-30T23:54:00Z</time>
      </trkpt>
      <trkpt lat="47.70535" lon="-2.35474">
        <ele>69</ele>
        <time>2023-10-30T23:54:44Z</time>
      </trkpt>
      <trkpt lat="47.70528" lon="-2.35378">
        <ele>67</ele>
        <time>2023-10-30T23:56:10Z</time>
      </trkpt>
      <trkpt lat="47.70533" lon="-2.35323">
        <ele>68</ele>
        <time>2023-10-30T23:57:00Z</time>
      </trkpt>
      <trkpt lat="47.70553" lon="-2.35288">
        <ele>71</ele>
        <time>2023-10-30T23:57:41Z</time>
      </trkpt>
      <trkpt lat="47.70591" lon="-2.35243">
        <ele>75</ele>
        <time>2023-10-30T23:58:46Z</time>
      </trkpt>
      <trkpt lat="47.70576" lon="-2.3513">
        <ele>74</ele>
        <time>2023-10-31T00:00:30Z</time>
      </trkpt>
      <trkpt lat="47.70568" lon="-2.34999">
        <ele>75</ele>
        <time>2023-10-31T00:02:28Z</time>
      </trkpt>
      <trkpt lat="47.70556" lon="-2.34965">
        <ele>75</ele>
        <time>2023-10-31T00:03:02Z</time>
      </trkpt>
      <trkpt lat="47.7054" lon="-2.34904">
        <ele>75</ele>
        <time>2023-10-31T00:04:01Z</time>
      </trkpt>
      <trkpt lat="47.70523" lon="-2.34862">
        <ele>75</ele>
        <time>2023-10-31T00:04:45Z</time>
      </trkpt>
      <trkpt lat="47.70521" lon="-2.34813">
        <ele>75</ele>
        <time>2023-10-31T00:05:29Z</time>
      </trkpt>
      <trkpt lat="47.70512" lon="-2.34789">
        <ele>75</ele>
        <time>2023-10-31T00:05:54Z</time>
      </trkpt>
      <trkpt lat="47.70493" lon="-2.34791">
        <ele>73</ele>
        <time>2023-10-31T00:06:19Z</time>
      </trkpt>
      <trkpt lat="47.70464" lon="-2.34737">
        <ele>69</ele>
        <time>2023-10-31T00:07:21Z</time>
      </trkpt>
      <trkpt lat="47.70452" lon="-2.34724">
        <ele>67</ele>
        <time>2023-10-31T00:07:41Z</time>
      </trkpt>
      <trkpt lat="47.70448" lon="-2.34692">
        <ele>68</ele>
        <time>2023-10-31T00:08:10Z</time>
      </trkpt>
      <trkpt lat="47.70429" lon="-2.34662">
        <ele>67</ele>
        <time>2023-10-31T00:08:47Z</time>
      </trkpt>
      <trkpt lat="47.70409" lon="-2.346">
        <ele>67</ele>
        <time>2023-10-31T00:09:49Z</time>
      </trkpt>
      <trkpt lat="47.70389" lon="-2.34526">
        <ele>67</ele>
        <time>2023-10-31T00:11:01Z</time>
      </trkpt>
      <trkpt lat="47.70365" lon="-2.34506">
        <ele>63</ele>
        <time>2023-10-31T00:11:37Z</time>
      </trkpt>
      <trkpt lat="47.70362" lon="-2.34466">
        <ele>64</ele>
        <time>2023-10-31T00:12:13Z</time>
      </trkpt>
      <trkpt lat="47.70374" lon="-2.3442">
        <ele>67</ele>
        <time>2023-10-31T00:12:58Z</time>
      </trkpt>
      <trkpt lat="47.70363" lon="-2.34387">
        <ele>66</ele>
        <time>2023-10-31T00:13:31Z</time>
      </trkpt>
      <trkpt lat="47.70366" lon="-2.34333">
        <ele>68</ele>
        <time>2023-10-31T00:14:20Z</time>
      </trkpt>
      <trkpt lat="47.70354" lon="-2.34293">
        <ele>67</ele>
        <time>2023-10-31T00:14:59Z</time>
      </trkpt>
      <trkpt lat="47.70332" lon="-2.34238">
        <ele>66</ele>
        <time>2023-10-31T00:15:56Z</time>
      </trkpt>
      <trkpt lat="47.70339" lon="-2.34163">
        <ele>67</ele>
        <time>2023-10-31T00:17:04Z</time>
      </trkpt>
      <trkpt lat="47.70316" lon="-2.341">
        <ele>67</ele>
        <time>2023-10-31T00:18:09Z</time>
      </trkpt>
      <trkpt lat="47.70294" lon="-2.34076">
        <ele>65</ele>
        <time>2023-10-31T00:18:45Z</time>
      </trkpt>
      <trkpt lat="47.7029" lon="-2.34061">
        <ele>64</ele>
        <time>2023-10-31T00:19:00Z</time>
      </trkpt>
      <trkpt lat="47.70279" lon="-2.34058">
        <ele>62</ele>
        <time>2023-10-31T00:19:14Z</time>
      </trkpt>
      <trkpt lat="47.70257" lon="-2.34038">
        <ele>59</ele>
        <time>2023-10-31T00:19:49Z</time>
      </trkpt>
      <trkpt lat="47.70236" lon="-2.33977">
        <ele>53</ele>
        <time>2023-10-31T00:20:50Z</time>
      </trkpt>
      <trkpt lat="47.70231" lon="-2.33976">
        <ele>52</ele>
        <time>2023-10-31T00:20:57Z</time>
      </trkpt>
      <trkpt lat="47.70225" lon="-2.33985">
        <ele>51</ele>
        <time>2023-10-31T00:21:09Z</time>
      </trkpt>
      <trkpt lat="47.70224" lon="-2.33971">
        <ele>50</ele>
        <time>2023-10-31T00:21:21Z</time>
      </trkpt>
      <trkpt lat="47.70214" lon="-2.3398">
        <ele>49</ele>
        <time>2023-10-31T00:21:37Z</time>
      </trkpt>
      <trkpt lat="47.70213" lon="-2.33966">
        <ele>48</ele>
        <time>2023-10-31T00:21:49Z</time>
      </trkpt>
      <trkpt lat="47.70207" lon="-2.33974">
        <ele>47</ele>
        <time>2023-10-31T00:22:00Z</time>
      </trkpt>
      <trkpt lat="47.70205" lon="-2.33961">
        <ele>45</ele>
        <time>2023-10-31T00:22:12Z</time>
      </trkpt>
      <trkpt lat="47.7019" lon="-2.33957">
        <ele>42</ele>
        <time>2023-10-31T00:22:33Z</time>
      </trkpt>
      <trkpt lat="47.70184" lon="-2.33941">
        <ele>39</ele>
        <time>2023-10-31T00:22:49Z</time>
      </trkpt>
      <trkpt lat="47.70192" lon="-2.33755">
        <ele>29</ele>
        <time>2023-10-31T00:25:36Z</time>
      </trkpt>
      <trkpt lat="47.70199" lon="-2.33765">
        <ele>31</ele>
        <time>2023-10-31T00:25:49Z</time>
      </trkpt>
      <trkpt lat="47.70131" lon="-2.3376">
        <ele>33</ele>
        <time>2023-10-31T00:27:20Z</time>
      </trkpt>
      <trkpt lat="47.7006" lon="-2.3374">
        <ele>43</ele>
        <time>2023-10-31T00:28:57Z</time>
      </trkpt>
      <trkpt lat="47.70018" lon="-2.33659">
        <ele>45</ele>
        <time>2023-10-31T00:30:28Z</time>
      </trkpt>
      <trkpt lat="47.70004" lon="-2.33622">
        <ele>45</ele>
        <time>2023-10-31T00:31:07Z</time>
      </trkpt>
      <trkpt lat="47.69973" lon="-2.33588">
        <ele>46</ele>
        <time>2023-10-31T00:31:58Z</time>
      </trkpt>
      <trkpt lat="47.69957" lon="-2.33587">
        <ele>47</ele>
        <time>2023-10-31T00:32:19Z</time>
      </trkpt>
      <trkpt lat="47.69943" lon="-2.33592">
        <ele>49</ele>
        <time>2023-10-31T00:32:39Z</time>
      </trkpt>
      <trkpt lat="47.69934" lon="-2.33611">
        <ele>50</ele>
        <time>2023-10-31T00:32:59Z</time>
      </trkpt>
      <trkpt lat="47.69938" lon="-2.33647">
        <ele>51</ele>
        <time>2023-10-31T00:33:32Z</time>
      </trkpt>
      <trkpt lat="47.69933" lon="-2.337">
        <ele>54</ele>
        <time>2023-10-31T00:34:20Z</time>
      </trkpt>
      <trkpt lat="47.69919" lon="-2.33761">
        <ele>57</ele>
        <time>2023-10-31T00:35:18Z</time>
      </trkpt>
      <trkpt lat="47.69907" lon="-2.3378">
        <ele>56</ele>
        <time>2023-10-31T00:35:42Z</time>
      </trkpt>
      <trkpt lat="47.69886" lon="-2.33795">
        <ele>52</ele>
        <time>2023-10-31T00:36:13Z</time>
      </trkpt>
      <trkpt lat="47.69876" lon="-2.3384">
        <ele>52</ele>
        <time>2023-10-31T00:36:55Z</time>
      </trkpt>
      <trkpt lat="47.69866" lon="-2.33847">
        <ele>50</ele>
        <time>2023-10-31T00:37:10Z</time>
      </trkpt>
      <trkpt lat="47.69853" lon="-2.33847">
        <ele>48</ele>
        <time>2023-10-31T00:37:27Z</time>
      </trkpt>
      <trkpt lat="47.69838" lon="-2.33773">
        <ele>43</ele>
        <time>2023-10-31T00:38:37Z</time>
      </trkpt>
      <trkpt lat="47.69836" lon="-2.33713">
        <ele>40</ele>
        <time>2023-10-31T00:39:31Z</time>
      </trkpt>
      <trkpt lat="47.69832" lon="-2.33686">
        <ele>39</ele>
        <time>2023-10-31T00:39:55Z</time>
      </trkpt>
    </trkseg>
  </trk>
  <trk>
    <name><![CDATA[GRPvannesJ11_MolacKercohan_20.3km-12438715]]></name>
    <extensions>
      <line xmlns="http://www.topografix.com/GPX/gpx_style/0/2">
        <color>FFFF00</color>
        <width>4</width>
      </line>
    </extensions>
    <trkseg>
      <trkpt lat="47.73236" lon="-2.50648">
        <ele>40</ele>
        <time>2023-10-30T18:02:00Z</time>
      </trkpt>
      <trkpt lat="47.73229" lon="-2.50592">
        <ele>40</ele>
        <time>2023-10-30T18:02:51Z</time>
      </trkpt>
      <trkpt lat="47.73202" lon="-2.50552">
        <ele>40</ele>
        <time>2023-10-30T18:03:42Z</time>
      </trkpt>
      <trkpt lat="47.73188" lon="-2.50537">
        <ele>41</ele>
        <time>2023-10-30T18:04:05Z</time>
      </trkpt>
      <trkpt lat="47.73156" lon="-2.50462">
        <ele>42</ele>
        <time>2023-10-30T18:05:25Z</time>
      </trkpt>
      <trkpt lat="47.7312" lon="-2.50466">
        <ele>45</ele>
        <time>2023-10-30T18:06:13Z</time>
      </trkpt>
      <trkpt lat="47.73112" lon="-2.50477">
        <ele>47</ele>
        <time>2023-10-30T18:06:27Z</time>
      </trkpt>
      <trkpt lat="47.73092" lon="-2.50478">
        <ele>48</ele>
        <time>2023-10-30T18:06:54Z</time>
      </trkpt>
      <trkpt lat="47.7306" lon="-2.505">
        <ele>52</ele>
        <time>2023-10-30T18:07:41Z</time>
      </trkpt>
      <trkpt lat="47.73051" lon="-2.50521">
        <ele>53</ele>
        <time>2023-10-30T18:08:04Z</time>
      </trkpt>
      <trkpt lat="47.73017" lon="-2.50528">
        <ele>57</ele>
        <time>2023-10-30T18:08:49Z</time>
      </trkpt>
      <trkpt lat="47.72984" lon="-2.50555">
        <ele>61</ele>
        <time>2023-10-30T18:09:40Z</time>
      </trkpt>
      <trkpt lat="47.72975" lon="-2.50532">
        <ele>60</ele>
        <time>2023-10-30T18:10:04Z</time>
      </trkpt>
      <trkpt lat="47.72964" lon="-2.50521">
        <ele>60</ele>
        <time>2023-10-30T18:10:21Z</time>
      </trkpt>
      <trkpt lat="47.72941" lon="-2.50514">
        <ele>59</ele>
        <time>2023-10-30T18:10:53Z</time>
      </trkpt>
      <trkpt lat="47.72943" lon="-2.50514">
        <ele>59</ele>
        <time>2023-10-30T18:10:55Z</time>
      </trkpt>
      <trkpt lat="47.72936" lon="-2.50516">
        <ele>60</ele>
        <time>2023-10-30T18:11:05Z</time>
      </trkpt>
      <trkpt lat="47.72919" lon="-2.50492">
        <ele>59</ele>
        <time>2023-10-30T18:11:36Z</time>
      </trkpt>
      <trkpt lat="47.72902" lon="-2.50489">
        <ele>58</ele>
        <time>2023-10-30T18:11:59Z</time>
      </trkpt>
      <trkpt lat="47.72879" lon="-2.50502">
        <ele>58</ele>
        <time>2023-10-30T18:12:32Z</time>
      </trkpt>
      <trkpt lat="47.72864" lon="-2.50532">
        <ele>59</ele>
        <time>2023-10-30T18:13:05Z</time>
      </trkpt>
      <trkpt lat="47.72819" lon="-2.50562">
        <ele>60</ele>
        <time>2023-10-30T18:14:11Z</time>
      </trkpt>
      <trkpt lat="47.72762" lon="-2.50586">
        <ele>59</ele>
        <time>2023-10-30T18:15:30Z</time>
      </trkpt>
      <trkpt lat="47.72682" lon="-2.50579">
        <ele>58</ele>
        <time>2023-10-30T18:17:17Z</time>
      </trkpt>
      <trkpt lat="47.72582" lon="-2.50578">
        <ele>58</ele>
        <time>2023-10-30T18:19:30Z</time>
      </trkpt>
      <trkpt lat="47.72523" lon="-2.50591">
        <ele>58</ele>
        <time>2023-10-30T18:20:50Z</time>
      </trkpt>
      <trkpt lat="47.7248" lon="-2.50604">
        <ele>59</ele>
        <time>2023-10-30T18:21:49Z</time>
      </trkpt>
      <trkpt lat="47.72316" lon="-2.50586">
        <ele>61</ele>
        <time>2023-10-30T18:25:28Z</time>
      </trkpt>
      <trkpt lat="47.72252" lon="-2.50582">
        <ele>62</ele>
        <time>2023-10-30T18:26:54Z</time>
      </trkpt>
      <trkpt lat="47.72224" lon="-2.50596">
        <ele>62</ele>
        <time>2023-10-30T18:27:33Z</time>
      </trkpt>
      <trkpt lat="47.72122" lon="-2.50586">
        <ele>60</ele>
        <time>2023-10-30T18:29:49Z</time>
      </trkpt>
      <trkpt lat="47.72122" lon="-2.50608">
        <ele>61</ele>
        <time>2023-10-30T18:30:09Z</time>
      </trkpt>
      <trkpt lat="47.72117" lon="-2.50636">
        <ele>62</ele>
        <time>2023-10-30T18:30:35Z</time>
      </trkpt>
      <trkpt lat="47.72123" lon="-2.5071">
        <ele>64</ele>
        <time>2023-10-30T18:31:42Z</time>
      </trkpt>
      <trkpt lat="47.72138" lon="-2.5082">
        <ele>69</ele>
        <time>2023-10-30T18:33:23Z</time>
      </trkpt>
      <trkpt lat="47.72147" lon="-2.50929">
        <ele>70</ele>
        <time>2023-10-30T18:35:01Z</time>
      </trkpt>
      <trkpt lat="47.72144" lon="-2.50972">
        <ele>70</ele>
        <time>2023-10-30T18:35:40Z</time>
      </trkpt>
      <trkpt lat="47.72127" lon="-2.51012">
        <ele>70</ele>
        <time>2023-10-30T18:36:23Z</time>
      </trkpt>
      <trkpt lat="47.72127" lon="-2.51061">
        <ele>70</ele>
        <time>2023-10-30T18:37:07Z</time>
      </trkpt>
      <trkpt lat="47.72136" lon="-2.51112">
        <ele>70</ele>
        <time>2023-10-30T18:37:54Z</time>
      </trkpt>
      <trkpt lat="47.72135" lon="-2.51138">
        <ele>70</ele>
        <time>2023-10-30T18:38:17Z</time>
      </trkpt>
      <trkpt lat="47.72095" lon="-2.51176">
        <ele>69</ele>
        <time>2023-10-30T18:39:21Z</time>
      </trkpt>
      <trkpt lat="47.7207" lon="-2.51191">
        <ele>69</ele>
        <time>2023-10-30T18:39:57Z</time>
      </trkpt>
      <trkpt lat="47.7207" lon="-2.51176">
        <ele>70</ele>
        <time>2023-10-30T18:40:10Z</time>
      </trkpt>
      <trkpt lat="47.72035" lon="-2.51079">
        <ele>71</ele>
        <time>2023-10-30T18:41:49Z</time>
      </trkpt>
      <trkpt lat="47.72027" lon="-2.51033">
        <ele>70</ele>
        <time>2023-10-30T18:42:32Z</time>
      </trkpt>
      <trkpt lat="47.72029" lon="-2.51007">
        <ele>70</ele>
        <time>2023-10-30T18:42:55Z</time>
      </trkpt>
      <trkpt lat="47.72015" lon="-2.50994">
        <ele>69</ele>
        <time>2023-10-30T18:43:17Z</time>
      </trkpt>
      <trkpt lat="47.72017" lon="-2.50949">
        <ele>68</ele>
        <time>2023-10-30T18:43:58Z</time>
      </trkpt>
      <trkpt lat="47.72014" lon="-2.50937">
        <ele>68</ele>
        <time>2023-10-30T18:44:09Z</time>
      </trkpt>
      <trkpt lat="47.72016" lon="-2.50892">
        <ele>66</ele>
        <time>2023-10-30T18:44:50Z</time>
      </trkpt>
      <trkpt lat="47.71993" lon="-2.5084">
        <ele>62</ele>
        <time>2023-10-30T18:45:46Z</time>
      </trkpt>
      <trkpt lat="47.71978" lon="-2.50812">
        <ele>60</ele>
        <time>2023-10-30T18:46:18Z</time>
      </trkpt>
      <trkpt lat="47.71963" lon="-2.50811">
        <ele>60</ele>
        <time>2023-10-30T18:46:38Z</time>
      </trkpt>
      <trkpt lat="47.71915" lon="-2.50908">
        <ele>62</ele>
        <time>2023-10-30T18:48:26Z</time>
      </trkpt>
      <trkpt lat="47.71905" lon="-2.50942">
        <ele>64</ele>
        <time>2023-10-30T18:48:59Z</time>
      </trkpt>
      <trkpt lat="47.71885" lon="-2.50964">
        <ele>65</ele>
        <time>2023-10-30T18:49:32Z</time>
      </trkpt>
      <trkpt lat="47.71856" lon="-2.50986">
        <ele>66</ele>
        <time>2023-10-30T18:50:16Z</time>
      </trkpt>
      <trkpt lat="47.71843" lon="-2.50985">
        <ele>66</ele>
        <time>2023-10-30T18:50:33Z</time>
      </trkpt>
      <trkpt lat="47.71825" lon="-2.50963">
        <ele>66</ele>
        <time>2023-10-30T18:51:04Z</time>
      </trkpt>
      <trkpt lat="47.71804" lon="-2.50948">
        <ele>67</ele>
        <time>2023-10-30T18:51:35Z</time>
      </trkpt>
      <trkpt lat="47.71786" lon="-2.50946">
        <ele>68</ele>
        <time>2023-10-30T18:51:59Z</time>
      </trkpt>
      <trkpt lat="47.71747" lon="-2.50936">
        <ele>71</ele>
        <time>2023-10-30T18:52:52Z</time>
      </trkpt>
      <trkpt lat="47.71696" lon="-2.5093">
        <ele>73</ele>
        <time>2023-10-30T18:54:01Z</time>
      </trkpt>
      <trkpt lat="47.71649" lon="-2.5093">
        <ele>76</ele>
        <time>2023-10-30T18:55:03Z</time>
      </trkpt>
      <trkpt lat="47.71603" lon="-2.50958">
        <ele>79</ele>
        <time>2023-10-30T18:56:10Z</time>
      </trkpt>
      <trkpt lat="47.71559" lon="-2.50962">
        <ele>81</ele>
        <time>2023-10-30T18:57:08Z</time>
      </trkpt>
      <trkpt lat="47.71518" lon="-2.5096">
        <ele>82</ele>
        <time>2023-10-30T18:58:03Z</time>
      </trkpt>
      <trkpt lat="47.71472" lon="-2.50949">
        <ele>81</ele>
        <time>2023-10-30T18:59:05Z</time>
      </trkpt>
      <trkpt lat="47.71398" lon="-2.50952">
        <ele>78</ele>
        <time>2023-10-30T19:00:44Z</time>
      </trkpt>
      <trkpt lat="47.71392" lon="-2.50969">
        <ele>77</ele>
        <time>2023-10-30T19:01:01Z</time>
      </trkpt>
      <trkpt lat="47.71381" lon="-2.50988">
        <ele>77</ele>
        <time>2023-10-30T19:01:24Z</time>
      </trkpt>
      <trkpt lat="47.71369" lon="-2.50993">
        <ele>77</ele>
        <time>2023-10-30T19:01:40Z</time>
      </trkpt>
      <trkpt lat="47.71329" lon="-2.51">
        <ele>78</ele>
        <time>2023-10-30T19:02:34Z</time>
      </trkpt>
      <trkpt lat="47.71234" lon="-2.51008">
        <ele>87</ele>
        <time>2023-10-30T19:04:41Z</time>
      </trkpt>
      <trkpt lat="47.71213" lon="-2.51032">
        <ele>88</ele>
        <time>2023-10-30T19:05:17Z</time>
      </trkpt>
      <trkpt lat="47.71162" lon="-2.51114">
        <ele>91</ele>
        <time>2023-10-30T19:06:57Z</time>
      </trkpt>
      <trkpt lat="47.7113" lon="-2.51183">
        <ele>88</ele>
        <time>2023-10-30T19:08:12Z</time>
      </trkpt>
      <trkpt lat="47.71086" lon="-2.51209">
        <ele>86</ele>
        <time>2023-10-30T19:09:15Z</time>
      </trkpt>
      <trkpt lat="47.71032" lon="-2.51221">
        <ele>84</ele>
        <time>2023-10-30T19:10:28Z</time>
      </trkpt>
      <trkpt lat="47.71013" lon="-2.51238">
        <ele>82</ele>
        <time>2023-10-30T19:10:58Z</time>
      </trkpt>
      <trkpt lat="47.71006" lon="-2.51284">
        <ele>80</ele>
        <time>2023-10-30T19:11:40Z</time>
      </trkpt>
      <trkpt lat="47.70997" lon="-2.5132">
        <ele>79</ele>
        <time>2023-10-30T19:12:15Z</time>
      </trkpt>
      <trkpt lat="47.70966" lon="-2.5135">
        <ele>80</ele>
        <time>2023-10-30T19:13:04Z</time>
      </trkpt>
      <trkpt lat="47.70932" lon="-2.51365">
        <ele>81</ele>
        <time>2023-10-30T19:13:51Z</time>
      </trkpt>
      <trkpt lat="47.70908" lon="-2.51335">
        <ele>81</ele>
        <time>2023-10-30T19:14:33Z</time>
      </trkpt>
      <trkpt lat="47.7089" lon="-2.51256">
        <ele>80</ele>
        <time>2023-10-30T19:15:48Z</time>
      </trkpt>
      <trkpt lat="47.70877" lon="-2.51185">
        <ele>81</ele>
        <time>2023-10-30T19:16:54Z</time>
      </trkpt>
      <trkpt lat="47.70872" lon="-2.51146">
        <ele>82</ele>
        <time>2023-10-30T19:17:30Z</time>
      </trkpt>
      <trkpt lat="47.70873" lon="-2.51078">
        <ele>85</ele>
        <time>2023-10-30T19:18:31Z</time>
      </trkpt>
      <trkpt lat="47.70848" lon="-2.51027">
        <ele>90</ele>
        <time>2023-10-30T19:19:27Z</time>
      </trkpt>
      <trkpt lat="47.70815" lon="-2.51003">
        <ele>94</ele>
        <time>2023-10-30T19:20:16Z</time>
      </trkpt>
      <trkpt lat="47.70767" lon="-2.50978">
        <ele>98</ele>
        <time>2023-10-30T19:21:24Z</time>
      </trkpt>
      <trkpt lat="47.70721" lon="-2.50959">
        <ele>101</ele>
        <time>2023-10-30T19:22:28Z</time>
      </trkpt>
      <trkpt lat="47.70693" lon="-2.50905">
        <ele>106</ele>
        <time>2023-10-30T19:23:29Z</time>
      </trkpt>
      <trkpt lat="47.7065" lon="-2.50839">
        <ele>113</ele>
        <time>2023-10-30T19:24:52Z</time>
      </trkpt>
      <trkpt lat="47.70623" lon="-2.50838">
        <ele>113</ele>
        <time>2023-10-30T19:25:28Z</time>
      </trkpt>
      <trkpt lat="47.70583" lon="-2.50841">
        <ele>113</ele>
        <time>2023-10-30T19:26:21Z</time>
      </trkpt>
      <trkpt lat="47.70568" lon="-2.50855">
        <ele>111</ele>
        <time>2023-10-30T19:26:45Z</time>
      </trkpt>
      <trkpt lat="47.705" lon="-2.50867">
        <ele>108</ele>
        <time>2023-10-30T19:28:16Z</time>
      </trkpt>
      <trkpt lat="47.70479" lon="-2.50843">
        <ele>109</ele>
        <time>2023-10-30T19:28:52Z</time>
      </trkpt>
      <trkpt lat="47.70457" lon="-2.50851">
        <ele>108</ele>
        <time>2023-10-30T19:29:22Z</time>
      </trkpt>
      <trkpt lat="47.70409" lon="-2.50855">
        <ele>106</ele>
        <time>2023-10-30T19:30:26Z</time>
      </trkpt>
      <trkpt lat="47.70387" lon="-2.50862">
        <ele>106</ele>
        <time>2023-10-30T19:30:56Z</time>
      </trkpt>
      <trkpt lat="47.70342" lon="-2.50854">
        <ele>106</ele>
        <time>2023-10-30T19:31:56Z</time>
      </trkpt>
      <trkpt lat="47.70328" lon="-2.50883">
        <ele>107</ele>
        <time>2023-10-30T19:32:29Z</time>
      </trkpt>
      <trkpt lat="47.70314" lon="-2.50892">
        <ele>108</ele>
        <time>2023-10-30T19:32:49Z</time>
      </trkpt>
      <trkpt lat="47.70303" lon="-2.50891">
        <ele>109</ele>
        <time>2023-10-30T19:33:04Z</time>
      </trkpt>
      <trkpt lat="47.70303" lon="-2.50921">
        <ele>110</ele>
        <time>2023-10-30T19:33:31Z</time>
      </trkpt>
      <trkpt lat="47.70294" lon="-2.5095">
        <ele>114</ele>
        <time>2023-10-30T19:33:59Z</time>
      </trkpt>
      <trkpt lat="47.70289" lon="-2.50979">
        <ele>118</ele>
        <time>2023-10-30T19:34:26Z</time>
      </trkpt>
      <trkpt lat="47.70289" lon="-2.51">
        <ele>121</ele>
        <time>2023-10-30T19:34:45Z</time>
      </trkpt>
      <trkpt lat="47.7027" lon="-2.51018">
        <ele>123</ele>
        <time>2023-10-30T19:35:15Z</time>
      </trkpt>
      <trkpt lat="47.70279" lon="-2.51027">
        <ele>123</ele>
        <time>2023-10-30T19:35:30Z</time>
      </trkpt>
      <trkpt lat="47.70266" lon="-2.51046">
        <ele>125</ele>
        <time>2023-10-30T19:35:54Z</time>
      </trkpt>
      <trkpt lat="47.70215" lon="-2.51088">
        <ele>128</ele>
        <time>2023-10-30T19:37:12Z</time>
      </trkpt>
      <trkpt lat="47.7018" lon="-2.51153">
        <ele>129</ele>
        <time>2023-10-30T19:38:26Z</time>
      </trkpt>
      <trkpt lat="47.70155" lon="-2.51216">
        <ele>130</ele>
        <time>2023-10-30T19:39:32Z</time>
      </trkpt>
      <trkpt lat="47.70145" lon="-2.51318">
        <ele>131</ele>
        <time>2023-10-30T19:41:05Z</time>
      </trkpt>
      <trkpt lat="47.70145" lon="-2.51397">
        <ele>132</ele>
        <time>2023-10-30T19:42:16Z</time>
      </trkpt>
      <trkpt lat="47.70173" lon="-2.5168">
        <ele>133</ele>
        <time>2023-10-30T19:46:33Z</time>
      </trkpt>
      <trkpt lat="47.70193" lon="-2.51785">
        <ele>130</ele>
        <time>2023-10-30T19:48:11Z</time>
      </trkpt>
      <trkpt lat="47.70186" lon="-2.51796">
        <ele>130</ele>
        <time>2023-10-30T19:48:24Z</time>
      </trkpt>
      <trkpt lat="47.70152" lon="-2.51805">
        <ele>130</ele>
        <time>2023-10-30T19:49:10Z</time>
      </trkpt>
      <trkpt lat="47.70036" lon="-2.51816">
        <ele>129</ele>
        <time>2023-10-30T19:51:45Z</time>
      </trkpt>
      <trkpt lat="47.70008" lon="-2.51813">
        <ele>130</ele>
        <time>2023-10-30T19:52:23Z</time>
      </trkpt>
      <trkpt lat="47.69985" lon="-2.51763">
        <ele>130</ele>
        <time>2023-10-30T19:53:17Z</time>
      </trkpt>
      <trkpt lat="47.69976" lon="-2.51717">
        <ele>131</ele>
        <time>2023-10-30T19:54:00Z</time>
      </trkpt>
      <trkpt lat="47.69968" lon="-2.51649">
        <ele>132</ele>
        <time>2023-10-30T19:55:02Z</time>
      </trkpt>
      <trkpt lat="47.69958" lon="-2.51603">
        <ele>133</ele>
        <time>2023-10-30T19:55:46Z</time>
      </trkpt>
      <trkpt lat="47.69928" lon="-2.5155">
        <ele>135</ele>
        <time>2023-10-30T19:56:48Z</time>
      </trkpt>
      <trkpt lat="47.69911" lon="-2.51529">
        <ele>136</ele>
        <time>2023-10-30T19:57:17Z</time>
      </trkpt>
      <trkpt lat="47.69863" lon="-2.51534">
        <ele>136</ele>
        <time>2023-10-30T19:58:22Z</time>
      </trkpt>
      <trkpt lat="47.69713" lon="-2.51559">
        <ele>133</ele>
        <time>2023-10-30T20:01:43Z</time>
      </trkpt>
      <trkpt lat="47.69703" lon="-2.51578">
        <ele>133</ele>
        <time>2023-10-30T20:02:05Z</time>
      </trkpt>
      <trkpt lat="47.69683" lon="-2.5159">
        <ele>133</ele>
        <time>2023-10-30T20:02:33Z</time>
      </trkpt>
      <trkpt lat="47.69645" lon="-2.51595">
        <ele>133</ele>
        <time>2023-10-30T20:03:24Z</time>
      </trkpt>
      <trkpt lat="47.69596" lon="-2.51577">
        <ele>135</ele>
        <time>2023-10-30T20:04:32Z</time>
      </trkpt>
      <trkpt lat="47.69538" lon="-2.51513">
        <ele>139</ele>
        <time>2023-10-30T20:06:08Z</time>
      </trkpt>
      <trkpt lat="47.6941" lon="-2.5133">
        <ele>140</ele>
        <time>2023-10-30T20:10:05Z</time>
      </trkpt>
      <trkpt lat="47.69373" lon="-2.51383">
        <ele>138</ele>
        <time>2023-10-30T20:11:14Z</time>
      </trkpt>
      <trkpt lat="47.69321" lon="-2.51482">
        <ele>136</ele>
        <time>2023-10-30T20:13:07Z</time>
      </trkpt>
      <trkpt lat="47.6929" lon="-2.5152">
        <ele>136</ele>
        <time>2023-10-30T20:14:00Z</time>
      </trkpt>
      <trkpt lat="47.69242" lon="-2.51559">
        <ele>133</ele>
        <time>2023-10-30T20:15:13Z</time>
      </trkpt>
      <trkpt lat="47.69206" lon="-2.51574">
        <ele>129</ele>
        <time>2023-10-30T20:16:03Z</time>
      </trkpt>
      <trkpt lat="47.69177" lon="-2.5159">
        <ele>126</ele>
        <time>2023-10-30T20:16:44Z</time>
      </trkpt>
      <trkpt lat="47.69163" lon="-2.51611">
        <ele>124</ele>
        <time>2023-10-30T20:17:11Z</time>
      </trkpt>
      <trkpt lat="47.69178" lon="-2.517">
        <ele>123</ele>
        <time>2023-10-30T20:18:33Z</time>
      </trkpt>
      <trkpt lat="47.69141" lon="-2.51769">
        <ele>117</ele>
        <time>2023-10-30T20:19:53Z</time>
      </trkpt>
      <trkpt lat="47.69122" lon="-2.51775">
        <ele>116</ele>
        <time>2023-10-30T20:20:18Z</time>
      </trkpt>
      <trkpt lat="47.69119" lon="-2.51787">
        <ele>116</ele>
        <time>2023-10-30T20:20:30Z</time>
      </trkpt>
      <trkpt lat="47.69101" lon="-2.51818">
        <ele>116</ele>
        <time>2023-10-30T20:21:07Z</time>
      </trkpt>
      <trkpt lat="47.69104" lon="-2.51845">
        <ele>116</ele>
        <time>2023-10-30T20:21:31Z</time>
      </trkpt>
      <trkpt lat="47.69125" lon="-2.51919">
        <ele>114</ele>
        <time>2023-10-30T20:22:43Z</time>
      </trkpt>
      <trkpt lat="47.69132" lon="-2.51966">
        <ele>114</ele>
        <time>2023-10-30T20:23:27Z</time>
      </trkpt>
      <trkpt lat="47.69131" lon="-2.51981">
        <ele>114</ele>
        <time>2023-10-30T20:23:40Z</time>
      </trkpt>
      <trkpt lat="47.69118" lon="-2.52003">
        <ele>113</ele>
        <time>2023-10-30T20:24:07Z</time>
      </trkpt>
      <trkpt lat="47.69065" lon="-2.52032">
        <ele>112</ele>
        <time>2023-10-30T20:25:22Z</time>
      </trkpt>
      <trkpt lat="47.69042" lon="-2.52052">
        <ele>110</ele>
        <time>2023-10-30T20:25:57Z</time>
      </trkpt>
      <trkpt lat="47.69022" lon="-2.52083">
        <ele>110</ele>
        <time>2023-10-30T20:26:36Z</time>
      </trkpt>
      <trkpt lat="47.68999" lon="-2.52143">
        <ele>108</ele>
        <time>2023-10-30T20:27:38Z</time>
      </trkpt>
      <trkpt lat="47.68974" lon="-2.5218">
        <ele>107</ele>
        <time>2023-10-30T20:28:25Z</time>
      </trkpt>
      <trkpt lat="47.68918" lon="-2.5222">
        <ele>105</ele>
        <time>2023-10-30T20:29:48Z</time>
      </trkpt>
      <trkpt lat="47.68875" lon="-2.52258">
        <ele>107</ele>
        <time>2023-10-30T20:30:55Z</time>
      </trkpt>
      <trkpt lat="47.68747" lon="-2.5235">
        <ele>110</ele>
        <time>2023-10-30T20:34:05Z</time>
      </trkpt>
      <trkpt lat="47.68703" lon="-2.52386">
        <ele>111</ele>
        <time>2023-10-30T20:35:12Z</time>
      </trkpt>
      <trkpt lat="47.68681" lon="-2.52405">
        <ele>111</ele>
        <time>2023-10-30T20:35:46Z</time>
      </trkpt>
      <trkpt lat="47.6864" lon="-2.52457">
        <ele>112</ele>
        <time>2023-10-30T20:36:58Z</time>
      </trkpt>
      <trkpt lat="47.68588" lon="-2.52499">
        <ele>114</ele>
        <time>2023-10-30T20:38:17Z</time>
      </trkpt>
      <trkpt lat="47.68536" lon="-2.52527">
        <ele>116</ele>
        <time>2023-10-30T20:39:30Z</time>
      </trkpt>
      <trkpt lat="47.68484" lon="-2.52566">
        <ele>116</ele>
        <time>2023-10-30T20:40:48Z</time>
      </trkpt>
      <trkpt lat="47.68451" lon="-2.526">
        <ele>116</ele>
        <time>2023-10-30T20:41:42Z</time>
      </trkpt>
      <trkpt lat="47.68356" lon="-2.52646">
        <ele>114</ele>
        <time>2023-10-30T20:43:55Z</time>
      </trkpt>
      <trkpt lat="47.68357" lon="-2.52686">
        <ele>113</ele>
        <time>2023-10-30T20:44:31Z</time>
      </trkpt>
      <trkpt lat="47.68367" lon="-2.5279">
        <ele>108</ele>
        <time>2023-10-30T20:46:05Z</time>
      </trkpt>
      <trkpt lat="47.6838" lon="-2.52813">
        <ele>108</ele>
        <time>2023-10-30T20:46:32Z</time>
      </trkpt>
      <trkpt lat="47.68394" lon="-2.52845">
        <ele>106</ele>
        <time>2023-10-30T20:47:07Z</time>
      </trkpt>
      <trkpt lat="47.68399" lon="-2.52885">
        <ele>104</ele>
        <time>2023-10-30T20:47:43Z</time>
      </trkpt>
      <trkpt lat="47.684" lon="-2.52995">
        <ele>100</ele>
        <time>2023-10-30T20:49:22Z</time>
      </trkpt>
      <trkpt lat="47.68418" lon="-2.5312">
        <ele>98</ele>
        <time>2023-10-30T20:51:17Z</time>
      </trkpt>
      <trkpt lat="47.68403" lon="-2.53151">
        <ele>100</ele>
        <time>2023-10-30T20:51:51Z</time>
      </trkpt>
      <trkpt lat="47.68413" lon="-2.53167">
        <ele>101</ele>
        <time>2023-10-30T20:52:11Z</time>
      </trkpt>
      <trkpt lat="47.68426" lon="-2.53179">
        <ele>101</ele>
        <time>2023-10-30T20:52:31Z</time>
      </trkpt>
      <trkpt lat="47.68419" lon="-2.53192">
        <ele>102</ele>
        <time>2023-10-30T20:52:46Z</time>
      </trkpt>
      <trkpt lat="47.68401" lon="-2.53186">
        <ele>102</ele>
        <time>2023-10-30T20:53:11Z</time>
      </trkpt>
      <trkpt lat="47.68386" lon="-2.53186">
        <ele>101</ele>
        <time>2023-10-30T20:53:31Z</time>
      </trkpt>
      <trkpt lat="47.68406" lon="-2.53224">
        <ele>104</ele>
        <time>2023-10-30T20:54:14Z</time>
      </trkpt>
      <trkpt lat="47.68446" lon="-2.53286">
        <ele>106</ele>
        <time>2023-10-30T20:55:31Z</time>
      </trkpt>
      <trkpt lat="47.68471" lon="-2.53352">
        <ele>107</ele>
        <time>2023-10-30T20:56:39Z</time>
      </trkpt>
      <trkpt lat="47.68491" lon="-2.53366">
        <ele>106</ele>
        <time>2023-10-30T20:57:09Z</time>
      </trkpt>
      <trkpt lat="47.68529" lon="-2.53424">
        <ele>105</ele>
        <time>2023-10-30T20:58:21Z</time>
      </trkpt>
      <trkpt lat="47.68598" lon="-2.53602">
        <ele>106</ele>
        <time>2023-10-30T21:01:26Z</time>
      </trkpt>
      <trkpt lat="47.68608" lon="-2.53658">
        <ele>107</ele>
        <time>2023-10-30T21:02:18Z</time>
      </trkpt>
      <trkpt lat="47.68621" lon="-2.53795">
        <ele>112</ele>
        <time>2023-10-30T21:04:22Z</time>
      </trkpt>
      <trkpt lat="47.68647" lon="-2.5389">
        <ele>113</ele>
        <time>2023-10-30T21:05:54Z</time>
      </trkpt>
      <trkpt lat="47.6867" lon="-2.53919">
        <ele>110</ele>
        <time>2023-10-30T21:06:35Z</time>
      </trkpt>
      <trkpt lat="47.68707" lon="-2.53924">
        <ele>106</ele>
        <time>2023-10-30T21:07:24Z</time>
      </trkpt>
      <trkpt lat="47.68885" lon="-2.53896">
        <ele>102</ele>
        <time>2023-10-30T21:11:23Z</time>
      </trkpt>
      <trkpt lat="47.68904" lon="-2.53897">
        <ele>102</ele>
        <time>2023-10-30T21:11:49Z</time>
      </trkpt>
      <trkpt lat="47.68907" lon="-2.53946">
        <ele>101</ele>
        <time>2023-10-30T21:12:33Z</time>
      </trkpt>
      <trkpt lat="47.68903" lon="-2.54077">
        <ele>103</ele>
        <time>2023-10-30T21:14:31Z</time>
      </trkpt>
      <trkpt lat="47.68922" lon="-2.54174">
        <ele>105</ele>
        <time>2023-10-30T21:16:01Z</time>
      </trkpt>
      <trkpt lat="47.68938" lon="-2.54242">
        <ele>106</ele>
        <time>2023-10-30T21:17:06Z</time>
      </trkpt>
      <trkpt lat="47.68925" lon="-2.54266">
        <ele>105</ele>
        <time>2023-10-30T21:17:34Z</time>
      </trkpt>
      <trkpt lat="47.68909" lon="-2.54317">
        <ele>105</ele>
        <time>2023-10-30T21:18:24Z</time>
      </trkpt>
      <trkpt lat="47.68781" lon="-2.54363">
        <ele>113</ele>
        <time>2023-10-30T21:21:20Z</time>
      </trkpt>
      <trkpt lat="47.68788" lon="-2.54456">
        <ele>116</ele>
        <time>2023-10-30T21:22:44Z</time>
      </trkpt>
      <trkpt lat="47.68743" lon="-2.54423">
        <ele>122</ele>
        <time>2023-10-30T21:23:51Z</time>
      </trkpt>
      <trkpt lat="47.68727" lon="-2.54388">
        <ele>123</ele>
        <time>2023-10-30T21:24:29Z</time>
      </trkpt>
      <trkpt lat="47.68626" lon="-2.54409">
        <ele>135</ele>
        <time>2023-10-30T21:26:45Z</time>
      </trkpt>
      <trkpt lat="47.68612" lon="-2.54384">
        <ele>135</ele>
        <time>2023-10-30T21:27:14Z</time>
      </trkpt>
      <trkpt lat="47.68586" lon="-2.54267">
        <ele>135</ele>
        <time>2023-10-30T21:29:05Z</time>
      </trkpt>
      <trkpt lat="47.68539" lon="-2.54144">
        <ele>135</ele>
        <time>2023-10-30T21:31:12Z</time>
      </trkpt>
      <trkpt lat="47.68532" lon="-2.54028">
        <ele>136</ele>
        <time>2023-10-30T21:32:57Z</time>
      </trkpt>
      <trkpt lat="47.68544" lon="-2.53893">
        <ele>132</ele>
        <time>2023-10-30T21:34:59Z</time>
      </trkpt>
      <trkpt lat="47.6852" lon="-2.5381">
        <ele>131</ele>
        <time>2023-10-30T21:36:20Z</time>
      </trkpt>
      <trkpt lat="47.68514" lon="-2.53731">
        <ele>127</ele>
        <time>2023-10-30T21:37:32Z</time>
      </trkpt>
      <trkpt lat="47.68514" lon="-2.5365">
        <ele>122</ele>
        <time>2023-10-30T21:38:44Z</time>
      </trkpt>
      <trkpt lat="47.68411" lon="-2.53485">
        <ele>117</ele>
        <time>2023-10-30T21:42:06Z</time>
      </trkpt>
      <trkpt lat="47.684" lon="-2.53457">
        <ele>116</ele>
        <time>2023-10-30T21:42:36Z</time>
      </trkpt>
      <trkpt lat="47.68351" lon="-2.53273">
        <ele>105</ele>
        <time>2023-10-30T21:45:33Z</time>
      </trkpt>
      <trkpt lat="47.68347" lon="-2.53226">
        <ele>102</ele>
        <time>2023-10-30T21:46:16Z</time>
      </trkpt>
      <trkpt lat="47.68362" lon="-2.53184">
        <ele>101</ele>
        <time>2023-10-30T21:46:59Z</time>
      </trkpt>
      <trkpt lat="47.68386" lon="-2.53186">
        <ele>101</ele>
        <time>2023-10-30T21:47:31Z</time>
      </trkpt>
      <trkpt lat="47.68412" lon="-2.53181">
        <ele>102</ele>
        <time>2023-10-30T21:48:06Z</time>
      </trkpt>
      <trkpt lat="47.68396" lon="-2.5316">
        <ele>100</ele>
        <time>2023-10-30T21:48:34Z</time>
      </trkpt>
      <trkpt lat="47.68361" lon="-2.53143">
        <ele>99</ele>
        <time>2023-10-30T21:49:23Z</time>
      </trkpt>
      <trkpt lat="47.68316" lon="-2.53149">
        <ele>98</ele>
        <time>2023-10-30T21:50:24Z</time>
      </trkpt>
      <trkpt lat="47.68299" lon="-2.53159">
        <ele>98</ele>
        <time>2023-10-30T21:50:48Z</time>
      </trkpt>
      <trkpt lat="47.68286" lon="-2.53225">
        <ele>101</ele>
        <time>2023-10-30T21:51:50Z</time>
      </trkpt>
      <trkpt lat="47.68288" lon="-2.53238">
        <ele>102</ele>
        <time>2023-10-30T21:52:02Z</time>
      </trkpt>
      <trkpt lat="47.68157" lon="-2.53243">
        <ele>102</ele>
        <time>2023-10-30T21:54:57Z</time>
      </trkpt>
      <trkpt lat="47.68088" lon="-2.53252">
        <ele>99</ele>
        <time>2023-10-30T21:56:29Z</time>
      </trkpt>
      <trkpt lat="47.68078" lon="-2.53233">
        <ele>97</ele>
        <time>2023-10-30T21:56:51Z</time>
      </trkpt>
      <trkpt lat="47.68079" lon="-2.53213">
        <ele>96</ele>
        <time>2023-10-30T21:57:09Z</time>
      </trkpt>
      <trkpt lat="47.68028" lon="-2.53206">
        <ele>93</ele>
        <time>2023-10-30T21:58:17Z</time>
      </trkpt>
      <trkpt lat="47.67958" lon="-2.53205">
        <ele>90</ele>
        <time>2023-10-30T21:59:51Z</time>
      </trkpt>
      <trkpt lat="47.67936" lon="-2.53215">
        <ele>89</ele>
        <time>2023-10-30T22:00:21Z</time>
      </trkpt>
      <trkpt lat="47.67901" lon="-2.53211">
        <ele>89</ele>
        <time>2023-10-30T22:01:08Z</time>
      </trkpt>
      <trkpt lat="47.67863" lon="-2.53166">
        <ele>90</ele>
        <time>2023-10-30T22:02:13Z</time>
      </trkpt>
      <trkpt lat="47.67855" lon="-2.5316">
        <ele>90</ele>
        <time>2023-10-30T22:02:25Z</time>
      </trkpt>
      <trkpt lat="47.6786" lon="-2.53143">
        <ele>89</ele>
        <time>2023-10-30T22:02:42Z</time>
      </trkpt>
      <trkpt lat="47.67819" lon="-2.5304">
        <ele>89</ele>
        <time>2023-10-30T22:04:29Z</time>
      </trkpt>
      <trkpt lat="47.67786" lon="-2.53007">
        <ele>91</ele>
        <time>2023-10-30T22:05:22Z</time>
      </trkpt>
      <trkpt lat="47.67772" lon="-2.52973">
        <ele>92</ele>
        <time>2023-10-30T22:05:58Z</time>
      </trkpt>
      <trkpt lat="47.67755" lon="-2.52893">
        <ele>92</ele>
        <time>2023-10-30T22:07:13Z</time>
      </trkpt>
      <trkpt lat="47.67707" lon="-2.52843">
        <ele>94</ele>
        <time>2023-10-30T22:08:32Z</time>
      </trkpt>
      <trkpt lat="47.67677" lon="-2.5282">
        <ele>94</ele>
        <time>2023-10-30T22:09:17Z</time>
      </trkpt>
      <trkpt lat="47.67611" lon="-2.52804">
        <ele>95</ele>
        <time>2023-10-30T22:10:46Z</time>
      </trkpt>
      <trkpt lat="47.67579" lon="-2.52791">
        <ele>95</ele>
        <time>2023-10-30T22:11:30Z</time>
      </trkpt>
      <trkpt lat="47.6756" lon="-2.52755">
        <ele>95</ele>
        <time>2023-10-30T22:12:11Z</time>
      </trkpt>
      <trkpt lat="47.67542" lon="-2.52678">
        <ele>94</ele>
        <time>2023-10-30T22:13:24Z</time>
      </trkpt>
      <trkpt lat="47.67522" lon="-2.52621">
        <ele>93</ele>
        <time>2023-10-30T22:14:22Z</time>
      </trkpt>
      <trkpt lat="47.67513" lon="-2.52559">
        <ele>89</ele>
        <time>2023-10-30T22:15:19Z</time>
      </trkpt>
      <trkpt lat="47.6749" lon="-2.52518">
        <ele>88</ele>
        <time>2023-10-30T22:16:07Z</time>
      </trkpt>
      <trkpt lat="47.67452" lon="-2.5248">
        <ele>92</ele>
        <time>2023-10-30T22:17:08Z</time>
      </trkpt>
      <trkpt lat="47.6741" lon="-2.52452">
        <ele>96</ele>
        <time>2023-10-30T22:18:10Z</time>
      </trkpt>
      <trkpt lat="47.67366" lon="-2.52405">
        <ele>101</ele>
        <time>2023-10-30T22:19:22Z</time>
      </trkpt>
      <trkpt lat="47.67338" lon="-2.52407">
        <ele>106</ele>
        <time>2023-10-30T22:19:59Z</time>
      </trkpt>
      <trkpt lat="47.6729" lon="-2.52418">
        <ele>112</ele>
        <time>2023-10-30T22:21:04Z</time>
      </trkpt>
      <trkpt lat="47.67274" lon="-2.5245">
        <ele>115</ele>
        <time>2023-10-30T22:21:40Z</time>
      </trkpt>
      <trkpt lat="47.67237" lon="-2.52447">
        <ele>118</ele>
        <time>2023-10-30T22:22:30Z</time>
      </trkpt>
      <trkpt lat="47.67183" lon="-2.52458">
        <ele>120</ele>
        <time>2023-10-30T22:23:42Z</time>
      </trkpt>
      <trkpt lat="47.67142" lon="-2.52486">
        <ele>123</ele>
        <time>2023-10-30T22:24:43Z</time>
      </trkpt>
      <trkpt lat="47.67112" lon="-2.52527">
        <ele>125</ele>
        <time>2023-10-30T22:25:37Z</time>
      </trkpt>
      <trkpt lat="47.6707" lon="-2.52548">
        <ele>125</ele>
        <time>2023-10-30T22:26:36Z</time>
      </trkpt>
      <trkpt lat="47.67045" lon="-2.52547">
        <ele>125</ele>
        <time>2023-10-30T22:27:09Z</time>
      </trkpt>
      <trkpt lat="47.66993" lon="-2.52529">
        <ele>125</ele>
        <time>2023-10-30T22:28:21Z</time>
      </trkpt>
      <trkpt lat="47.66975" lon="-2.52528">
        <ele>125</ele>
        <time>2023-10-30T22:28:45Z</time>
      </trkpt>
      <trkpt lat="47.66918" lon="-2.52557">
        <ele>125</ele>
        <time>2023-10-30T22:30:05Z</time>
      </trkpt>
      <trkpt lat="47.66908" lon="-2.52543">
        <ele>124</ele>
        <time>2023-10-30T22:30:23Z</time>
      </trkpt>
      <trkpt lat="47.66888" lon="-2.52279">
        <ele>121</ele>
        <time>2023-10-30T22:34:22Z</time>
      </trkpt>
      <trkpt lat="47.66878" lon="-2.52224">
        <ele>121</ele>
        <time>2023-10-30T22:35:13Z</time>
      </trkpt>
      <trkpt lat="47.66829" lon="-2.52204">
        <ele>119</ele>
        <time>2023-10-30T22:36:21Z</time>
      </trkpt>
      <trkpt lat="47.66756" lon="-2.52169">
        <ele>115</ele>
        <time>2023-10-30T22:38:04Z</time>
      </trkpt>
      <trkpt lat="47.6672" lon="-2.52149">
        <ele>114</ele>
        <time>2023-10-30T22:38:55Z</time>
      </trkpt>
      <trkpt lat="47.66686" lon="-2.52143">
        <ele>112</ele>
        <time>2023-10-30T22:39:41Z</time>
      </trkpt>
      <trkpt lat="47.66638" lon="-2.5212">
        <ele>112</ele>
        <time>2023-10-30T22:40:48Z</time>
      </trkpt>
      <trkpt lat="47.66558" lon="-2.52024">
        <ele>110</ele>
        <time>2023-10-30T22:43:05Z</time>
      </trkpt>
      <trkpt lat="47.66539" lon="-2.51986">
        <ele>110</ele>
        <time>2023-10-30T22:43:48Z</time>
      </trkpt>
      <trkpt lat="47.66518" lon="-2.51917">
        <ele>110</ele>
        <time>2023-10-30T22:44:56Z</time>
      </trkpt>
      <trkpt lat="47.66506" lon="-2.51893">
        <ele>109</ele>
        <time>2023-10-30T22:45:23Z</time>
      </trkpt>
      <trkpt lat="47.66481" lon="-2.51894">
        <ele>108</ele>
        <time>2023-10-30T22:45:56Z</time>
      </trkpt>
      <trkpt lat="47.66463" lon="-2.5193">
        <ele>108</ele>
        <time>2023-10-30T22:46:36Z</time>
      </trkpt>
      <trkpt lat="47.66443" lon="-2.51945">
        <ele>108</ele>
        <time>2023-10-30T22:47:06Z</time>
      </trkpt>
      <trkpt lat="47.66402" lon="-2.51963">
        <ele>108</ele>
        <time>2023-10-30T22:48:03Z</time>
      </trkpt>
      <trkpt lat="47.66375" lon="-2.51992">
        <ele>107</ele>
        <time>2023-10-30T22:48:48Z</time>
      </trkpt>
      <trkpt lat="47.66326" lon="-2.52095">
        <ele>106</ele>
        <time>2023-10-30T22:50:41Z</time>
      </trkpt>
      <trkpt lat="47.66281" lon="-2.52279">
        <ele>101</ele>
        <time>2023-10-30T22:53:37Z</time>
      </trkpt>
      <trkpt lat="47.66299" lon="-2.52367">
        <ele>102</ele>
        <time>2023-10-30T22:55:00Z</time>
      </trkpt>
      <trkpt lat="47.66306" lon="-2.5246">
        <ele>103</ele>
        <time>2023-10-30T22:56:24Z</time>
      </trkpt>
      <trkpt lat="47.66324" lon="-2.52518">
        <ele>105</ele>
        <time>2023-10-30T22:57:21Z</time>
      </trkpt>
      <trkpt lat="47.66341" lon="-2.52524">
        <ele>106</ele>
        <time>2023-10-30T22:57:44Z</time>
      </trkpt>
      <trkpt lat="47.66355" lon="-2.52539">
        <ele>107</ele>
        <time>2023-10-30T22:58:07Z</time>
      </trkpt>
      <trkpt lat="47.66343" lon="-2.52591">
        <ele>106</ele>
        <time>2023-10-30T22:58:57Z</time>
      </trkpt>
      <trkpt lat="47.66341" lon="-2.52651">
        <ele>105</ele>
        <time>2023-10-30T22:59:51Z</time>
      </trkpt>
      <trkpt lat="47.66335" lon="-2.52657">
        <ele>105</ele>
        <time>2023-10-30T23:00:01Z</time>
      </trkpt>
      <trkpt lat="47.66336" lon="-2.52686">
        <ele>104</ele>
        <time>2023-10-30T23:00:27Z</time>
      </trkpt>
      <trkpt lat="47.66325" lon="-2.52688">
        <ele>103</ele>
        <time>2023-10-30T23:00:41Z</time>
      </trkpt>
      <trkpt lat="47.66317" lon="-2.52686">
        <ele>102</ele>
        <time>2023-10-30T23:00:52Z</time>
      </trkpt>
      <trkpt lat="47.66315" lon="-2.52699">
        <ele>101</ele>
        <time>2023-10-30T23:01:04Z</time>
      </trkpt>
      <trkpt lat="47.66308" lon="-2.52695">
        <ele>101</ele>
        <time>2023-10-30T23:01:14Z</time>
      </trkpt>
      <trkpt lat="47.66304" lon="-2.52704">
        <ele>100</ele>
        <time>2023-10-30T23:01:24Z</time>
      </trkpt>
      <trkpt lat="47.66311" lon="-2.52723">
        <ele>100</ele>
        <time>2023-10-30T23:01:43Z</time>
      </trkpt>
      <trkpt lat="47.66308" lon="-2.52732">
        <ele>99</ele>
        <time>2023-10-30T23:01:52Z</time>
      </trkpt>
      <trkpt lat="47.6628" lon="-2.52734">
        <ele>99</ele>
        <time>2023-10-30T23:02:30Z</time>
      </trkpt>
      <trkpt lat="47.6626" lon="-2.52749">
        <ele>98</ele>
        <time>2023-10-30T23:03:00Z</time>
      </trkpt>
      <trkpt lat="47.66241" lon="-2.52774">
        <ele>99</ele>
        <time>2023-10-30T23:03:34Z</time>
      </trkpt>
      <trkpt lat="47.6624" lon="-2.5282">
        <ele>100</ele>
        <time>2023-10-30T23:04:15Z</time>
      </trkpt>
      <trkpt lat="47.66244" lon="-2.52842">
        <ele>100</ele>
        <time>2023-10-30T23:04:35Z</time>
      </trkpt>
      <trkpt lat="47.66202" lon="-2.52882">
        <ele>102</ele>
        <time>2023-10-30T23:05:42Z</time>
      </trkpt>
      <trkpt lat="47.66185" lon="-2.52922">
        <ele>103</ele>
        <time>2023-10-30T23:06:25Z</time>
      </trkpt>
      <trkpt lat="47.66167" lon="-2.5298">
        <ele>106</ele>
        <time>2023-10-30T23:07:22Z</time>
      </trkpt>
      <trkpt lat="47.66143" lon="-2.53027">
        <ele>106</ele>
        <time>2023-10-30T23:08:15Z</time>
      </trkpt>
      <trkpt lat="47.66108" lon="-2.53173">
        <ele>107</ele>
        <time>2023-10-30T23:10:34Z</time>
      </trkpt>
      <trkpt lat="47.66136" lon="-2.53344">
        <ele>108</ele>
        <time>2023-10-30T23:13:12Z</time>
      </trkpt>
      <trkpt lat="47.66139" lon="-2.53401">
        <ele>107</ele>
        <time>2023-10-30T23:14:04Z</time>
      </trkpt>
      <trkpt lat="47.66123" lon="-2.53463">
        <ele>108</ele>
        <time>2023-10-30T23:15:03Z</time>
      </trkpt>
      <trkpt lat="47.66103" lon="-2.53476">
        <ele>109</ele>
        <time>2023-10-30T23:15:33Z</time>
      </trkpt>
      <trkpt lat="47.66091" lon="-2.5348">
        <ele>110</ele>
        <time>2023-10-30T23:15:49Z</time>
      </trkpt>
      <trkpt lat="47.66076" lon="-2.53501">
        <ele>111</ele>
        <time>2023-10-30T23:16:17Z</time>
      </trkpt>
      <trkpt lat="47.66051" lon="-2.53515">
        <ele>111</ele>
        <time>2023-10-30T23:16:52Z</time>
      </trkpt>
      <trkpt lat="47.66006" lon="-2.53527">
        <ele>112</ele>
        <time>2023-10-30T23:17:53Z</time>
      </trkpt>
      <trkpt lat="47.65974" lon="-2.53531">
        <ele>112</ele>
        <time>2023-10-30T23:18:36Z</time>
      </trkpt>
      <trkpt lat="47.65955" lon="-2.53529">
        <ele>112</ele>
        <time>2023-10-30T23:19:01Z</time>
      </trkpt>
      <trkpt lat="47.65947" lon="-2.53549">
        <ele>112</ele>
        <time>2023-10-30T23:19:22Z</time>
      </trkpt>
      <trkpt lat="47.65955" lon="-2.53591">
        <ele>113</ele>
        <time>2023-10-30T23:20:02Z</time>
      </trkpt>
      <trkpt lat="47.65949" lon="-2.53609">
        <ele>113</ele>
        <time>2023-10-30T23:20:20Z</time>
      </trkpt>
      <trkpt lat="47.65914" lon="-2.53639">
        <ele>113</ele>
        <time>2023-10-30T23:21:14Z</time>
      </trkpt>
      <trkpt lat="47.65897" lon="-2.53661">
        <ele>114</ele>
        <time>2023-10-30T23:21:44Z</time>
      </trkpt>
      <trkpt lat="47.6588" lon="-2.53703">
        <ele>115</ele>
        <time>2023-10-30T23:22:28Z</time>
      </trkpt>
      <trkpt lat="47.65871" lon="-2.53732">
        <ele>115</ele>
        <time>2023-10-30T23:22:56Z</time>
      </trkpt>
      <trkpt lat="47.65869" lon="-2.53762">
        <ele>115</ele>
        <time>2023-10-30T23:23:24Z</time>
      </trkpt>
      <trkpt lat="47.65886" lon="-2.53772">
        <ele>114</ele>
        <time>2023-10-30T23:23:48Z</time>
      </trkpt>
      <trkpt lat="47.65892" lon="-2.53787">
        <ele>114</ele>
        <time>2023-10-30T23:24:04Z</time>
      </trkpt>
      <trkpt lat="47.65891" lon="-2.53809">
        <ele>114</ele>
        <time>2023-10-30T23:24:23Z</time>
      </trkpt>
      <trkpt lat="47.65884" lon="-2.5382">
        <ele>115</ele>
        <time>2023-10-30T23:24:37Z</time>
      </trkpt>
      <trkpt lat="47.65882" lon="-2.53855">
        <ele>115</ele>
        <time>2023-10-30T23:25:09Z</time>
      </trkpt>
      <trkpt lat="47.65872" lon="-2.53877">
        <ele>116</ele>
        <time>2023-10-30T23:25:32Z</time>
      </trkpt>
      <trkpt lat="47.65834" lon="-2.53934">
        <ele>119</ele>
        <time>2023-10-30T23:26:45Z</time>
      </trkpt>
      <trkpt lat="47.658" lon="-2.53999">
        <ele>119</ele>
        <time>2023-10-30T23:27:58Z</time>
      </trkpt>
      <trkpt lat="47.6581" lon="-2.54023">
        <ele>118</ele>
        <time>2023-10-30T23:28:24Z</time>
      </trkpt>
      <trkpt lat="47.65875" lon="-2.54089">
        <ele>117</ele>
        <time>2023-10-30T23:30:09Z</time>
      </trkpt>
      <trkpt lat="47.6591" lon="-2.54134">
        <ele>117</ele>
        <time>2023-10-30T23:31:11Z</time>
      </trkpt>
      <trkpt lat="47.65916" lon="-2.54166">
        <ele>117</ele>
        <time>2023-10-30T23:31:41Z</time>
      </trkpt>
      <trkpt lat="47.6602" lon="-2.54369">
        <ele>115</ele>
        <time>2023-10-30T23:35:30Z</time>
      </trkpt>
      <trkpt lat="47.66027" lon="-2.54393">
        <ele>116</ele>
        <time>2023-10-30T23:35:53Z</time>
      </trkpt>
      <trkpt lat="47.66076" lon="-2.54513">
        <ele>117</ele>
        <time>2023-10-30T23:37:59Z</time>
      </trkpt>
      <trkpt lat="47.65866" lon="-2.54527">
        <ele>111</ele>
        <time>2023-10-30T23:42:40Z</time>
      </trkpt>
      <trkpt lat="47.65815" lon="-2.54585">
        <ele>110</ele>
        <time>2023-10-30T23:44:06Z</time>
      </trkpt>
      <trkpt lat="47.65802" lon="-2.54624">
        <ele>111</ele>
        <time>2023-10-30T23:44:45Z</time>
      </trkpt>
      <trkpt lat="47.65757" lon="-2.54835">
        <ele>109</ele>
        <time>2023-10-30T23:48:04Z</time>
      </trkpt>
      <trkpt lat="47.65712" lon="-2.55096">
        <ele>111</ele>
        <time>2023-10-30T23:52:06Z</time>
      </trkpt>
      <trkpt lat="47.65685" lon="-2.55179">
        <ele>112</ele>
        <time>2023-10-30T23:53:29Z</time>
      </trkpt>
      <trkpt lat="47.65657" lon="-2.55201">
        <ele>113</ele>
        <time>2023-10-30T23:54:11Z</time>
      </trkpt>
      <trkpt lat="47.65611" lon="-2.55217">
        <ele>114</ele>
        <time>2023-10-30T23:55:14Z</time>
      </trkpt>
      <trkpt lat="47.65577" lon="-2.55235">
        <ele>114</ele>
        <time>2023-10-30T23:56:02Z</time>
      </trkpt>
      <trkpt lat="47.65563" lon="-2.55289">
        <ele>114</ele>
        <time>2023-10-30T23:56:54Z</time>
      </trkpt>
      <trkpt lat="47.65557" lon="-2.55332">
        <ele>113</ele>
        <time>2023-10-30T23:57:34Z</time>
      </trkpt>
      <trkpt lat="47.65548" lon="-2.55429">
        <ele>112</ele>
        <time>2023-10-30T23:59:02Z</time>
      </trkpt>
      <trkpt lat="47.65549" lon="-2.55498">
        <ele>110</ele>
        <time>2023-10-31T00:00:04Z</time>
      </trkpt>
      <trkpt lat="47.65521" lon="-2.55639">
        <ele>103</ele>
        <time>2023-10-31T00:02:16Z</time>
      </trkpt>
      <trkpt lat="47.65458" lon="-2.55656">
        <ele>101</ele>
        <time>2023-10-31T00:03:41Z</time>
      </trkpt>
      <trkpt lat="47.65397" lon="-2.55646">
        <ele>100</ele>
        <time>2023-10-31T00:05:03Z</time>
      </trkpt>
      <trkpt lat="47.65343" lon="-2.55644">
        <ele>101</ele>
        <time>2023-10-31T00:06:15Z</time>
      </trkpt>
      <trkpt lat="47.65307" lon="-2.55609">
        <ele>99</ele>
        <time>2023-10-31T00:07:13Z</time>
      </trkpt>
      <trkpt lat="47.65288" lon="-2.5558">
        <ele>98</ele>
        <time>2023-10-31T00:07:49Z</time>
      </trkpt>
      <trkpt lat="47.65271" lon="-2.55509">
        <ele>97</ele>
        <time>2023-10-31T00:08:57Z</time>
      </trkpt>
      <trkpt lat="47.6526" lon="-2.55489">
        <ele>96</ele>
        <time>2023-10-31T00:09:20Z</time>
      </trkpt>
      <trkpt lat="47.65254" lon="-2.55504">
        <ele>95</ele>
        <time>2023-10-31T00:09:36Z</time>
      </trkpt>
      <trkpt lat="47.65242" lon="-2.55501">
        <ele>96</ele>
        <time>2023-10-31T00:09:52Z</time>
      </trkpt>
      <trkpt lat="47.65241" lon="-2.55544">
        <ele>96</ele>
        <time>2023-10-31T00:10:31Z</time>
      </trkpt>
      <trkpt lat="47.65245" lon="-2.55645">
        <ele>95</ele>
        <time>2023-10-31T00:12:02Z</time>
      </trkpt>
      <trkpt lat="47.65258" lon="-2.55703">
        <ele>93</ele>
        <time>2023-10-31T00:12:57Z</time>
      </trkpt>
      <trkpt lat="47.65257" lon="-2.55741">
        <ele>91</ele>
        <time>2023-10-31T00:13:31Z</time>
      </trkpt>
      <trkpt lat="47.65252" lon="-2.55762">
        <ele>91</ele>
        <time>2023-10-31T00:13:51Z</time>
      </trkpt>
      <trkpt lat="47.65237" lon="-2.55774">
        <ele>93</ele>
        <time>2023-10-31T00:14:14Z</time>
      </trkpt>
      <trkpt lat="47.65223" lon="-2.55766">
        <ele>93</ele>
        <time>2023-10-31T00:14:34Z</time>
      </trkpt>
      <trkpt lat="47.65221" lon="-2.55758">
        <ele>93</ele>
        <time>2023-10-31T00:14:41Z</time>
      </trkpt>
      <trkpt lat="47.65189" lon="-2.5576">
        <ele>95</ele>
        <time>2023-10-31T00:15:24Z</time>
      </trkpt>
      <trkpt lat="47.65167" lon="-2.55709">
        <ele>98</ele>
        <time>2023-10-31T00:16:18Z</time>
      </trkpt>
      <trkpt lat="47.65089" lon="-2.55754">
        <ele>95</ele>
        <time>2023-10-31T00:18:10Z</time>
      </trkpt>
      <trkpt lat="47.65054" lon="-2.55742">
        <ele>95</ele>
        <time>2023-10-31T00:18:58Z</time>
      </trkpt>
      <trkpt lat="47.65011" lon="-2.5577">
        <ele>94</ele>
        <time>2023-10-31T00:20:01Z</time>
      </trkpt>
      <trkpt lat="47.64986" lon="-2.55816">
        <ele>94</ele>
        <time>2023-10-31T00:20:54Z</time>
      </trkpt>
      <trkpt lat="47.64971" lon="-2.55928">
        <ele>97</ele>
        <time>2023-10-31T00:22:36Z</time>
      </trkpt>
      <trkpt lat="47.64971" lon="-2.55966">
        <ele>96</ele>
        <time>2023-10-31T00:23:11Z</time>
      </trkpt>
      <trkpt lat="47.64976" lon="-2.56017">
        <ele>94</ele>
        <time>2023-10-31T00:23:57Z</time>
      </trkpt>
      <trkpt lat="47.64964" lon="-2.56102">
        <ele>92</ele>
        <time>2023-10-31T00:25:15Z</time>
      </trkpt>
      <trkpt lat="47.64943" lon="-2.56154">
        <ele>90</ele>
        <time>2023-10-31T00:26:10Z</time>
      </trkpt>
      <trkpt lat="47.64924" lon="-2.5619">
        <ele>86</ele>
        <time>2023-10-31T00:26:51Z</time>
      </trkpt>
      <trkpt lat="47.64842" lon="-2.56264">
        <ele>84</ele>
        <time>2023-10-31T00:28:59Z</time>
      </trkpt>
      <trkpt lat="47.64783" lon="-2.56336">
        <ele>80</ele>
        <time>2023-10-31T00:30:41Z</time>
      </trkpt>
      <trkpt lat="47.64764" lon="-2.56352">
        <ele>80</ele>
        <time>2023-10-31T00:31:10Z</time>
      </trkpt>
      <trkpt lat="47.64744" lon="-2.56364">
        <ele>80</ele>
        <time>2023-10-31T00:31:39Z</time>
      </trkpt>
      <trkpt lat="47.64719" lon="-2.5639">
        <ele>78</ele>
        <time>2023-10-31T00:32:19Z</time>
      </trkpt>
      <trkpt lat="47.6471" lon="-2.56364">
        <ele>82</ele>
        <time>2023-10-31T00:32:46Z</time>
      </trkpt>
      <trkpt lat="47.64705" lon="-2.56335">
        <ele>86</ele>
        <time>2023-10-31T00:33:13Z</time>
      </trkpt>
      <trkpt lat="47.64687" lon="-2.56337">
        <ele>87</ele>
        <time>2023-10-31T00:33:37Z</time>
      </trkpt>
      <trkpt lat="47.64666" lon="-2.56347">
        <ele>87</ele>
        <time>2023-10-31T00:34:06Z</time>
      </trkpt>
      <trkpt lat="47.6466" lon="-2.56321">
        <ele>90</ele>
        <time>2023-10-31T00:34:31Z</time>
      </trkpt>
      <trkpt lat="47.6464" lon="-2.56329">
        <ele>87</ele>
        <time>2023-10-31T00:34:58Z</time>
      </trkpt>
      <trkpt lat="47.64638" lon="-2.56311">
        <ele>88</ele>
        <time>2023-10-31T00:35:15Z</time>
      </trkpt>
      <trkpt lat="47.64662" lon="-2.56266">
        <ele>96</ele>
        <time>2023-10-31T00:36:06Z</time>
      </trkpt>
      <trkpt lat="47.6466" lon="-2.56228">
        <ele>98</ele>
        <time>2023-10-31T00:36:41Z</time>
      </trkpt>
      <trkpt lat="47.64663" lon="-2.56205">
        <ele>99</ele>
        <time>2023-10-31T00:37:02Z</time>
      </trkpt>
      <trkpt lat="47.64652" lon="-2.56197">
        <ele>98</ele>
        <time>2023-10-31T00:37:18Z</time>
      </trkpt>
      <trkpt lat="47.64644" lon="-2.56156">
        <ele>99</ele>
        <time>2023-10-31T00:37:56Z</time>
      </trkpt>
      <trkpt lat="47.64636" lon="-2.5614">
        <ele>99</ele>
        <time>2023-10-31T00:38:14Z</time>
      </trkpt>
      <trkpt lat="47.64629" lon="-2.56103">
        <ele>99</ele>
        <time>2023-10-31T00:38:49Z</time>
      </trkpt>
      <trkpt lat="47.64622" lon="-2.56101">
        <ele>99</ele>
        <time>2023-10-31T00:38:58Z</time>
      </trkpt>
      <trkpt lat="47.64618" lon="-2.56092">
        <ele>99</ele>
        <time>2023-10-31T00:39:08Z</time>
      </trkpt>
      <trkpt lat="47.6462" lon="-2.56069">
        <ele>100</ele>
        <time>2023-10-31T00:39:29Z</time>
      </trkpt>
      <trkpt lat="47.64593" lon="-2.56015">
        <ele>102</ele>
        <time>2023-10-31T00:40:29Z</time>
      </trkpt>
      <trkpt lat="47.64568" lon="-2.55952">
        <ele>104</ele>
        <time>2023-10-31T00:41:35Z</time>
      </trkpt>
      <trkpt lat="47.64555" lon="-2.55903">
        <ele>105</ele>
        <time>2023-10-31T00:42:22Z</time>
      </trkpt>
      <trkpt lat="47.64542" lon="-2.5589">
        <ele>105</ele>
        <time>2023-10-31T00:42:43Z</time>
      </trkpt>
      <trkpt lat="47.64537" lon="-2.5583">
        <ele>105</ele>
        <time>2023-10-31T00:43:38Z</time>
      </trkpt>
      <trkpt lat="47.64531" lon="-2.55807">
        <ele>105</ele>
        <time>2023-10-31T00:44:00Z</time>
      </trkpt>
      <trkpt lat="47.64493" lon="-2.55746">
        <ele>106</ele>
        <time>2023-10-31T00:45:15Z</time>
      </trkpt>
      <trkpt lat="47.64476" lon="-2.55744">
        <ele>104</ele>
        <time>2023-10-31T00:45:37Z</time>
      </trkpt>
      <trkpt lat="47.64458" lon="-2.55736">
        <ele>103</ele>
        <time>2023-10-31T00:46:02Z</time>
      </trkpt>
      <trkpt lat="47.64446" lon="-2.55743">
        <ele>102</ele>
        <time>2023-10-31T00:46:20Z</time>
      </trkpt>
      <trkpt lat="47.64431" lon="-2.55735">
        <ele>101</ele>
        <time>2023-10-31T00:46:41Z</time>
      </trkpt>
      <trkpt lat="47.64397" lon="-2.5573">
        <ele>98</ele>
        <time>2023-10-31T00:47:27Z</time>
      </trkpt>
    </trkseg>
  </trk>
  <trk>
    <name><![CDATA[GRPvannesJ9_KercohanBizole_17.8km-12438628]]></name>
    <extensions>
      <line xmlns="http://www.topografix.com/GPX/gpx_style/0/2">
        <color>FF00FF</color>
        <width>4</width>
      </line>
    </extensions>
    <trkseg>
      <trkpt lat="47.64398" lon="-2.55691">
        <ele>100</ele>
        <time>2023-10-30T18:01:31Z</time>
      </trkpt>
      <trkpt lat="47.64409" lon="-2.55821">
        <ele>96</ele>
        <time>2023-10-30T18:03:29Z</time>
      </trkpt>
      <trkpt lat="47.64467" lon="-2.55996">
        <ele>94</ele>
        <time>2023-10-30T18:06:24Z</time>
      </trkpt>
      <trkpt lat="47.64499" lon="-2.56166">
        <ele>87</ele>
        <time>2023-10-30T18:09:03Z</time>
      </trkpt>
      <trkpt lat="47.64523" lon="-2.56232">
        <ele>83</ele>
        <time>2023-10-30T18:10:10Z</time>
      </trkpt>
      <trkpt lat="47.64481" lon="-2.56379">
        <ele>70</ele>
        <time>2023-10-30T18:12:34Z</time>
      </trkpt>
      <trkpt lat="47.64461" lon="-2.56423">
        <ele>68</ele>
        <time>2023-10-30T18:13:22Z</time>
      </trkpt>
      <trkpt lat="47.64405" lon="-2.56414">
        <ele>70</ele>
        <time>2023-10-30T18:14:37Z</time>
      </trkpt>
      <trkpt lat="47.64355" lon="-2.56426">
        <ele>68</ele>
        <time>2023-10-30T18:15:44Z</time>
      </trkpt>
      <trkpt lat="47.64349" lon="-2.56486">
        <ele>66</ele>
        <time>2023-10-30T18:16:39Z</time>
      </trkpt>
      <trkpt lat="47.64347" lon="-2.56489">
        <ele>66</ele>
        <time>2023-10-30T18:16:43Z</time>
      </trkpt>
      <trkpt lat="47.64369" lon="-2.56623">
        <ele>62</ele>
        <time>2023-10-30T18:18:47Z</time>
      </trkpt>
      <trkpt lat="47.64323" lon="-2.56687">
        <ele>57</ele>
        <time>2023-10-30T18:20:11Z</time>
      </trkpt>
      <trkpt lat="47.64295" lon="-2.56709">
        <ele>55</ele>
        <time>2023-10-30T18:20:53Z</time>
      </trkpt>
      <trkpt lat="47.64244" lon="-2.56771">
        <ele>53</ele>
        <time>2023-10-30T18:22:21Z</time>
      </trkpt>
      <trkpt lat="47.64235" lon="-2.56793">
        <ele>53</ele>
        <time>2023-10-30T18:22:44Z</time>
      </trkpt>
      <trkpt lat="47.64197" lon="-2.56812">
        <ele>52</ele>
        <time>2023-10-30T18:23:38Z</time>
      </trkpt>
      <trkpt lat="47.6413" lon="-2.5666">
        <ele>55</ele>
        <time>2023-10-30T18:26:21Z</time>
      </trkpt>
      <trkpt lat="47.64015" lon="-2.56741">
        <ele>51</ele>
        <time>2023-10-30T18:29:11Z</time>
      </trkpt>
      <trkpt lat="47.6396" lon="-2.56751">
        <ele>49</ele>
        <time>2023-10-30T18:30:25Z</time>
      </trkpt>
      <trkpt lat="47.63928" lon="-2.56812">
        <ele>49</ele>
        <time>2023-10-30T18:31:34Z</time>
      </trkpt>
      <trkpt lat="47.63936" lon="-2.56864">
        <ele>49</ele>
        <time>2023-10-30T18:32:22Z</time>
      </trkpt>
      <trkpt lat="47.63976" lon="-2.56931">
        <ele>49</ele>
        <time>2023-10-30T18:33:43Z</time>
      </trkpt>
      <trkpt lat="47.63983" lon="-2.56962">
        <ele>48</ele>
        <time>2023-10-30T18:34:12Z</time>
      </trkpt>
      <trkpt lat="47.63975" lon="-2.56977">
        <ele>48</ele>
        <time>2023-10-30T18:34:29Z</time>
      </trkpt>
      <trkpt lat="47.63914" lon="-2.57036">
        <ele>44</ele>
        <time>2023-10-30T18:36:07Z</time>
      </trkpt>
      <trkpt lat="47.63904" lon="-2.5718">
        <ele>44</ele>
        <time>2023-10-30T18:38:17Z</time>
      </trkpt>
      <trkpt lat="47.63882" lon="-2.57197">
        <ele>47</ele>
        <time>2023-10-30T18:38:50Z</time>
      </trkpt>
      <trkpt lat="47.63878" lon="-2.57271">
        <ele>47</ele>
        <time>2023-10-30T18:39:57Z</time>
      </trkpt>
      <trkpt lat="47.63824" lon="-2.57314">
        <ele>54</ele>
        <time>2023-10-30T18:41:18Z</time>
      </trkpt>
      <trkpt lat="47.63782" lon="-2.57341">
        <ele>54</ele>
        <time>2023-10-30T18:42:19Z</time>
      </trkpt>
      <trkpt lat="47.63658" lon="-2.57393">
        <ele>45</ele>
        <time>2023-10-30T18:45:11Z</time>
      </trkpt>
      <trkpt lat="47.63668" lon="-2.57671">
        <ele>32</ele>
        <time>2023-10-30T18:49:22Z</time>
      </trkpt>
      <trkpt lat="47.63663" lon="-2.57772">
        <ele>33</ele>
        <time>2023-10-30T18:50:53Z</time>
      </trkpt>
      <trkpt lat="47.63665" lon="-2.57777">
        <ele>33</ele>
        <time>2023-10-30T18:50:58Z</time>
      </trkpt>
      <trkpt lat="47.63647" lon="-2.57866">
        <ele>31</ele>
        <time>2023-10-30T18:52:22Z</time>
      </trkpt>
      <trkpt lat="47.63562" lon="-2.57916">
        <ele>31</ele>
        <time>2023-10-30T18:54:24Z</time>
      </trkpt>
      <trkpt lat="47.63531" lon="-2.5786">
        <ele>31</ele>
        <time>2023-10-30T18:55:29Z</time>
      </trkpt>
      <trkpt lat="47.63454" lon="-2.57916">
        <ele>32</ele>
        <time>2023-10-30T18:57:23Z</time>
      </trkpt>
      <trkpt lat="47.63346" lon="-2.57941">
        <ele>35</ele>
        <time>2023-10-30T18:59:49Z</time>
      </trkpt>
      <trkpt lat="47.63316" lon="-2.57987">
        <ele>34</ele>
        <time>2023-10-30T19:00:47Z</time>
      </trkpt>
      <trkpt lat="47.63329" lon="-2.58012">
        <ele>33</ele>
        <time>2023-10-30T19:01:15Z</time>
      </trkpt>
      <trkpt lat="47.63318" lon="-2.5808">
        <ele>35</ele>
        <time>2023-10-30T19:02:18Z</time>
      </trkpt>
      <trkpt lat="47.63311" lon="-2.58166">
        <ele>37</ele>
        <time>2023-10-30T19:03:36Z</time>
      </trkpt>
      <trkpt lat="47.63328" lon="-2.58344">
        <ele>33</ele>
        <time>2023-10-30T19:06:17Z</time>
      </trkpt>
      <trkpt lat="47.63309" lon="-2.58449">
        <ele>31</ele>
        <time>2023-10-30T19:07:55Z</time>
      </trkpt>
      <trkpt lat="47.63345" lon="-2.58556">
        <ele>29</ele>
        <time>2023-10-30T19:09:43Z</time>
      </trkpt>
      <trkpt lat="47.63357" lon="-2.58622">
        <ele>30</ele>
        <time>2023-10-30T19:10:44Z</time>
      </trkpt>
      <trkpt lat="47.63349" lon="-2.58731">
        <ele>32</ele>
        <time>2023-10-30T19:12:23Z</time>
      </trkpt>
      <trkpt lat="47.63327" lon="-2.58799">
        <ele>32</ele>
        <time>2023-10-30T19:13:31Z</time>
      </trkpt>
      <trkpt lat="47.63326" lon="-2.58872">
        <ele>33</ele>
        <time>2023-10-30T19:14:36Z</time>
      </trkpt>
      <trkpt lat="47.6331" lon="-2.58973">
        <ele>31</ele>
        <time>2023-10-30T19:16:10Z</time>
      </trkpt>
      <trkpt lat="47.63449" lon="-2.59201">
        <ele>36</ele>
        <time>2023-10-30T19:20:46Z</time>
      </trkpt>
      <trkpt lat="47.63582" lon="-2.59473">
        <ele>32</ele>
        <time>2023-10-30T19:25:48Z</time>
      </trkpt>
      <trkpt lat="47.63667" lon="-2.59673">
        <ele>32</ele>
        <time>2023-10-30T19:29:21Z</time>
      </trkpt>
      <trkpt lat="47.63709" lon="-2.597">
        <ele>30</ele>
        <time>2023-10-30T19:30:22Z</time>
      </trkpt>
      <trkpt lat="47.63734" lon="-2.59784">
        <ele>27</ele>
        <time>2023-10-30T19:31:45Z</time>
      </trkpt>
      <trkpt lat="47.6375" lon="-2.59868">
        <ele>25</ele>
        <time>2023-10-30T19:33:03Z</time>
      </trkpt>
      <trkpt lat="47.63849" lon="-2.60176">
        <ele>37</ele>
        <time>2023-10-30T19:38:10Z</time>
      </trkpt>
      <trkpt lat="47.63942" lon="-2.60112">
        <ele>34</ele>
        <time>2023-10-30T19:40:27Z</time>
      </trkpt>
      <trkpt lat="47.6397" lon="-2.60066">
        <ele>34</ele>
        <time>2023-10-30T19:41:22Z</time>
      </trkpt>
      <trkpt lat="47.63998" lon="-2.59958">
        <ele>31</ele>
        <time>2023-10-30T19:43:06Z</time>
      </trkpt>
      <trkpt lat="47.63997" lon="-2.5984">
        <ele>28</ele>
        <time>2023-10-30T19:44:53Z</time>
      </trkpt>
      <trkpt lat="47.63946" lon="-2.59729">
        <ele>27</ele>
        <time>2023-10-30T19:46:53Z</time>
      </trkpt>
      <trkpt lat="47.63913" lon="-2.5971">
        <ele>27</ele>
        <time>2023-10-30T19:47:41Z</time>
      </trkpt>
      <trkpt lat="47.63921" lon="-2.59625">
        <ele>28</ele>
        <time>2023-10-30T19:48:58Z</time>
      </trkpt>
      <trkpt lat="47.63977" lon="-2.59643">
        <ele>28</ele>
        <time>2023-10-30T19:50:14Z</time>
      </trkpt>
      <trkpt lat="47.63974" lon="-2.59542">
        <ele>29</ele>
        <time>2023-10-30T19:51:45Z</time>
      </trkpt>
      <trkpt lat="47.63994" lon="-2.59505">
        <ele>30</ele>
        <time>2023-10-30T19:52:28Z</time>
      </trkpt>
      <trkpt lat="47.64006" lon="-2.59461">
        <ele>31</ele>
        <time>2023-10-30T19:53:10Z</time>
      </trkpt>
      <trkpt lat="47.64039" lon="-2.59387">
        <ele>33</ele>
        <time>2023-10-30T19:54:30Z</time>
      </trkpt>
      <trkpt lat="47.64088" lon="-2.5933">
        <ele>35</ele>
        <time>2023-10-30T19:55:53Z</time>
      </trkpt>
      <trkpt lat="47.64202" lon="-2.59144">
        <ele>50</ele>
        <time>2023-10-30T19:59:39Z</time>
      </trkpt>
      <trkpt lat="47.64268" lon="-2.58948">
        <ele>53</ele>
        <time>2023-10-30T20:02:56Z</time>
      </trkpt>
      <trkpt lat="47.64344" lon="-2.588">
        <ele>53</ele>
        <time>2023-10-30T20:05:44Z</time>
      </trkpt>
      <trkpt lat="47.64357" lon="-2.58823">
        <ele>54</ele>
        <time>2023-10-30T20:06:11Z</time>
      </trkpt>
      <trkpt lat="47.64371" lon="-2.58874">
        <ele>54</ele>
        <time>2023-10-30T20:07:00Z</time>
      </trkpt>
      <trkpt lat="47.64379" lon="-2.5892">
        <ele>54</ele>
        <time>2023-10-30T20:07:43Z</time>
      </trkpt>
      <trkpt lat="47.64384" lon="-2.58971">
        <ele>54</ele>
        <time>2023-10-30T20:08:29Z</time>
      </trkpt>
      <trkpt lat="47.64397" lon="-2.5903">
        <ele>54</ele>
        <time>2023-10-30T20:09:25Z</time>
      </trkpt>
      <trkpt lat="47.64395" lon="-2.59241">
        <ele>47</ele>
        <time>2023-10-30T20:12:35Z</time>
      </trkpt>
      <trkpt lat="47.64417" lon="-2.59232">
        <ele>48</ele>
        <time>2023-10-30T20:13:05Z</time>
      </trkpt>
      <trkpt lat="47.64476" lon="-2.59221">
        <ele>47</ele>
        <time>2023-10-30T20:14:25Z</time>
      </trkpt>
      <trkpt lat="47.64487" lon="-2.5923">
        <ele>47</ele>
        <time>2023-10-30T20:14:41Z</time>
      </trkpt>
      <trkpt lat="47.64533" lon="-2.59245">
        <ele>45</ele>
        <time>2023-10-30T20:15:44Z</time>
      </trkpt>
      <trkpt lat="47.64555" lon="-2.59283">
        <ele>42</ele>
        <time>2023-10-30T20:16:29Z</time>
      </trkpt>
      <trkpt lat="47.64568" lon="-2.59326">
        <ele>40</ele>
        <time>2023-10-30T20:17:12Z</time>
      </trkpt>
      <trkpt lat="47.64559" lon="-2.59389">
        <ele>39</ele>
        <time>2023-10-30T20:18:10Z</time>
      </trkpt>
      <trkpt lat="47.6457" lon="-2.59407">
        <ele>38</ele>
        <time>2023-10-30T20:18:31Z</time>
      </trkpt>
      <trkpt lat="47.64578" lon="-2.59468">
        <ele>40</ele>
        <time>2023-10-30T20:19:27Z</time>
      </trkpt>
      <trkpt lat="47.64555" lon="-2.59493">
        <ele>42</ele>
        <time>2023-10-30T20:20:05Z</time>
      </trkpt>
      <trkpt lat="47.64578" lon="-2.59629">
        <ele>44</ele>
        <time>2023-10-30T20:22:11Z</time>
      </trkpt>
      <trkpt lat="47.64594" lon="-2.59703">
        <ele>43</ele>
        <time>2023-10-30T20:23:21Z</time>
      </trkpt>
      <trkpt lat="47.64614" lon="-2.59717">
        <ele>43</ele>
        <time>2023-10-30T20:23:51Z</time>
      </trkpt>
      <trkpt lat="47.6469" lon="-2.59663">
        <ele>42</ele>
        <time>2023-10-30T20:25:43Z</time>
      </trkpt>
      <trkpt lat="47.6474" lon="-2.59582">
        <ele>41</ele>
        <time>2023-10-30T20:27:22Z</time>
      </trkpt>
      <trkpt lat="47.64778" lon="-2.59541">
        <ele>42</ele>
        <time>2023-10-30T20:28:25Z</time>
      </trkpt>
      <trkpt lat="47.64807" lon="-2.59469">
        <ele>43</ele>
        <time>2023-10-30T20:29:40Z</time>
      </trkpt>
      <trkpt lat="47.64932" lon="-2.59347">
        <ele>49</ele>
        <time>2023-10-30T20:33:00Z</time>
      </trkpt>
      <trkpt lat="47.64937" lon="-2.59317">
        <ele>50</ele>
        <time>2023-10-30T20:33:28Z</time>
      </trkpt>
      <trkpt lat="47.65018" lon="-2.59253">
        <ele>54</ele>
        <time>2023-10-30T20:35:30Z</time>
      </trkpt>
      <trkpt lat="47.64991" lon="-2.59162">
        <ele>53</ele>
        <time>2023-10-30T20:36:59Z</time>
      </trkpt>
      <trkpt lat="47.6509" lon="-2.59096">
        <ele>58</ele>
        <time>2023-10-30T20:39:24Z</time>
      </trkpt>
      <trkpt lat="47.65185" lon="-2.59294">
        <ele>60</ele>
        <time>2023-10-30T20:43:03Z</time>
      </trkpt>
      <trkpt lat="47.65222" lon="-2.59447">
        <ele>60</ele>
        <time>2023-10-30T20:45:29Z</time>
      </trkpt>
      <trkpt lat="47.65282" lon="-2.59583">
        <ele>60</ele>
        <time>2023-10-30T20:47:55Z</time>
      </trkpt>
      <trkpt lat="47.65307" lon="-2.59568">
        <ele>62</ele>
        <time>2023-10-30T20:48:31Z</time>
      </trkpt>
      <trkpt lat="47.65362" lon="-2.59512">
        <ele>63</ele>
        <time>2023-10-30T20:50:00Z</time>
      </trkpt>
      <trkpt lat="47.65394" lon="-2.59486">
        <ele>64</ele>
        <time>2023-10-30T20:50:49Z</time>
      </trkpt>
      <trkpt lat="47.65443" lon="-2.59426">
        <ele>65</ele>
        <time>2023-10-30T20:52:13Z</time>
      </trkpt>
      <trkpt lat="47.65496" lon="-2.59387">
        <ele>66</ele>
        <time>2023-10-30T20:53:32Z</time>
      </trkpt>
      <trkpt lat="47.65517" lon="-2.59365">
        <ele>68</ele>
        <time>2023-10-30T20:54:07Z</time>
      </trkpt>
      <trkpt lat="47.65641" lon="-2.59289">
        <ele>81</ele>
        <time>2023-10-30T20:57:06Z</time>
      </trkpt>
      <trkpt lat="47.65687" lon="-2.59262">
        <ele>85</ele>
        <time>2023-10-30T20:58:12Z</time>
      </trkpt>
      <trkpt lat="47.65714" lon="-2.59251">
        <ele>86</ele>
        <time>2023-10-30T20:58:49Z</time>
      </trkpt>
      <trkpt lat="47.6575" lon="-2.59228">
        <ele>88</ele>
        <time>2023-10-30T20:59:41Z</time>
      </trkpt>
      <trkpt lat="47.65842" lon="-2.59193">
        <ele>95</ele>
        <time>2023-10-30T21:01:48Z</time>
      </trkpt>
      <trkpt lat="47.6587" lon="-2.59196">
        <ele>96</ele>
        <time>2023-10-30T21:02:26Z</time>
      </trkpt>
      <trkpt lat="47.65889" lon="-2.59184">
        <ele>97</ele>
        <time>2023-10-30T21:02:53Z</time>
      </trkpt>
      <trkpt lat="47.65951" lon="-2.59173">
        <ele>100</ele>
        <time>2023-10-30T21:04:16Z</time>
      </trkpt>
      <trkpt lat="47.65969" lon="-2.59211">
        <ele>98</ele>
        <time>2023-10-30T21:04:58Z</time>
      </trkpt>
      <trkpt lat="47.6597" lon="-2.59245">
        <ele>97</ele>
        <time>2023-10-30T21:05:29Z</time>
      </trkpt>
      <trkpt lat="47.65957" lon="-2.59326">
        <ele>94</ele>
        <time>2023-10-30T21:06:44Z</time>
      </trkpt>
      <trkpt lat="47.6595" lon="-2.59341">
        <ele>93</ele>
        <time>2023-10-30T21:07:00Z</time>
      </trkpt>
      <trkpt lat="47.65945" lon="-2.5937">
        <ele>92</ele>
        <time>2023-10-30T21:07:27Z</time>
      </trkpt>
      <trkpt lat="47.65942" lon="-2.59397">
        <ele>92</ele>
        <time>2023-10-30T21:07:51Z</time>
      </trkpt>
      <trkpt lat="47.65947" lon="-2.59437">
        <ele>90</ele>
        <time>2023-10-30T21:08:28Z</time>
      </trkpt>
      <trkpt lat="47.65926" lon="-2.59443">
        <ele>91</ele>
        <time>2023-10-30T21:08:57Z</time>
      </trkpt>
      <trkpt lat="47.65933" lon="-2.59562">
        <ele>86</ele>
        <time>2023-10-30T21:10:44Z</time>
      </trkpt>
      <trkpt lat="47.65913" lon="-2.59607">
        <ele>84</ele>
        <time>2023-10-30T21:11:32Z</time>
      </trkpt>
      <trkpt lat="47.65874" lon="-2.59644">
        <ele>82</ele>
        <time>2023-10-30T21:12:34Z</time>
      </trkpt>
      <trkpt lat="47.6588" lon="-2.59665">
        <ele>81</ele>
        <time>2023-10-30T21:12:55Z</time>
      </trkpt>
      <trkpt lat="47.65861" lon="-2.59702">
        <ele>80</ele>
        <time>2023-10-30T21:13:37Z</time>
      </trkpt>
      <trkpt lat="47.65872" lon="-2.59746">
        <ele>81</ele>
        <time>2023-10-30T21:14:19Z</time>
      </trkpt>
      <trkpt lat="47.65859" lon="-2.59768">
        <ele>81</ele>
        <time>2023-10-30T21:14:45Z</time>
      </trkpt>
      <trkpt lat="47.65857" lon="-2.5979">
        <ele>81</ele>
        <time>2023-10-30T21:15:05Z</time>
      </trkpt>
      <trkpt lat="47.659" lon="-2.59824">
        <ele>86</ele>
        <time>2023-10-30T21:16:10Z</time>
      </trkpt>
      <trkpt lat="47.65928" lon="-2.59873">
        <ele>90</ele>
        <time>2023-10-30T21:17:08Z</time>
      </trkpt>
      <trkpt lat="47.65969" lon="-2.59967">
        <ele>91</ele>
        <time>2023-10-30T21:18:48Z</time>
      </trkpt>
      <trkpt lat="47.66002" lon="-2.59993">
        <ele>92</ele>
        <time>2023-10-30T21:19:38Z</time>
      </trkpt>
      <trkpt lat="47.66063" lon="-2.59906">
        <ele>96</ele>
        <time>2023-10-30T21:21:31Z</time>
      </trkpt>
      <trkpt lat="47.66136" lon="-2.59871">
        <ele>98</ele>
        <time>2023-10-30T21:23:13Z</time>
      </trkpt>
      <trkpt lat="47.662" lon="-2.59822">
        <ele>96</ele>
        <time>2023-10-30T21:24:50Z</time>
      </trkpt>
      <trkpt lat="47.66257" lon="-2.59827">
        <ele>93</ele>
        <time>2023-10-30T21:26:06Z</time>
      </trkpt>
      <trkpt lat="47.66298" lon="-2.59817">
        <ele>87</ele>
        <time>2023-10-30T21:27:01Z</time>
      </trkpt>
      <trkpt lat="47.66299" lon="-2.59772">
        <ele>88</ele>
        <time>2023-10-30T21:27:42Z</time>
      </trkpt>
      <trkpt lat="47.6629" lon="-2.59729">
        <ele>89</ele>
        <time>2023-10-30T21:28:22Z</time>
      </trkpt>
      <trkpt lat="47.6627" lon="-2.59672">
        <ele>90</ele>
        <time>2023-10-30T21:29:20Z</time>
      </trkpt>
      <trkpt lat="47.6624" lon="-2.59693">
        <ele>91</ele>
        <time>2023-10-30T21:30:04Z</time>
      </trkpt>
      <trkpt lat="47.66228" lon="-2.59556">
        <ele>91</ele>
        <time>2023-10-30T21:32:08Z</time>
      </trkpt>
      <trkpt lat="47.66306" lon="-2.59514">
        <ele>93</ele>
        <time>2023-10-30T21:33:59Z</time>
      </trkpt>
      <trkpt lat="47.66356" lon="-2.5948">
        <ele>96</ele>
        <time>2023-10-30T21:35:12Z</time>
      </trkpt>
      <trkpt lat="47.66317" lon="-2.59361">
        <ele>97</ele>
        <time>2023-10-30T21:37:11Z</time>
      </trkpt>
      <trkpt lat="47.66269" lon="-2.59295">
        <ele>96</ele>
        <time>2023-10-30T21:38:39Z</time>
      </trkpt>
      <trkpt lat="47.66399" lon="-2.59116">
        <ele>108</ele>
        <time>2023-10-30T21:42:35Z</time>
      </trkpt>
      <trkpt lat="47.66424" lon="-2.59149">
        <ele>108</ele>
        <time>2023-10-30T21:43:20Z</time>
      </trkpt>
      <trkpt lat="47.66471" lon="-2.59058">
        <ele>114</ele>
        <time>2023-10-30T21:45:03Z</time>
      </trkpt>
      <trkpt lat="47.66532" lon="-2.58896">
        <ele>118</ele>
        <time>2023-10-30T21:47:50Z</time>
      </trkpt>
      <trkpt lat="47.66628" lon="-2.58943">
        <ele>114</ele>
        <time>2023-10-30T21:50:05Z</time>
      </trkpt>
      <trkpt lat="47.66693" lon="-2.58958">
        <ele>110</ele>
        <time>2023-10-30T21:51:32Z</time>
      </trkpt>
      <trkpt lat="47.66632" lon="-2.59339">
        <ele>99</ele>
        <time>2023-10-30T21:57:24Z</time>
      </trkpt>
      <trkpt lat="47.66649" lon="-2.5946">
        <ele>96</ele>
        <time>2023-10-30T21:59:15Z</time>
      </trkpt>
      <trkpt lat="47.66621" lon="-2.59469">
        <ele>98</ele>
        <time>2023-10-30T21:59:54Z</time>
      </trkpt>
      <trkpt lat="47.66629" lon="-2.5953">
        <ele>97</ele>
        <time>2023-10-30T22:00:50Z</time>
      </trkpt>
      <trkpt lat="47.66629" lon="-2.59641">
        <ele>96</ele>
        <time>2023-10-30T22:02:29Z</time>
      </trkpt>
      <trkpt lat="47.66638" lon="-2.59722">
        <ele>93</ele>
        <time>2023-10-30T22:03:43Z</time>
      </trkpt>
      <trkpt lat="47.66638" lon="-2.59807">
        <ele>91</ele>
        <time>2023-10-30T22:04:59Z</time>
      </trkpt>
      <trkpt lat="47.66619" lon="-2.59905">
        <ele>87</ele>
        <time>2023-10-30T22:06:31Z</time>
      </trkpt>
      <trkpt lat="47.66611" lon="-2.60001">
        <ele>89</ele>
        <time>2023-10-30T22:07:58Z</time>
      </trkpt>
      <trkpt lat="47.66595" lon="-2.60013">
        <ele>89</ele>
        <time>2023-10-30T22:08:22Z</time>
      </trkpt>
      <trkpt lat="47.66599" lon="-2.60235">
        <ele>92</ele>
        <time>2023-10-30T22:11:42Z</time>
      </trkpt>
      <trkpt lat="47.66653" lon="-2.60439">
        <ele>90</ele>
        <time>2023-10-30T22:14:59Z</time>
      </trkpt>
      <trkpt lat="47.66656" lon="-2.60526">
        <ele>91</ele>
        <time>2023-10-30T22:16:17Z</time>
      </trkpt>
      <trkpt lat="47.66672" lon="-2.60698">
        <ele>97</ele>
        <time>2023-10-30T22:18:53Z</time>
      </trkpt>
      <trkpt lat="47.66696" lon="-2.607">
        <ele>96</ele>
        <time>2023-10-30T22:19:25Z</time>
      </trkpt>
      <trkpt lat="47.66736" lon="-2.60824">
        <ele>95</ele>
        <time>2023-10-30T22:21:29Z</time>
      </trkpt>
      <trkpt lat="47.66834" lon="-2.6107">
        <ele>86</ele>
        <time>2023-10-30T22:25:45Z</time>
      </trkpt>
      <trkpt lat="47.66834" lon="-2.6111">
        <ele>88</ele>
        <time>2023-10-30T22:26:21Z</time>
      </trkpt>
      <trkpt lat="47.66909" lon="-2.61197">
        <ele>83</ele>
        <time>2023-10-30T22:28:28Z</time>
      </trkpt>
      <trkpt lat="47.66927" lon="-2.61288">
        <ele>83</ele>
        <time>2023-10-30T22:29:54Z</time>
      </trkpt>
      <trkpt lat="47.66973" lon="-2.61479">
        <ele>83</ele>
        <time>2023-10-30T22:32:56Z</time>
      </trkpt>
      <trkpt lat="47.66914" lon="-2.61494">
        <ele>84</ele>
        <time>2023-10-30T22:34:16Z</time>
      </trkpt>
      <trkpt lat="47.67073" lon="-2.61902">
        <ele>94</ele>
        <time>2023-10-30T22:41:19Z</time>
      </trkpt>
      <trkpt lat="47.67122" lon="-2.62067">
        <ele>99</ele>
        <time>2023-10-30T22:44:01Z</time>
      </trkpt>
      <trkpt lat="47.67157" lon="-2.62214">
        <ele>90</ele>
        <time>2023-10-30T22:46:22Z</time>
      </trkpt>
      <trkpt lat="47.67232" lon="-2.62371">
        <ele>86</ele>
        <time>2023-10-30T22:49:14Z</time>
      </trkpt>
      <trkpt lat="47.67238" lon="-2.62485">
        <ele>85</ele>
        <time>2023-10-30T22:50:57Z</time>
      </trkpt>
      <trkpt lat="47.67216" lon="-2.6263">
        <ele>88</ele>
        <time>2023-10-30T22:53:11Z</time>
      </trkpt>
      <trkpt lat="47.67219" lon="-2.62753">
        <ele>87</ele>
        <time>2023-10-30T22:55:01Z</time>
      </trkpt>
      <trkpt lat="47.6728" lon="-2.62909">
        <ele>79</ele>
        <time>2023-10-30T22:57:43Z</time>
      </trkpt>
      <trkpt lat="47.67282" lon="-2.63026">
        <ele>76</ele>
        <time>2023-10-30T22:59:29Z</time>
      </trkpt>
      <trkpt lat="47.67226" lon="-2.63124">
        <ele>76</ele>
        <time>2023-10-30T23:01:24Z</time>
      </trkpt>
      <trkpt lat="47.67258" lon="-2.63202">
        <ele>71</ele>
        <time>2023-10-30T23:02:46Z</time>
      </trkpt>
      <trkpt lat="47.67297" lon="-2.63158">
        <ele>73</ele>
        <time>2023-10-30T23:03:52Z</time>
      </trkpt>
      <trkpt lat="47.67291" lon="-2.6318">
        <ele>73</ele>
        <time>2023-10-30T23:04:13Z</time>
      </trkpt>
      <trkpt lat="47.67293" lon="-2.63237">
        <ele>73</ele>
        <time>2023-10-30T23:05:04Z</time>
      </trkpt>
      <trkpt lat="47.67312" lon="-2.63271">
        <ele>74</ele>
        <time>2023-10-30T23:05:44Z</time>
      </trkpt>
      <trkpt lat="47.67355" lon="-2.63303">
        <ele>74</ele>
        <time>2023-10-30T23:06:48Z</time>
      </trkpt>
      <trkpt lat="47.67382" lon="-2.63319">
        <ele>73</ele>
        <time>2023-10-30T23:07:27Z</time>
      </trkpt>
      <trkpt lat="47.6741" lon="-2.63328">
        <ele>73</ele>
        <time>2023-10-30T23:08:05Z</time>
      </trkpt>
      <trkpt lat="47.67427" lon="-2.63367">
        <ele>72</ele>
        <time>2023-10-30T23:08:47Z</time>
      </trkpt>
      <trkpt lat="47.67406" lon="-2.63451">
        <ele>72</ele>
        <time>2023-10-30T23:10:07Z</time>
      </trkpt>
      <trkpt lat="47.67385" lon="-2.63473">
        <ele>73</ele>
        <time>2023-10-30T23:10:42Z</time>
      </trkpt>
      <trkpt lat="47.67314" lon="-2.63433">
        <ele>71</ele>
        <time>2023-10-30T23:12:23Z</time>
      </trkpt>
      <trkpt lat="47.67254" lon="-2.63417">
        <ele>71</ele>
        <time>2023-10-30T23:13:44Z</time>
      </trkpt>
      <trkpt lat="47.67044" lon="-2.63376">
        <ele>76</ele>
        <time>2023-10-30T23:18:27Z</time>
      </trkpt>
      <trkpt lat="47.6708" lon="-2.63493">
        <ele>89</ele>
        <time>2023-10-30T23:20:23Z</time>
      </trkpt>
      <trkpt lat="47.67262" lon="-2.63579">
        <ele>95</ele>
        <time>2023-10-30T23:24:37Z</time>
      </trkpt>
      <trkpt lat="47.67314" lon="-2.636">
        <ele>96</ele>
        <time>2023-10-30T23:25:49Z</time>
      </trkpt>
      <trkpt lat="47.67367" lon="-2.63625">
        <ele>97</ele>
        <time>2023-10-30T23:27:04Z</time>
      </trkpt>
      <trkpt lat="47.67415" lon="-2.63654">
        <ele>100</ele>
        <time>2023-10-30T23:28:13Z</time>
      </trkpt>
      <trkpt lat="47.67518" lon="-2.63788">
        <ele>102</ele>
        <time>2023-10-30T23:31:15Z</time>
      </trkpt>
      <trkpt lat="47.67566" lon="-2.63891">
        <ele>101</ele>
        <time>2023-10-30T23:33:08Z</time>
      </trkpt>
      <trkpt lat="47.67464" lon="-2.64001">
        <ele>109</ele>
        <time>2023-10-30T23:35:56Z</time>
      </trkpt>
      <trkpt lat="47.67382" lon="-2.6407">
        <ele>108</ele>
        <time>2023-10-30T23:38:02Z</time>
      </trkpt>
      <trkpt lat="47.6717" lon="-2.64302">
        <ele>91</ele>
        <time>2023-10-30T23:43:53Z</time>
      </trkpt>
      <trkpt lat="47.67196" lon="-2.64402">
        <ele>85</ele>
        <time>2023-10-30T23:45:30Z</time>
      </trkpt>
      <trkpt lat="47.67216" lon="-2.64468">
        <ele>82</ele>
        <time>2023-10-30T23:46:35Z</time>
      </trkpt>
      <trkpt lat="47.67224" lon="-2.64582">
        <ele>74</ele>
        <time>2023-10-30T23:48:18Z</time>
      </trkpt>
      <trkpt lat="47.67157" lon="-2.64654">
        <ele>66</ele>
        <time>2023-10-30T23:50:08Z</time>
      </trkpt>
      <trkpt lat="47.67102" lon="-2.64657">
        <ele>59</ele>
        <time>2023-10-30T23:51:22Z</time>
      </trkpt>
      <trkpt lat="47.6704" lon="-2.64688">
        <ele>53</ele>
        <time>2023-10-30T23:52:49Z</time>
      </trkpt>
      <trkpt lat="47.66988" lon="-2.6473">
        <ele>51</ele>
        <time>2023-10-30T23:54:08Z</time>
      </trkpt>
      <trkpt lat="47.66986" lon="-2.64773">
        <ele>50</ele>
        <time>2023-10-30T23:54:47Z</time>
      </trkpt>
      <trkpt lat="47.67022" lon="-2.64836">
        <ele>49</ele>
        <time>2023-10-30T23:56:01Z</time>
      </trkpt>
      <trkpt lat="47.67034" lon="-2.64877">
        <ele>49</ele>
        <time>2023-10-30T23:56:41Z</time>
      </trkpt>
    </trkseg>
  </trk>
</gpx>